Time,TemperatureF,DewpointF,PressureIn,WindDirection,WindDirectionDegrees,WindSpeedMPH,WindSpeedGustMPH,Humidity,HourlyPrecipIn,Conditions,Clouds,dailyrainin,SolarRadiationWatts/m^2,SoftwareType,DateUTC
2013-09-22 00:00:00,72.0,28.3,29.23,West,260,2.1,2.5,19,-99.99,,,0.00,0,rob ver 1B,2013-09-22 07:00:00,
2013-09-22 00:01:00,71.8,28.3,29.23,West,274,2.0,2.9,19,-99.99,,,0.00,0,rob ver 1B,2013-09-22 07:01:00,
2013-09-22 00:02:00,79.0,41.4,29.15,West,261,6.6,8.8,26,-99.99,,,0.00,0,rob ver 1A,2013-09-22 07:02:00,
2013-09-22 00:03:00,71.5,28.3,29.26,WNW,287,2.4,3.1,20,-99.99,,,0.00,0,rob ver 1B,2013-09-22 07:03:00,
2013-09-22 00:04:00,71.5,28.5,29.23,WNW,285,2.5,2.9,20,-99.99,,,0.00,0,rob ver 1B,2013-09-22 07:04:00,
2013-09-22 00:05:00,71.5,28.8,29.23,WNW,290,2.5,3.3,20,-99.99,,,0.00,0,rob ver 1B,2013-09-22 07:05:00,
2013-09-22 00:06:00,71.6,29.0,29.23,WNW,292,2.5,3.2,20,-99.99,,,0.00,0,rob ver 1B,2013-09-22 07:06:00,
2013-09-22 00:07:00,78.9,42.5,29.15,WSW,258,5.8,7.4,27,-99.99,,,0.00,0,rob ver 1A,2013-09-22 07:07:00,
2013-09-22 00:08:00,71.6,30.0,29.23,WNW,291,3.0,3.7,21,-99.99,,,0.00,0,rob ver 1B,2013-09-22 07:08:00,
2013-09-22 00:09:00,71.6,30.1,29.23,WNW,293,3.0,3.6,21,-99.99,,,0.00,0,rob ver 1B,2013-09-22 07:09:00,
2013-09-22 00:10:00,71.6,30.2,29.23,WNW,297,2.8,3.1,21,-99.99,,,0.00,0,rob ver 1B,2013-09-22 07:10:00,
2013-09-22 00:11:00,71.6,30.1,29.23,NW,307,2.9,3.6,21,-99.99,,,0.00,0,rob ver 1B,2013-09-22 07:11:00,
2013-09-22 00:12:00,78.8,43.3,29.15,WSW,254,7.1,8.4,28,-99.99,,,0.00,0,rob ver 1A,2013-09-22 07:12:00,
2013-09-22 00:13:00,71.5,30.1,29.23,NW,308,2.9,3.6,21,-99.99,,,0.00,0,rob ver 1B,2013-09-22 07:13:00,
2013-09-22 00:14:00,71.4,30.0,29.23,NW,308,2.8,3.5,21,-99.99,,,0.00,0,rob ver 1B,2013-09-22 07:14:00,
2013-09-22 00:15:00,71.3,29.9,29.23,NW,309,3.1,3.7,21,-99.99,,,0.00,0,rob ver 1B,2013-09-22 07:15:00,
2013-09-22 00:16:00,71.2,30.2,29.23,NW,309,2.9,3.5,21,-99.99,,,0.00,0,rob ver 1B,2013-09-22 07:16:00,
2013-09-22 00:17:00,78.8,43.7,29.15,WSW,245,7.6,9.5,28,-99.99,,,0.00,0,rob ver 1A,2013-09-22 07:17:00,
2013-09-22 00:18:00,71.1,30.5,29.26,NW,313,3.6,4.5,22,-99.99,,,0.00,0,rob ver 1B,2013-09-22 07:18:00,
2013-09-22 00:19:00,71.0,30.4,29.26,NW,309,3.6,4.4,22,-99.99,,,0.00,0,rob ver 1B,2013-09-22 07:19:00,
2013-09-22 00:20:00,71.0,30.5,29.23,NW,307,3.7,4.5,22,-99.99,,,0.00,0,rob ver 1B,2013-09-22 07:20:00,
2013-09-22 00:21:00,71.0,30.6,29.23,NW,311,3.7,4.4,22,-99.99,,,0.00,0,rob ver 1B,2013-09-22 07:21:00,
2013-09-22 00:22:00,70.9,30.7,29.23,NW,307,3.7,4.5,22,-99.99,,,0.00,0,rob ver 1B,2013-09-22 07:22:00,
2013-09-22 00:23:00,78.5,43.9,29.15,WSW,249,7.3,9.4,29,-99.99,,,0.00,0,rob ver 1A,2013-09-22 07:23:00,
2013-09-22 00:24:00,70.9,30.5,29.23,WNW,299,3.9,4.5,22,-99.99,,,0.00,0,rob ver 1B,2013-09-22 07:24:00,
2013-09-22 00:25:00,71.0,30.5,29.23,WNW,303,4.3,4.8,22,-99.99,,,0.00,0,rob ver 1B,2013-09-22 07:25:00,
2013-09-22 00:26:00,71.1,30.3,29.23,NW,306,4.3,5.0,21,-99.99,,,0.00,0,rob ver 1B,2013-09-22 07:26:00,
2013-09-22 00:27:00,71.1,30.2,29.23,WNW,302,4.3,4.9,21,-99.99,,,0.00,0,rob ver 1B,2013-09-22 07:27:00,
2013-09-22 00:28:00,78.1,44.0,29.15,WSW,238,5.0,6.3,29,-99.99,,,0.00,0,rob ver 1A,2013-09-22 07:28:00,
2013-09-22 00:29:00,71.2,30.2,29.23,WNW,291,3.7,4.4,21,-99.99,,,0.00,0,rob ver 1B,2013-09-22 07:29:00,
2013-09-22 00:30:00,71.1,30.3,29.23,WNW,287,3.5,4.0,21,-99.99,,,0.00,0,rob ver 1B,2013-09-22 07:30:00,
2013-09-22 00:31:00,71.0,30.2,29.23,WNW,286,3.4,3.9,21,-99.99,,,0.00,0,rob ver 1B,2013-09-22 07:31:00,
2013-09-22 00:32:00,70.8,30.2,29.23,WNW,291,3.4,4.0,21,-99.99,,,0.00,0,rob ver 1B,2013-09-22 07:32:00,
2013-09-22 00:33:00,77.8,44.2,29.15,WSW,240,4.5,5.3,30,-99.99,,,0.00,0,rob ver 1A,2013-09-22 07:33:00,
2013-09-22 00:34:00,70.7,30.0,29.23,WNW,299,3.9,4.3,22,-99.99,,,0.00,0,rob ver 1B,2013-09-22 07:34:00,
2013-09-22 00:35:00,70.7,30.1,29.23,WNW,302,4.0,4.3,22,-99.99,,,0.00,0,rob ver 1B,2013-09-22 07:35:00,
2013-09-22 00:36:00,70.6,30.1,29.23,WNW,303,4.2,4.5,22,-99.99,,,0.00,0,rob ver 1B,2013-09-22 07:36:00,
2013-09-22 00:37:00,70.6,30.1,29.23,NW,304,4.5,4.9,22,-99.99,,,0.00,0,rob ver 1B,2013-09-22 07:37:00,
2013-09-22 00:38:00,77.5,44.5,29.15,WSW,245,3.6,4.3,30,-99.99,,,0.00,0,rob ver 1A,2013-09-22 07:38:00,
2013-09-22 00:39:00,70.6,30.1,29.23,NW,304,4.4,5.1,22,-99.99,,,0.00,0,rob ver 1B,2013-09-22 07:39:00,
2013-09-22 00:40:00,70.6,30.2,29.23,NW,306,4.2,4.7,22,-99.99,,,0.00,0,rob ver 1B,2013-09-22 07:40:00,
2013-09-22 00:41:00,70.6,30.7,29.23,NW,310,3.9,4.3,23,-99.99,,,0.00,0,rob ver 1B,2013-09-22 07:41:00,
2013-09-22 00:42:00,70.4,31.0,29.23,NW,308,3.8,4.7,22,-99.99,,,0.00,0,rob ver 1B,2013-09-22 07:42:00,
2013-09-22 00:43:00,77.6,44.6,29.15,SW,236,4.4,5.5,30,-99.99,,,0.00,0,rob ver 1A,2013-09-22 07:43:00,
2013-09-22 00:44:00,70.3,31.0,29.23,NW,306,3.9,4.6,23,-99.99,,,0.00,0,rob ver 1B,2013-09-22 07:44:00,
2013-09-22 00:45:00,70.3,31.4,29.23,NW,308,3.7,4.2,23,-99.99,,,0.00,0,rob ver 1B,2013-09-22 07:45:00,
2013-09-22 00:46:00,70.2,31.4,29.23,NW,308,3.9,4.5,23,-99.99,,,0.00,0,rob ver 1B,2013-09-22 07:46:00,
2013-09-22 00:47:00,70.1,31.3,29.23,NW,304,4.2,4.6,23,-99.99,,,0.00,0,rob ver 1B,2013-09-22 07:47:00,
2013-09-22 00:48:00,77.5,44.7,29.15,SW,225,2.7,3.5,31,-99.99,,,0.00,0,rob ver 1A,2013-09-22 07:48:00,
2013-09-22 00:49:00,70.2,30.6,29.23,WNW,290,4.4,4.7,22,-99.99,,,0.00,0,rob ver 1B,2013-09-22 07:49:00,
2013-09-22 00:50:00,70.2,30.8,29.23,WNW,289,4.3,4.6,23,-99.99,,,0.00,0,rob ver 1B,2013-09-22 07:50:00,
2013-09-22 00:51:00,70.2,30.9,29.23,WNW,291,3.7,4.0,23,-99.99,,,0.00,0,rob ver 1B,2013-09-22 07:51:00,
2013-09-22 00:52:00,70.2,31.1,29.23,WNW,288,3.4,3.6,23,-99.99,,,0.00,0,rob ver 1B,2013-09-22 07:52:00,
2013-09-22 00:53:00,77.3,44.6,29.15,South,191,2.8,3.2,31,-99.99,,,0.00,0,rob ver 1A,2013-09-22 07:53:00,
2013-09-22 00:54:00,70.0,31.1,29.23,WNW,288,3.0,3.2,23,-99.99,,,0.00,0,rob ver 1B,2013-09-22 07:54:00,
2013-09-22 00:55:00,69.9,31.0,29.23,WNW,283,3.2,3.4,23,-99.99,,,0.00,0,rob ver 1B,2013-09-22 07:55:00,
2013-09-22 00:56:00,69.9,31.0,29.23,WNW,286,3.3,3.4,23,-99.99,,,0.00,0,rob ver 1B,2013-09-22 07:56:00,
2013-09-22 00:57:00,69.8,31.0,29.23,WNW,286,3.2,3.3,23,-99.99,,,0.00,0,rob ver 1B,2013-09-22 07:57:00,
2013-09-22 00:58:00,76.9,44.7,29.15,South,179,2.7,3.0,32,-99.99,,,0.00,0,rob ver 1A,2013-09-22 07:58:00,
2013-09-22 00:59:00,69.7,31.2,29.23,West,268,2.9,3.0,23,-99.99,,,0.00,0,rob ver 1B,2013-09-22 07:59:00,
2013-09-22 01:00:00,69.6,31.2,29.23,West,280,2.9,3.0,24,-99.99,,,0.00,0,rob ver 1B,2013-09-22 08:00:00,
2013-09-22 01:01:00,69.5,31.4,29.23,WNW,283,2.6,2.8,24,-99.99,,,0.00,0,rob ver 1B,2013-09-22 08:01:00,
2013-09-22 01:02:00,69.4,31.4,29.23,WNW,283,2.2,2.6,24,-99.99,,,0.00,0,rob ver 1B,2013-09-22 08:02:00,
2013-09-22 01:03:00,76.5,44.5,29.15,SSW,203,2.6,3.3,32,-99.99,,,0.00,0,rob ver 1A,2013-09-22 08:03:00,
2013-09-22 01:04:00,69.2,31.5,29.26,WNW,282,2.4,2.5,24,-99.99,,,0.00,0,rob ver 1B,2013-09-22 08:04:00,
2013-09-22 01:05:00,69.1,31.5,29.23,West,280,2.6,2.8,24,-99.99,,,0.00,0,rob ver 1B,2013-09-22 08:05:00,
2013-09-22 01:06:00,69.1,31.4,29.23,West,279,2.7,2.9,24,-99.99,,,0.00,0,rob ver 1B,2013-09-22 08:06:00,
2013-09-22 01:07:00,69.0,31.5,29.23,West,280,2.7,2.8,24,-99.99,,,0.00,0,rob ver 1B,2013-09-22 08:07:00,
2013-09-22 01:08:00,69.0,31.5,29.26,West,280,2.7,2.9,24,-99.99,,,0.00,0,rob ver 1B,2013-09-22 08:08:00,
2013-09-22 01:09:00,76.5,44.5,29.15,WSW,239,4.4,6.5,31,-99.99,,,0.00,0,rob ver 1A,2013-09-22 08:09:00,
2013-09-22 01:10:00,69.0,31.5,29.23,WNW,282,2.7,2.8,24,-99.99,,,0.00,0,rob ver 1B,2013-09-22 08:10:00,
2013-09-22 01:11:00,69.0,31.6,29.26,WNW,282,2.8,2.9,24,-99.99,,,0.00,0,rob ver 1B,2013-09-22 08:11:00,
2013-09-22 01:12:00,69.0,31.5,29.26,WNW,285,2.9,3.1,24,-99.99,,,0.00,0,rob ver 1B,2013-09-22 08:12:00,
2013-09-22 01:13:00,69.0,31.6,29.26,WNW,284,3.1,3.1,24,-99.99,,,0.00,0,rob ver 1B,2013-09-22 08:13:00,
2013-09-22 01:14:00,77.1,44.7,29.15,WSW,248,4.2,5.6,31,-99.99,,,0.00,0,rob ver 1A,2013-09-22 08:14:00,
2013-09-22 01:15:00,69.0,31.8,29.26,West,281,3.1,3.3,25,-99.99,,,0.00,0,rob ver 1B,2013-09-22 08:15:00,
2013-09-22 01:16:00,69.0,31.8,29.26,West,281,3.1,3.2,24,-99.99,,,0.00,0,rob ver 1B,2013-09-22 08:16:00,
2013-09-22 01:17:00,68.9,31.6,29.23,West,281,3.3,3.3,24,-99.99,,,0.00,0,rob ver 1B,2013-09-22 08:17:00,
2013-09-22 01:18:00,68.9,31.7,29.23,WNW,283,3.4,3.6,25,-99.99,,,0.00,0,rob ver 1B,2013-09-22 08:18:00,
2013-09-22 01:19:00,77.4,45.2,29.15,WSW,239,6.6,7.7,31,-99.99,,,0.00,0,rob ver 1A,2013-09-22 08:19:00,
2013-09-22 01:20:00,68.8,31.9,29.26,WNW,282,3.3,3.5,25,-99.99,,,0.00,0,rob ver 1B,2013-09-22 08:20:00,
2013-09-22 01:21:00,68.8,32.0,29.23,WNW,282,3.3,3.6,25,-99.99,,,0.00,0,rob ver 1B,2013-09-22 08:21:00,
2013-09-22 01:22:00,68.7,32.0,29.23,WNW,282,3.3,3.5,25,-99.99,,,0.00,0,rob ver 1B,2013-09-22 08:22:00,
2013-09-22 01:23:00,68.6,31.9,29.26,WNW,284,3.0,3.2,25,-99.99,,,0.00,0,rob ver 1B,2013-09-22 08:23:00,
2013-09-22 01:24:00,77.4,45.7,29.15,WSW,247,6.9,8.3,32,-99.99,,,0.00,0,rob ver 1A,2013-09-22 08:24:00,
2013-09-22 01:25:00,68.5,32.2,29.26,WNW,285,2.7,2.9,25,-99.99,,,0.00,0,rob ver 1B,2013-09-22 08:25:00,
2013-09-22 01:26:00,68.5,32.3,29.26,WNW,282,2.6,3.0,25,-99.99,,,0.00,0,rob ver 1B,2013-09-22 08:26:00,
2013-09-22 01:27:00,68.4,32.2,29.26,West,280,2.6,3.0,25,-99.99,,,0.00,0,rob ver 1B,2013-09-22 08:27:00,
2013-09-22 01:28:00,68.4,32.1,29.26,West,279,2.6,2.9,25,-99.99,,,0.00,0,rob ver 1B,2013-09-22 08:28:00,
2013-09-22 01:29:00,77.0,46.0,29.15,WSW,240,6.0,7.5,33,-99.99,,,0.00,0,rob ver 1A,2013-09-22 08:29:00,
2013-09-22 01:30:00,68.2,32.0,29.26,West,273,2.9,3.1,26,-99.99,,,0.00,0,rob ver 1B,2013-09-22 08:30:00,
2013-09-22 01:31:00,68.1,32.1,29.26,West,271,3.0,3.3,26,-99.99,,,0.00,0,rob ver 1B,2013-09-22 08:31:00,
2013-09-22 01:32:00,68.1,32.2,29.26,West,274,2.9,3.1,26,-99.99,,,0.00,0,rob ver 1B,2013-09-22 08:32:00,
2013-09-22 01:33:00,68.0,32.2,29.26,West,276,3.0,3.2,26,-99.99,,,0.00,0,rob ver 1B,2013-09-22 08:33:00,
2013-09-22 01:34:00,76.8,46.2,29.15,SW,236,5.1,6.0,33,-99.99,,,0.00,0,rob ver 1A,2013-09-22 08:34:00,
2013-09-22 01:35:00,67.8,32.2,29.26,West,277,3.4,3.9,26,-99.99,,,0.00,0,rob ver 1B,2013-09-22 08:35:00,
2013-09-22 01:36:00,67.7,32.1,29.26,West,278,3.7,4.0,26,-99.99,,,0.00,0,rob ver 1B,2013-09-22 08:36:00,
2013-09-22 01:37:00,67.7,32.1,29.26,West,279,3.9,4.2,26,-99.99,,,0.00,0,rob ver 1B,2013-09-22 08:37:00,
2013-09-22 01:38:00,67.7,32.1,29.26,WNW,282,3.9,4.1,26,-99.99,,,0.00,0,rob ver 1B,2013-09-22 08:38:00,
2013-09-22 01:39:00,76.7,46.2,29.15,WSW,239,6.3,8.2,33,-99.99,,,0.00,0,rob ver 1A,2013-09-22 08:39:00,
2013-09-22 01:40:00,67.7,32.1,29.26,WNW,283,3.8,4.1,26,-99.99,,,0.00,0,rob ver 1B,2013-09-22 08:40:00,
2013-09-22 01:41:00,67.7,32.0,29.26,WNW,287,4.3,4.6,26,-99.99,,,0.00,0,rob ver 1B,2013-09-22 08:41:00,
2013-09-22 01:42:00,67.8,32.1,29.26,WNW,285,4.0,4.4,26,-99.99,,,0.00,0,rob ver 1B,2013-09-22 08:42:00,
2013-09-22 01:43:00,67.8,32.1,29.26,WNW,287,4.0,4.3,26,-99.99,,,0.00,0,rob ver 1B,2013-09-22 08:43:00,
2013-09-22 01:44:00,77.0,46.2,29.15,WSW,240,5.5,6.4,33,-99.99,,,0.00,0,rob ver 1A,2013-09-22 08:44:00,
2013-09-22 01:45:00,67.8,32.0,29.26,WNW,294,4.1,4.7,26,-99.99,,,0.00,0,rob ver 1B,2013-09-22 08:45:00,
2013-09-22 01:46:00,67.9,32.2,29.26,WNW,291,3.9,4.5,26,-99.99,,,0.00,0,rob ver 1B,2013-09-22 08:46:00,
2013-09-22 01:47:00,67.9,31.9,29.26,WNW,296,4.0,4.7,26,-99.99,,,0.00,0,rob ver 1B,2013-09-22 08:47:00,
2013-09-22 01:48:00,68.0,31.9,29.26,WNW,297,3.9,4.6,26,-99.99,,,0.00,0,rob ver 1B,2013-09-22 08:48:00,
2013-09-22 01:49:00,76.6,45.8,29.15,WSW,250,5.5,6.4,33,-99.99,,,0.00,0,rob ver 1A,2013-09-22 08:49:00,
2013-09-22 01:50:00,68.1,31.8,29.26,WNW,297,4.0,4.3,25,-99.99,,,0.00,0,rob ver 1B,2013-09-22 08:50:00,
2013-09-22 01:51:00,68.1,31.9,29.26,WNW,296,4.1,4.3,26,-99.99,,,0.00,0,rob ver 1B,2013-09-22 08:51:00,
2013-09-22 01:52:00,68.1,31.9,29.26,WNW,296,4.0,4.3,25,-99.99,,,0.00,0,rob ver 1B,2013-09-22 08:52:00,
2013-09-22 01:53:00,68.1,31.8,29.26,WNW,296,3.8,4.0,25,-99.99,,,0.00,0,rob ver 1B,2013-09-22 08:53:00,
2013-09-22 01:54:00,68.1,32.1,29.26,WNW,291,3.1,3.7,26,-99.99,,,0.00,0,rob ver 1B,2013-09-22 08:54:00,
2013-09-22 01:55:00,76.4,45.5,29.15,SW,234,6.4,9.5,33,-99.99,,,0.00,0,rob ver 1A,2013-09-22 08:55:00,
2013-09-22 01:56:00,68.0,32.1,29.26,WNW,286,3.1,3.3,26,-99.99,,,0.00,0,rob ver 1B,2013-09-22 08:56:00,
2013-09-22 01:57:00,67.9,32.0,29.26,WNW,287,3.2,3.4,26,-99.99,,,0.00,0,rob ver 1B,2013-09-22 08:57:00,
2013-09-22 01:58:00,67.9,31.8,29.26,WNW,284,3.2,3.3,25,-99.99,,,0.00,0,rob ver 1B,2013-09-22 08:58:00,
2013-09-22 01:59:00,67.9,31.8,29.26,West,278,3.0,3.5,25,-99.99,,,0.00,0,rob ver 1B,2013-09-22 08:59:00,
2013-09-22 02:00:00,76.5,45.9,29.15,West,266,2.4,3.6,33,-99.99,,,0.00,0,rob ver 1A,2013-09-22 09:00:00,
2013-09-22 02:01:00,67.9,31.9,29.26,West,270,3.0,3.1,26,-99.99,,,0.00,0,rob ver 1B,2013-09-22 09:01:00,
2013-09-22 02:02:00,67.8,31.9,29.26,West,269,3.1,3.3,26,-99.99,,,0.00,0,rob ver 1B,2013-09-22 09:02:00,
2013-09-22 02:04:00,67.6,31.9,29.26,West,264,3.3,3.5,26,-99.99,,,0.00,0,rob ver 1B,2013-09-22 09:04:00,
2013-09-22 02:05:00,76.6,45.2,29.15,WSW,242,5.6,6.8,32,-99.99,,,0.00,0,rob ver 1A,2013-09-22 09:05:00,
2013-09-22 02:06:00,67.5,32.7,29.26,West,262,3.1,3.5,27,-99.99,,,0.00,0,rob ver 1B,2013-09-22 09:06:00,
2013-09-22 02:07:00,67.4,33.2,29.26,West,263,3.3,3.5,28,-99.99,,,0.00,0,rob ver 1B,2013-09-22 09:07:00,
2013-09-22 02:08:00,67.2,33.0,29.26,West,266,3.3,3.6,27,-99.99,,,0.00,0,rob ver 1B,2013-09-22 09:08:00,
2013-09-22 02:09:00,67.2,32.9,29.26,West,266,3.2,3.4,27,-99.99,,,0.00,0,rob ver 1B,2013-09-22 09:09:00,
2013-09-22 02:10:00,76.4,44.9,29.15,WSW,245,6.2,8.2,32,-99.99,,,0.00,0,rob ver 1A,2013-09-22 09:10:00,
2013-09-22 02:11:00,67.2,33.0,29.26,West,269,2.9,3.0,28,-99.99,,,0.00,0,rob ver 1B,2013-09-22 09:11:00,
2013-09-22 02:12:00,67.2,32.8,29.26,West,270,2.7,2.9,27,-99.99,,,0.00,0,rob ver 1B,2013-09-22 09:12:00,
2013-09-22 02:13:00,67.2,32.6,29.26,West,275,2.4,2.7,27,-99.99,,,0.00,0,rob ver 1B,2013-09-22 09:13:00,
2013-09-22 02:14:00,67.3,32.7,29.26,West,279,2.3,2.4,27,-99.99,,,0.00,0,rob ver 1B,2013-09-22 09:14:00,
2013-09-22 02:15:00,76.0,45.5,29.15,West,264,3.4,4.1,33,-99.99,,,0.00,0,rob ver 1A,2013-09-22 09:15:00,
2013-09-22 02:16:00,67.3,33.4,29.26,West,272,1.5,1.8,28,-99.99,,,0.00,0,rob ver 1B,2013-09-22 09:16:00,
2013-09-22 02:17:00,67.3,33.3,29.26,West,271,1.5,1.6,28,-99.99,,,0.00,0,rob ver 1B,2013-09-22 09:17:00,
2013-09-22 02:18:00,67.3,33.1,29.26,West,272,1.7,1.9,27,-99.99,,,0.00,0,rob ver 1B,2013-09-22 09:18:00,
2013-09-22 02:19:00,67.3,33.0,29.26,West,270,2.0,2.1,27,-99.99,,,0.00,0,rob ver 1B,2013-09-22 09:19:00,
2013-09-22 02:20:00,75.6,45.6,29.15,WSW,256,2.8,3.6,34,-99.99,,,0.00,0,rob ver 1A,2013-09-22 09:20:00,
2013-09-22 02:21:00,67.3,32.7,29.26,West,269,2.0,2.1,27,-99.99,,,0.00,0,rob ver 1B,2013-09-22 09:21:00,
2013-09-22 02:22:00,67.4,33.3,29.26,West,265,2.3,2.4,28,-99.99,,,0.00,0,rob ver 1B,2013-09-22 09:22:00,
2013-09-22 02:23:00,67.4,33.7,29.26,West,268,2.4,2.5,28,-99.99,,,0.00,0,rob ver 1B,2013-09-22 09:23:00,
2013-09-22 02:24:00,67.4,33.3,29.26,West,279,2.3,2.5,28,-99.99,,,0.00,0,rob ver 1B,2013-09-22 09:24:00,
2013-09-22 02:25:00,75.8,44.6,29.15,WSW,255,9.1,11.5,32,-99.99,,,0.00,0,rob ver 1A,2013-09-22 09:25:00,
2013-09-22 02:26:00,67.4,33.1,29.26,West,262,2.6,2.8,27,-99.99,,,0.00,0,rob ver 1B,2013-09-22 09:26:00,
2013-09-22 02:27:00,67.4,33.1,29.26,West,267,2.6,2.7,27,-99.99,,,0.00,0,rob ver 1B,2013-09-22 09:27:00,
2013-09-22 02:28:00,67.5,32.8,29.26,West,271,2.6,2.8,27,-99.99,,,0.00,0,rob ver 1B,2013-09-22 09:28:00,
2013-09-22 02:29:00,67.5,32.2,29.26,West,273,2.9,3.2,26,-99.99,,,0.00,0,rob ver 1B,2013-09-22 09:29:00,
2013-09-22 02:30:00,76.2,44.3,29.15,WSW,251,7.3,9.3,32,-99.99,,,0.00,0,rob ver 1A,2013-09-22 09:30:00,
2013-09-22 02:31:00,67.8,32.7,29.26,WSW,258,2.8,3.0,27,-99.99,,,0.00,0,rob ver 1B,2013-09-22 09:31:00,
2013-09-22 02:32:00,67.7,33.0,29.23,WSW,252,2.9,3.2,27,-99.99,,,0.00,0,rob ver 1B,2013-09-22 09:32:00,
2013-09-22 02:33:00,67.7,33.0,29.26,WSW,252,3.2,3.4,27,-99.99,,,0.00,0,rob ver 1B,2013-09-22 09:33:00,
2013-09-22 02:34:00,67.5,33.0,29.26,West,260,3.3,3.5,27,-99.99,,,0.00,0,rob ver 1B,2013-09-22 09:34:00,
2013-09-22 02:35:00,76.1,43.7,29.15,WSW,244,9.0,10.6,31,-99.99,,,0.00,0,rob ver 1A,2013-09-22 09:35:00,
2013-09-22 02:36:00,67.4,32.8,29.23,West,269,3.5,3.7,27,-99.99,,,0.00,0,rob ver 1B,2013-09-22 09:36:00,
2013-09-22 02:37:00,67.4,32.9,29.26,West,271,3.5,3.8,27,-99.99,,,0.00,0,rob ver 1B,2013-09-22 09:37:00,
2013-09-22 02:38:00,67.4,32.8,29.26,West,270,4.0,4.4,27,-99.99,,,0.00,0,rob ver 1B,2013-09-22 09:38:00,
2013-09-22 02:39:00,67.3,32.7,29.23,West,276,4.3,4.5,27,-99.99,,,0.00,0,rob ver 1B,2013-09-22 09:39:00,
2013-09-22 02:40:00,67.3,32.4,29.23,WNW,285,4.6,4.9,27,-99.99,,,0.00,0,rob ver 1B,2013-09-22 09:40:00,
2013-09-22 02:41:00,76.0,43.7,29.15,WSW,242,8.1,10.9,31,-99.99,,,0.00,0,rob ver 1A,2013-09-22 09:41:00,
2013-09-22 02:42:00,67.4,32.9,29.23,WNW,291,4.1,4.4,27,-99.99,,,0.00,0,rob ver 1B,2013-09-22 09:42:00,
2013-09-22 02:43:00,67.4,32.6,29.23,WNW,294,3.8,4.3,27,-99.99,,,0.00,0,rob ver 1B,2013-09-22 09:43:00,
2013-09-22 02:44:00,67.5,32.4,29.23,WNW,292,3.7,4.2,26,-99.99,,,0.00,0,rob ver 1B,2013-09-22 09:44:00,
2013-09-22 02:45:00,67.6,32.2,29.26,WNW,294,3.9,4.4,26,-99.99,,,0.00,0,rob ver 1B,2013-09-22 09:45:00,
2013-09-22 02:46:00,75.9,43.5,29.15,WSW,248,10.1,12.9,31,-99.99,,,0.00,0,rob ver 1A,2013-09-22 09:46:00,
2013-09-22 02:47:00,67.8,32.1,29.23,WNW,300,3.8,4.2,26,-99.99,,,0.00,0,rob ver 1B,2013-09-22 09:47:00,
2013-09-22 02:48:00,67.9,31.9,29.26,WNW,301,4.0,4.3,26,-99.99,,,0.00,0,rob ver 1B,2013-09-22 09:48:00,
2013-09-22 02:49:00,68.1,32.0,29.26,WNW,297,3.8,4.1,26,-99.99,,,0.00,0,rob ver 1B,2013-09-22 09:49:00,
2013-09-22 02:50:00,68.3,31.9,29.23,WNW,293,4.1,4.6,25,-99.99,,,0.00,0,rob ver 1B,2013-09-22 09:50:00,
2013-09-22 02:51:00,75.6,43.4,29.15,WSW,255,9.9,12.3,31,-99.99,,,0.00,0,rob ver 1A,2013-09-22 09:51:00,
2013-09-22 02:52:00,68.4,31.6,29.23,WNW,292,5.1,5.4,25,-99.99,,,0.00,0,rob ver 1B,2013-09-22 09:52:00,
2013-09-22 02:53:00,68.5,31.3,29.23,WNW,293,5.2,5.5,24,-99.99,,,0.00,0,rob ver 1B,2013-09-22 09:53:00,
2013-09-22 02:54:00,68.6,31.3,29.23,WNW,298,5.0,5.4,25,-99.99,,,0.00,0,rob ver 1B,2013-09-22 09:54:00,
2013-09-22 02:55:00,68.7,31.6,29.23,NW,305,4.4,4.7,25,-99.99,,,0.00,0,rob ver 1B,2013-09-22 09:55:00,
2013-09-22 02:56:00,75.7,43.3,29.15,WSW,250,10.4,12.9,31,-99.99,,,0.00,0,rob ver 1A,2013-09-22 09:56:00,
2013-09-22 02:57:00,68.6,31.8,29.23,WNW,303,4.4,4.7,25,-99.99,,,0.00,0,rob ver 1B,2013-09-22 09:57:00,
2013-09-22 02:58:00,68.6,31.3,29.23,WNW,303,4.3,4.7,24,-99.99,,,0.00,0,rob ver 1B,2013-09-22 09:58:00,
2013-09-22 02:59:00,68.7,31.1,29.26,WNW,299,4.0,4.3,24,-99.99,,,0.00,0,rob ver 1B,2013-09-22 09:59:00,
2013-09-22 03:00:00,68.7,31.0,29.26,WNW,294,4.0,4.2,24,-99.99,,,0.00,0,rob ver 1B,2013-09-22 10:00:00,
2013-09-22 03:01:00,75.4,43.7,29.15,West,274,8.0,10.2,32,-99.99,,,0.00,0,rob ver 1A,2013-09-22 10:01:00,
2013-09-22 03:02:00,68.8,31.6,29.23,WNW,292,3.4,3.8,25,-99.99,,,0.00,0,rob ver 1B,2013-09-22 10:02:00,
2013-09-22 03:03:00,68.6,31.9,29.26,WNW,286,3.3,3.6,25,-99.99,,,0.00,0,rob ver 1B,2013-09-22 10:03:00,
2013-09-22 03:04:00,68.5,32.1,29.23,WNW,284,3.5,3.9,25,-99.99,,,0.00,0,rob ver 1B,2013-09-22 10:04:00,
2013-09-22 03:05:00,68.4,32.0,29.23,WNW,289,4.0,4.2,25,-99.99,,,0.00,0,rob ver 1B,2013-09-22 10:05:00,
2013-09-22 03:06:00,74.8,44.3,29.15,West,266,7.8,10.4,33,-99.99,,,0.00,0,rob ver 1A,2013-09-22 10:06:00,
2013-09-22 03:07:00,68.0,32.0,29.23,West,280,3.6,4.0,26,-99.99,,,0.00,0,rob ver 1B,2013-09-22 10:07:00,
2013-09-22 03:08:00,67.9,31.9,29.23,WNW,285,3.9,4.0,26,-99.99,,,0.00,0,rob ver 1B,2013-09-22 10:08:00,
2013-09-22 03:09:00,67.8,32.1,29.23,WNW,288,3.5,3.7,26,-99.99,,,0.00,0,rob ver 1B,2013-09-22 10:09:00,
2013-09-22 03:10:00,67.7,32.2,29.23,WNW,290,3.4,3.7,26,-99.99,,,0.00,0,rob ver 1B,2013-09-22 10:10:00,
2013-09-22 03:11:00,74.8,44.4,29.15,West,268,8.3,10.8,33,-99.99,,,0.00,0,rob ver 1A,2013-09-22 10:11:00,
2013-09-22 03:12:00,67.6,32.5,29.23,WNW,289,2.9,3.2,26,-99.99,,,0.00,0,rob ver 1B,2013-09-22 10:12:00,
2013-09-22 03:13:00,67.6,32.5,29.26,WNW,289,2.7,2.9,27,-99.99,,,0.00,0,rob ver 1B,2013-09-22 10:13:00,
2013-09-22 03:14:00,67.5,32.5,29.26,WNW,286,2.6,2.7,27,-99.99,,,0.00,0,rob ver 1B,2013-09-22 10:14:00,
2013-09-22 03:15:00,67.5,32.5,29.26,West,281,2.6,2.7,26,-99.99,,,0.00,0,rob ver 1B,2013-09-22 10:15:00,
2013-09-22 03:16:00,74.6,44.3,29.15,West,264,8.4,10.5,33,-99.99,,,0.00,0,rob ver 1A,2013-09-22 10:16:00,
2013-09-22 03:17:00,67.5,32.5,29.26,West,268,2.5,2.8,27,-99.99,,,0.00,0,rob ver 1B,2013-09-22 10:17:00,
2013-09-22 03:18:00,67.4,32.4,29.26,West,266,2.9,3.2,26,-99.99,,,0.00,0,rob ver 1B,2013-09-22 10:18:00,
2013-09-22 03:19:00,67.4,32.2,29.26,West,272,3.4,3.5,26,-99.99,,,0.00,0,rob ver 1B,2013-09-22 10:19:00,
2013-09-22 03:20:00,67.4,32.2,29.23,West,272,3.3,3.4,27,-99.99,,,0.00,0,rob ver 1B,2013-09-22 10:20:00,
2013-09-22 03:21:00,74.4,44.3,29.15,West,260,6.9,8.3,34,-99.99,,,0.00,0,rob ver 1A,2013-09-22 10:21:00,
2013-09-22 03:22:00,67.1,32.5,29.26,West,259,3.8,4.1,27,-99.99,,,0.00,0,rob ver 1B,2013-09-22 10:22:00,
2013-09-22 03:23:00,67.0,32.7,29.26,West,259,3.7,4.0,28,-99.99,,,0.00,0,rob ver 1B,2013-09-22 10:23:00,
2013-09-22 03:24:00,66.9,32.8,29.26,WSW,258,3.7,4.0,28,-99.99,,,0.00,0,rob ver 1B,2013-09-22 10:24:00,
2013-09-22 03:25:00,66.8,32.7,29.26,WSW,253,4.2,4.6,28,-99.99,,,0.00,0,rob ver 1B,2013-09-22 10:25:00,
2013-09-22 03:26:00,66.7,32.5,29.26,WSW,256,4.4,4.6,27,-99.99,,,0.00,0,rob ver 1B,2013-09-22 10:26:00,
2013-09-22 03:27:00,74.2,44.0,29.15,WSW,247,7.2,8.7,34,-99.99,,,0.00,0,rob ver 1A,2013-09-22 10:27:00,
2013-09-22 03:28:00,66.8,32.3,29.26,West,266,3.6,4.1,27,-99.99,,,0.00,0,rob ver 1B,2013-09-22 10:28:00,
2013-09-22 03:29:00,66.8,32.3,29.26,West,265,3.6,4.0,27,-99.99,,,0.00,0,rob ver 1B,2013-09-22 10:29:00,
2013-09-22 03:30:00,66.8,32.3,29.26,West,268,3.9,4.2,27,-99.99,,,0.00,0,rob ver 1B,2013-09-22 10:30:00,
2013-09-22 03:31:00,66.8,32.3,29.26,West,271,4.4,4.7,27,-99.99,,,0.00,0,rob ver 1B,2013-09-22 10:31:00,
2013-09-22 03:32:00,74.3,43.7,29.15,WSW,246,6.7,10.0,33,-99.99,,,0.00,0,rob ver 1A,2013-09-22 10:32:00,
2013-09-22 03:33:00,66.9,32.4,29.26,West,270,4.1,4.4,27,-99.99,,,0.00,0,rob ver 1B,2013-09-22 10:33:00,
2013-09-22 03:34:00,66.8,32.3,29.23,West,275,4.4,4.6,27,-99.99,,,0.00,0,rob ver 1B,2013-09-22 10:34:00,
2013-09-22 03:35:00,66.8,32.1,29.26,West,279,4.5,4.9,27,-99.99,,,0.00,0,rob ver 1B,2013-09-22 10:35:00,
2013-09-22 03:36:00,66.8,32.2,29.26,West,274,4.5,4.7,27,-99.99,,,0.00,0,rob ver 1B,2013-09-22 10:36:00,
2013-09-22 03:37:00,74.0,43.8,29.15,SW,233,6.2,7.6,33,-99.99,,,0.00,0,rob ver 1A,2013-09-22 10:37:00,
2013-09-22 03:38:00,66.7,32.2,29.23,West,277,4.3,4.6,27,-99.99,,,0.00,0,rob ver 1B,2013-09-22 10:38:00,
2013-09-22 03:39:00,66.6,32.2,29.26,West,278,4.2,4.4,27,-99.99,,,0.00,0,rob ver 1B,2013-09-22 10:39:00,
2013-09-22 03:40:00,66.6,32.2,29.26,West,275,4.2,4.5,27,-99.99,,,0.00,0,rob ver 1B,2013-09-22 10:40:00,
2013-09-22 03:41:00,66.5,32.3,29.26,West,275,4.1,4.4,27,-99.99,,,0.00,0,rob ver 1B,2013-09-22 10:41:00,
2013-09-22 03:42:00,73.6,43.8,29.15,WSW,238,8.3,11.4,34,-99.99,,,0.00,0,rob ver 1A,2013-09-22 10:42:00,
2013-09-22 03:43:00,66.2,32.2,29.26,West,277,4.3,4.6,27,-99.99,,,0.00,0,rob ver 1B,2013-09-22 10:43:00,
2013-09-22 03:44:00,66.2,32.0,29.26,WNW,284,4.2,4.5,27,-99.99,,,0.00,0,rob ver 1B,2013-09-22 10:44:00,
2013-09-22 03:45:00,66.1,32.1,29.26,WNW,288,4.1,4.3,27,-99.99,,,0.00,0,rob ver 1B,2013-09-22 10:45:00,
2013-09-22 03:46:00,66.2,31.9,29.26,WNW,293,4.2,4.4,27,-99.99,,,0.00,0,rob ver 1B,2013-09-22 10:46:00,
2013-09-22 03:47:00,66.2,31.9,29.26,WNW,296,4.1,4.3,27,-99.99,,,0.00,0,rob ver 1B,2013-09-22 10:47:00,
2013-09-22 03:48:00,73.9,43.8,29.15,WSW,250,7.2,8.5,34,-99.99,,,0.00,0,rob ver 1A,2013-09-22 10:48:00,
2013-09-22 03:49:00,66.3,32.4,29.23,WNW,291,3.9,4.2,28,-99.99,,,0.00,0,rob ver 1B,2013-09-22 10:49:00,
2013-09-22 03:50:00,66.3,32.6,29.26,WNW,291,3.6,4.0,28,-99.99,,,0.00,0,rob ver 1B,2013-09-22 10:50:00,
2013-09-22 03:51:00,66.2,32.6,29.26,WNW,289,3.6,4.0,28,-99.99,,,0.00,0,rob ver 1B,2013-09-22 10:51:00,
2013-09-22 03:52:00,66.1,32.7,29.23,WNW,290,3.5,4.0,28,-99.99,,,0.00,0,rob ver 1B,2013-09-22 10:52:00,
2013-09-22 03:53:00,73.5,43.9,29.15,WSW,253,7.7,9.5,34,-99.99,,,0.00,0,rob ver 1A,2013-09-22 10:53:00,
2013-09-22 03:54:00,66.0,32.5,29.26,WNW,300,3.5,3.8,28,-99.99,,,0.00,0,rob ver 1B,2013-09-22 10:54:00,
2013-09-22 03:55:00,65.9,32.5,29.26,NW,310,3.2,3.7,28,-99.99,,,0.00,0,rob ver 1B,2013-09-22 10:55:00,
2013-09-22 03:56:00,65.9,32.5,29.26,NW,311,3.1,3.7,28,-99.99,,,0.00,0,rob ver 1B,2013-09-22 10:56:00,
2013-09-22 03:57:00,65.9,32.5,29.26,NW,312,3.3,3.7,29,-99.99,,,0.00,0,rob ver 1B,2013-09-22 10:57:00,
2013-09-22 03:58:00,65.9,32.6,29.26,NW,313,3.4,3.6,28,-99.99,,,0.00,0,rob ver 1B,2013-09-22 10:58:00,
2013-09-22 03:59:00,65.9,32.0,29.26,NW,318,3.5,3.7,27,-99.99,,,0.00,0,rob ver 1B,2013-09-22 10:59:00,
2013-09-22 04:00:00,65.9,31.6,29.26,NW,319,3.6,3.9,27,-99.99,,,0.00,0,rob ver 1B,2013-09-22 11:00:00,
2013-09-22 04:01:00,66.1,31.5,29.26,NW,319,3.5,3.7,27,-99.99,,,0.00,0,rob ver 1B,2013-09-22 11:01:00,
2013-09-22 04:02:00,66.2,31.3,29.26,NW,319,3.5,3.8,26,-99.99,,,0.00,0,rob ver 1B,2013-09-22 11:02:00,
2013-09-22 04:03:00,66.3,31.3,29.26,NW,319,3.4,3.6,26,-99.99,,,0.00,0,rob ver 1B,2013-09-22 11:03:00,
2013-09-22 04:04:00,66.4,31.2,29.26,NW,320,3.3,3.7,26,-99.99,,,0.00,0,rob ver 1B,2013-09-22 11:04:00,
2013-09-22 04:05:00,66.5,31.3,29.26,NW,322,3.1,3.4,26,-99.99,,,0.00,0,rob ver 1B,2013-09-22 11:05:00,
2013-09-22 04:06:00,73.1,43.9,29.15,WSW,258,7.7,9.8,34,-99.99,,,0.00,0,rob ver 1A,2013-09-22 11:06:00,
2013-09-22 04:07:00,66.7,31.5,29.26,NNW,332,2.4,3.0,26,-99.99,,,0.00,0,rob ver 1B,2013-09-22 11:07:00,
2013-09-22 04:08:00,66.7,31.5,29.26,NW,326,2.3,2.6,26,-99.99,,,0.00,0,rob ver 1B,2013-09-22 11:08:00,
2013-09-22 04:09:00,66.7,31.3,29.26,NW,323,2.3,2.7,26,-99.99,,,0.00,0,rob ver 1B,2013-09-22 11:09:00,
2013-09-22 04:10:00,66.7,31.2,29.26,NW,321,2.1,2.6,26,-99.99,,,0.00,0,rob ver 1B,2013-09-22 11:10:00,
2013-09-22 04:11:00,66.7,31.6,29.26,WNW,297,1.6,2.1,27,-99.99,,,0.00,0,rob ver 1B,2013-09-22 11:11:00,
2013-09-22 04:12:00,73.0,43.8,29.15,WSW,253,9.5,11.6,34,-99.99,,,0.00,0,rob ver 1A,2013-09-22 11:12:00,
2013-09-22 04:13:00,66.5,32.1,29.26,SW,231,2.5,2.9,27,-99.99,,,0.00,0,rob ver 1B,2013-09-22 11:13:00,
2013-09-22 04:14:00,66.2,31.9,29.26,WSW,248,2.5,2.8,27,-99.99,,,0.00,0,rob ver 1B,2013-09-22 11:14:00,
2013-09-22 04:15:00,66.1,31.5,29.26,WSW,257,2.7,3.1,27,-99.99,,,0.00,0,rob ver 1B,2013-09-22 11:15:00,
2013-09-22 04:16:00,66.1,31.1,29.26,WSW,254,3.2,3.3,26,-99.99,,,0.00,0,rob ver 1B,2013-09-22 11:16:00,
2013-09-22 04:17:00,72.8,43.8,29.15,West,260,8.0,9.4,35,-99.99,,,0.00,0,rob ver 1A,2013-09-22 11:17:00,
2013-09-22 04:18:00,66.0,30.9,29.26,WSW,255,3.4,3.7,26,-99.99,,,0.00,0,rob ver 1B,2013-09-22 11:18:00,
2013-09-22 04:19:00,66.1,30.6,29.26,West,268,3.3,3.5,26,-99.99,,,0.00,0,rob ver 1B,2013-09-22 11:19:00,
2013-09-22 04:20:00,66.2,30.6,29.26,West,278,3.1,3.5,26,-99.99,,,0.00,0,rob ver 1B,2013-09-22 11:20:00,
2013-09-22 04:21:00,66.3,30.5,29.26,WNW,282,3.1,3.4,26,-99.99,,,0.00,0,rob ver 1B,2013-09-22 11:21:00,
2013-09-22 04:22:00,72.5,43.7,29.15,West,260,8.1,9.8,35,-99.99,,,0.00,0,rob ver 1A,2013-09-22 11:22:00,
2013-09-22 04:23:00,66.4,31.1,29.26,WSW,255,3.9,4.4,26,-99.99,,,0.00,0,rob ver 1B,2013-09-22 11:23:00,
2013-09-22 04:24:00,66.3,30.8,29.26,West,268,4.0,4.3,26,-99.99,,,0.00,0,rob ver 1B,2013-09-22 11:24:00,
2013-09-22 04:25:00,66.4,30.6,29.26,WNW,285,3.8,4.2,25,-99.99,,,0.00,0,rob ver 1B,2013-09-22 11:25:00,
2013-09-22 04:26:00,66.5,30.6,29.26,West,280,4.1,4.8,26,-99.99,,,0.00,0,rob ver 1B,2013-09-22 11:26:00,
2013-09-22 04:27:00,72.4,43.2,29.15,WSW,253,8.9,11.7,34,-99.99,,,0.00,0,rob ver 1A,2013-09-22 11:27:00,
2013-09-22 04:28:00,66.3,31.0,29.26,West,272,4.7,5.0,26,-99.99,,,0.00,0,rob ver 1B,2013-09-22 11:28:00,
2013-09-22 04:29:00,66.1,31.2,29.26,West,273,4.7,5.0,26,-99.99,,,0.00,0,rob ver 1B,2013-09-22 11:29:00,
2013-09-22 04:30:00,65.9,31.3,29.26,West,270,5.2,5.6,27,-99.99,,,0.00,0,rob ver 1B,2013-09-22 11:30:00,
2013-09-22 04:31:00,65.8,31.4,29.26,West,273,5.0,5.3,27,-99.99,,,0.00,0,rob ver 1B,2013-09-22 11:31:00,
2013-09-22 04:32:00,72.5,42.5,29.15,WSW,247,12.4,15.2,34,-99.99,,,0.00,0,rob ver 1A,2013-09-22 11:32:00,
2013-09-22 04:33:00,65.6,31.7,29.26,West,271,5.2,5.6,28,-99.99,,,0.00,0,rob ver 1B,2013-09-22 11:33:00,
2013-09-22 04:34:00,65.4,31.6,29.26,West,278,5.0,5.4,28,-99.99,,,0.00,0,rob ver 1B,2013-09-22 11:34:00,
2013-09-22 04:35:00,65.4,31.5,29.26,WNW,282,4.9,5.3,28,-99.99,,,0.00,0,rob ver 1B,2013-09-22 11:35:00,
2013-09-22 04:36:00,65.4,31.6,29.26,WNW,288,5.1,5.4,28,-99.99,,,0.00,0,rob ver 1B,2013-09-22 11:36:00,
2013-09-22 04:37:00,72.4,43.2,29.15,SW,231,14.5,17.4,35,-99.99,,,0.00,0,rob ver 1A,2013-09-22 11:37:00,
2013-09-22 04:38:00,65.6,31.5,29.26,WNW,293,5.0,5.3,27,-99.99,,,0.00,0,rob ver 1B,2013-09-22 11:38:00,
2013-09-22 04:39:00,65.8,31.8,29.26,WNW,298,5.0,5.3,27,-99.99,,,0.00,0,rob ver 1B,2013-09-22 11:39:00,
2013-09-22 04:40:00,65.9,32.0,29.26,WNW,299,4.9,5.4,28,-99.99,,,0.00,0,rob ver 1B,2013-09-22 11:40:00,
2013-09-22 04:41:00,66.0,32.1,29.26,WNW,299,4.9,5.4,28,-99.99,,,0.00,0,rob ver 1B,2013-09-22 11:41:00,
2013-09-22 04:42:00,72.1,42.7,29.15,SW,230,15.7,20.3,34,-99.99,,,0.00,0,rob ver 1A,2013-09-22 11:42:00,
2013-09-22 04:43:00,66.0,32.0,29.26,WNW,300,5.3,5.7,27,-99.99,,,0.00,0,rob ver 1B,2013-09-22 11:43:00,
2013-09-22 04:44:00,66.1,32.0,29.26,WNW,300,5.5,5.9,27,-99.99,,,0.00,0,rob ver 1B,2013-09-22 11:44:00,
2013-09-22 04:45:00,66.1,31.9,29.26,WNW,302,5.8,6.3,27,-99.99,,,0.00,0,rob ver 1B,2013-09-22 11:45:00,
2013-09-22 04:46:00,66.1,31.9,29.26,NW,304,6.0,6.4,27,-99.99,,,0.00,0,rob ver 1B,2013-09-22 11:46:00,
2013-09-22 04:47:00,72.0,42.7,29.15,SW,227,13.4,17.2,34,-99.99,,,0.00,0,rob ver 1A,2013-09-22 11:47:00,
2013-09-22 04:48:00,66.2,31.7,29.26,NW,305,5.9,6.6,27,-99.99,,,0.00,0,rob ver 1B,2013-09-22 11:48:00,
2013-09-22 04:49:00,66.3,31.5,29.26,NW,306,5.8,6.5,26,-99.99,,,0.00,0,rob ver 1B,2013-09-22 11:49:00,
2013-09-22 04:50:00,66.5,31.4,29.26,NW,304,5.8,6.6,26,-99.99,,,0.00,0,rob ver 1B,2013-09-22 11:50:00,
2013-09-22 04:51:00,66.7,31.2,29.26,WNW,301,5.8,6.6,26,-99.99,,,0.00,0,rob ver 1B,2013-09-22 11:51:00,
2013-09-22 04:52:00,71.7,42.2,29.15,SW,231,12.5,16.6,34,-99.99,,,0.00,0,rob ver 1A,2013-09-22 11:52:00,
2013-09-22 04:53:00,67.3,31.0,29.26,WNW,298,6.4,7.3,25,-99.99,,,0.00,0,rob ver 1B,2013-09-22 11:53:00,
2013-09-22 04:54:00,67.5,31.0,29.26,WNW,298,6.5,7.2,25,-99.99,,,0.00,0,rob ver 1B,2013-09-22 11:54:00,
2013-09-22 04:55:00,67.6,30.9,29.26,WNW,299,6.5,7.8,25,-99.99,,,0.00,0,rob ver 1B,2013-09-22 11:55:00,
2013-09-22 04:56:00,67.8,30.8,29.26,WNW,298,6.8,7.7,24,-99.99,,,0.00,0,rob ver 1B,2013-09-22 11:56:00,
2013-09-22 04:57:00,68.1,30.7,29.26,WNW,297,6.9,8.2,24,-99.99,,,0.00,0,rob ver 1B,2013-09-22 11:57:00,
2013-09-22 04:58:00,71.7,41.5,29.15,SW,231,13.1,15.8,33,-99.99,,,0.00,0,rob ver 1A,2013-09-22 11:58:00,
2013-09-22 04:59:00,68.4,30.7,29.26,WNW,282,6.0,7.4,24,-99.99,,,0.00,0,rob ver 1B,2013-09-22 11:59:00,
2013-09-22 05:00:00,68.3,30.9,29.26,West,280,5.3,6.4,24,-99.99,,,0.00,0,rob ver 1B,2013-09-22 12:00:00,
2013-09-22 05:01:00,68.1,30.7,29.26,WNW,288,6.1,7.1,24,-99.99,,,0.00,0,rob ver 1B,2013-09-22 12:01:00,
2013-09-22 05:02:00,68.1,30.9,29.26,West,281,5.6,6.6,25,-99.99,,,0.00,0,rob ver 1B,2013-09-22 12:02:00,
2013-09-22 05:03:00,71.5,41.8,29.15,SW,230,11.5,14.1,34,-99.99,,,0.00,0,rob ver 1A,2013-09-22 12:03:00,
2013-09-22 05:04:00,67.5,31.6,29.26,West,278,4.6,5.1,26,-99.99,,,0.00,0,rob ver 1B,2013-09-22 12:04:00,
2013-09-22 05:05:00,67.0,31.6,29.26,WNW,286,4.8,5.3,26,-99.99,,,0.00,0,rob ver 1B,2013-09-22 12:05:00,
2013-09-22 05:06:00,66.8,31.7,29.26,WNW,288,4.8,5.7,26,-99.99,,,0.00,0,rob ver 1B,2013-09-22 12:06:00,
2013-09-22 05:07:00,66.7,31.7,29.26,WNW,289,4.5,4.9,27,-99.99,,,0.00,0,rob ver 1B,2013-09-22 12:07:00,
2013-09-22 05:08:00,71.3,41.8,29.18,SW,234,8.2,10.0,34,-99.99,,,0.00,0,rob ver 1A,2013-09-22 12:08:00,
2013-09-22 05:09:00,66.6,31.7,29.26,WNW,293,4.7,5.2,27,-99.99,,,0.00,0,rob ver 1B,2013-09-22 12:09:00,
2013-09-22 05:10:00,66.6,31.7,29.26,WNW,297,4.6,5.5,27,-99.99,,,0.00,0,rob ver 1B,2013-09-22 12:10:00,
2013-09-22 05:11:00,66.6,31.5,29.26,WNW,300,4.8,5.6,26,-99.99,,,0.00,0,rob ver 1B,2013-09-22 12:11:00,
2013-09-22 05:12:00,66.7,31.5,29.26,WNW,300,4.7,5.7,26,-99.99,,,0.00,0,rob ver 1B,2013-09-22 12:12:00,
2013-09-22 05:13:00,71.4,41.9,29.18,WSW,250,7.9,9.8,34,-99.99,,,0.00,0,rob ver 1A,2013-09-22 12:13:00,
2013-09-22 05:14:00,67.0,31.2,29.26,WNW,303,4.9,5.6,26,-99.99,,,0.00,0,rob ver 1B,2013-09-22 12:14:00,
2013-09-22 05:15:00,67.1,31.1,29.26,WNW,300,4.6,4.9,25,-99.99,,,0.00,0,rob ver 1B,2013-09-22 12:15:00,
2013-09-22 05:16:00,67.2,31.1,29.26,WNW,298,4.5,5.1,25,-99.99,,,0.00,0,rob ver 1B,2013-09-22 12:16:00,
2013-09-22 05:17:00,67.4,31.1,29.26,WNW,297,4.6,5.4,25,-99.99,,,0.00,0,rob ver 1B,2013-09-22 12:17:00,
2013-09-22 05:18:00,71.5,41.9,29.18,SW,231,6.7,8.7,33,-99.99,,,0.00,0,rob ver 1A,2013-09-22 12:18:00,
2013-09-22 05:19:00,67.6,30.9,29.26,WNW,295,5.0,6.2,25,-99.99,,,0.00,0,rob ver 1B,2013-09-22 12:19:00,
2013-09-22 05:20:00,67.8,30.8,29.26,WNW,293,5.0,6.6,24,-99.99,,,0.00,0,rob ver 1B,2013-09-22 12:20:00,
2013-09-22 05:21:00,67.9,30.8,29.26,WNW,293,4.7,5.5,25,-99.99,,,0.00,0,rob ver 1B,2013-09-22 12:21:00,
2013-09-22 05:22:00,68.0,30.7,29.26,WNW,287,4.5,5.3,24,-99.99,,,0.00,0,rob ver 1B,2013-09-22 12:22:00,
2013-09-22 05:23:00,71.8,41.2,29.18,SW,228,7.0,8.1,32,-99.99,,,0.00,0,rob ver 1A,2013-09-22 12:23:00,
2013-09-22 05:24:00,68.0,30.9,29.26,West,271,3.2,4.0,25,-99.99,,,0.00,0,rob ver 1B,2013-09-22 12:24:00,
2013-09-22 05:25:00,67.9,31.2,29.26,WSW,250,2.8,3.3,26,-99.99,,,0.00,0,rob ver 1B,2013-09-22 12:25:00,
2013-09-22 05:26:00,67.6,33.2,29.26,SW,219,2.9,3.2,28,-99.99,,,0.00,0,rob ver 1B,2013-09-22 12:26:00,
2013-09-22 05:27:00,66.9,33.1,29.26,WSW,237,2.9,3.2,28,-99.99,,,0.00,0,rob ver 1B,2013-09-22 12:27:00,
2013-09-22 05:28:00,71.8,41.2,29.18,SSW,208,5.7,6.4,33,-99.99,,,0.00,0,rob ver 1A,2013-09-22 12:28:00,
2013-09-22 05:29:00,65.9,33.4,29.26,WSW,254,2.6,2.9,29,-99.99,,,0.00,0,rob ver 1B,2013-09-22 12:29:00,
2013-09-22 05:30:00,65.6,33.3,29.26,WSW,254,2.7,3.1,30,-99.99,,,0.00,0,rob ver 1B,2013-09-22 12:30:00,
2013-09-22 05:31:00,65.4,33.5,29.26,WSW,248,2.6,2.9,30,-99.99,,,0.00,0,rob ver 1B,2013-09-22 12:31:00,
2013-09-22 05:32:00,65.2,33.8,29.26,WSW,245,2.7,3.1,31,-99.99,,,0.00,0,rob ver 1B,2013-09-22 12:32:00,
2013-09-22 05:33:00,71.2,41.2,29.18,SSW,198,5.7,6.4,33,-99.99,,,0.00,0,rob ver 1A,2013-09-22 12:33:00,
2013-09-22 05:34:00,64.8,33.7,29.26,WSW,244,3.2,3.5,31,-99.99,,,0.00,0,rob ver 1B,2013-09-22 12:34:00,
2013-09-22 05:35:00,64.7,33.7,29.26,WSW,246,3.3,3.9,31,-99.99,,,0.00,0,rob ver 1B,2013-09-22 12:35:00,
2013-09-22 05:36:00,64.6,33.5,29.26,WSW,255,3.6,3.9,31,-99.99,,,0.00,0,rob ver 1B,2013-09-22 12:36:00,
2013-09-22 05:37:00,64.6,33.2,29.26,WSW,252,3.8,4.5,30,-99.99,,,0.00,0,rob ver 1B,2013-09-22 12:37:00,
2013-09-22 05:38:00,71.1,41.2,29.18,SSW,202,4.4,5.4,33,-99.99,,,0.00,0,rob ver 1A,2013-09-22 12:38:00,
2013-09-22 05:39:00,64.7,32.8,29.26,West,259,4.6,5.1,29,-99.99,,,0.00,0,rob ver 1B,2013-09-22 12:39:00,
2013-09-22 05:40:00,64.9,32.5,29.26,West,261,4.7,5.0,29,-99.99,,,0.00,0,rob ver 1B,2013-09-22 12:40:00,
2013-09-22 05:41:00,65.1,32.2,29.26,West,266,4.6,5.2,28,-99.99,,,0.00,0,rob ver 1B,2013-09-22 12:41:00,
2013-09-22 05:42:00,65.3,31.8,29.26,West,270,5.1,6.0,28,-99.99,,,0.00,0,rob ver 1B,2013-09-22 12:42:00,
2013-09-22 05:43:00,65.5,31.7,29.26,West,277,4.9,6.0,27,-99.99,,,0.00,0,rob ver 1B,2013-09-22 12:43:00,
2013-09-22 05:44:00,71.2,41.1,29.18,SSW,197,4.8,5.5,33,-99.99,,,0.00,0,rob ver 1A,2013-09-22 12:44:00,
2013-09-22 05:45:00,66.1,31.3,29.26,WNW,285,4.8,5.5,26,-99.99,,,0.00,0,rob ver 1B,2013-09-22 12:45:00,
2013-09-22 05:46:00,66.4,31.3,29.26,WNW,282,4.9,5.3,26,-99.99,,,0.00,0,rob ver 1B,2013-09-22 12:46:00,
2013-09-22 05:47:00,66.5,31.4,29.26,West,279,4.6,5.1,26,-99.99,,,0.00,0,rob ver 1B,2013-09-22 12:47:00,
2013-09-22 05:48:00,66.6,31.4,29.26,West,279,4.3,4.7,26,-99.99,,,0.00,0,rob ver 1B,2013-09-22 12:48:00,
2013-09-22 05:49:00,71.1,41.1,29.18,South,190,5.4,6.4,33,-99.99,,,0.00,0,rob ver 1A,2013-09-22 12:49:00,
2013-09-22 05:50:00,66.6,31.3,29.26,WNW,289,4.4,5.0,26,-99.99,,,0.00,0,rob ver 1B,2013-09-22 12:50:00,
2013-09-22 05:51:00,66.7,31.1,29.26,WNW,295,4.4,4.8,26,-99.99,,,0.00,0,rob ver 1B,2013-09-22 12:51:00,
2013-09-22 05:52:00,66.8,31.1,29.26,WNW,297,4.2,5.7,26,-99.99,,,0.00,0,rob ver 1B,2013-09-22 12:52:00,
2013-09-22 05:53:00,67.0,31.1,29.26,WNW,293,4.2,5.6,26,-99.99,,,0.00,0,rob ver 1B,2013-09-22 12:53:00,
2013-09-22 05:54:00,70.6,41.3,29.18,SSW,202,6.9,7.8,34,-99.99,,,0.00,0,rob ver 1A,2013-09-22 12:54:00,
2013-09-22 05:55:00,67.2,31.4,29.26,West,273,4.5,5.2,26,-99.99,,,0.00,0,rob ver 1B,2013-09-22 12:55:00,
2013-09-22 05:56:00,67.0,31.3,29.26,West,279,5.0,6.0,26,-99.99,,,0.00,0,rob ver 1B,2013-09-22 12:56:00,
2013-09-22 05:57:00,67.1,31.1,29.26,West,279,5.5,6.9,25,-99.99,,,0.00,0,rob ver 1B,2013-09-22 12:57:00,
2013-09-22 05:58:00,67.2,30.9,29.26,West,277,5.7,6.5,25,-99.99,,,0.00,0,rob ver 1B,2013-09-22 12:58:00,
2013-09-22 05:59:00,70.1,41.0,29.18,SW,219,7.9,10.1,34,-99.99,,,0.00,0,rob ver 1A,2013-09-22 12:59:00,
2013-09-22 06:00:00,66.9,32.3,29.26,West,263,5.5,6.1,27,-99.99,,,0.00,0,rob ver 1B,2013-09-22 13:00:00,
2013-09-22 06:01:00,66.4,32.3,29.26,West,269,5.8,7.5,27,-99.99,,,0.00,0,rob ver 1B,2013-09-22 13:01:00,
2013-09-22 06:02:00,66.2,31.5,29.26,West,271,6.9,7.9,27,-99.99,,,0.00,0,rob ver 1B,2013-09-22 13:02:00,
2013-09-22 06:03:00,66.3,31.7,29.26,West,264,6.3,8.2,28,-99.99,,,0.00,0,rob ver 1B,2013-09-22 13:03:00,
2013-09-22 06:04:00,70.3,40.9,29.18,SW,226,7.3,9.1,34,-99.99,,,0.00,0,rob ver 1A,2013-09-22 13:04:00,
2013-09-22 06:05:00,65.5,32.7,29.26,West,266,5.7,6.6,29,-99.99,,,0.00,0,rob ver 1B,2013-09-22 13:05:00,
2013-09-22 06:06:00,65.2,32.8,29.29,West,265,5.4,6.3,29,-99.99,,,0.00,.165,rob ver 1B,2013-09-22 13:06:00,
2013-09-22 06:07:00,64.9,32.9,29.26,West,269,5.1,6.4,30,-99.99,,,0.00,.165,rob ver 1B,2013-09-22 13:07:00,
2013-09-22 06:08:00,64.7,33.0,29.26,West,274,4.6,6.5,30,-99.99,,,0.00,.33,rob ver 1B,2013-09-22 13:08:00,
2013-09-22 06:09:00,69.9,41.3,29.18,SW,216,7.9,9.1,35,-99.99,,,0.00,.165,rob ver 1A,2013-09-22 13:09:00,
2013-09-22 06:10:00,64.4,33.0,29.29,West,270,4.1,4.8,30,-99.99,,,0.00,.33,rob ver 1B,2013-09-22 13:10:00,
2013-09-22 06:11:00,64.3,32.7,29.29,West,281,4.2,4.7,30,-99.99,,,0.00,.33,rob ver 1B,2013-09-22 13:11:00,
2013-09-22 06:12:00,64.4,32.1,29.29,WNW,282,4.5,6.6,29,-99.99,,,0.00,.33,rob ver 1B,2013-09-22 13:12:00,
2013-09-22 06:13:00,64.9,31.5,29.29,WNW,282,4.9,5.8,28,-99.99,,,0.00,.33,rob ver 1B,2013-09-22 13:13:00,
2013-09-22 06:14:00,69.6,41.7,29.18,SW,219,8.2,9.5,36,-99.99,,,0.00,.66,rob ver 1A,2013-09-22 13:14:00,
2013-09-22 06:15:00,65.8,31.6,29.29,WNW,283,3.5,4.4,27,-99.99,,,0.00,.99,rob ver 1B,2013-09-22 13:15:00,
2013-09-22 06:16:00,66.0,31.6,29.29,WNW,285,2.9,3.5,27,-99.99,,,0.00,.99,rob ver 1B,2013-09-22 13:16:00,
2013-09-22 06:17:00,66.1,31.4,29.29,West,281,3.2,4.7,27,-99.99,,,0.00,1.155,rob ver 1B,2013-09-22 13:17:00,
2013-09-22 06:18:00,66.3,31.5,29.29,WNW,293,3.4,4.8,26,-99.99,,,0.00,1.65,rob ver 1B,2013-09-22 13:18:00,
2013-09-22 06:19:00,69.5,42.1,29.18,SW,215,9.2,11.0,37,-99.99,,,0.00,1.979,rob ver 1A,2013-09-22 13:19:00,
2013-09-22 06:20:00,67.1,30.3,29.29,WNW,300,5.9,7.2,24,-99.99,,,0.00,1.98,rob ver 1B,2013-09-22 13:20:00,
2013-09-22 06:21:00,67.9,30.2,29.29,NW,304,6.4,8.1,23,-99.99,,,0.00,1.979,rob ver 1B,2013-09-22 13:21:00,
2013-09-22 06:22:00,68.6,30.1,29.29,NW,305,6.3,8.0,23,-99.99,,,0.00,2.309,rob ver 1B,2013-09-22 13:22:00,
2013-09-22 06:23:00,69.0,29.9,29.29,NW,307,6.8,8.4,23,-99.99,,,0.00,2.639,rob ver 1B,2013-09-22 13:23:00,
2013-09-22 06:24:00,69.1,42.4,29.18,SW,215,9.5,10.8,38,-99.99,,,0.00,3.628,rob ver 1A,2013-09-22 13:24:00,
2013-09-22 06:25:00,69.5,30.1,29.29,NW,305,6.0,7.5,23,-99.99,,,0.00,3.464,rob ver 1B,2013-09-22 13:25:00,
2013-09-22 06:26:00,69.6,30.1,29.29,NW,305,6.5,7.8,22,-99.99,,,0.00,3.959,rob ver 1B,2013-09-22 13:26:00,
2013-09-22 06:27:00,69.7,30.1,29.29,NW,305,6.9,8.2,22,-99.99,,,0.00,4.619,rob ver 1B,2013-09-22 13:27:00,
2013-09-22 06:28:00,69.7,30.1,29.29,NW,304,6.9,8.4,22,-99.99,,,0.00,5.114,rob ver 1B,2013-09-22 13:28:00,
2013-09-22 06:29:00,69.1,42.7,29.18,SSW,211,10.3,12.1,38,-99.99,,,0.00,6.596,rob ver 1A,2013-09-22 13:29:00,
2013-09-22 06:30:00,69.7,30.1,29.29,WNW,303,6.6,8.1,22,-99.99,,,0.00,6.598,rob ver 1B,2013-09-22 13:30:00,
2013-09-22 06:31:00,69.6,30.1,29.29,WNW,303,7.3,8.8,22,-99.99,,,0.00,7.26,rob ver 1B,2013-09-22 13:31:00,
2013-09-22 06:32:00,69.6,30.1,29.29,NW,304,7.4,8.4,22,-99.99,,,0.00,9.9,rob ver 1B,2013-09-22 13:32:00,
2013-09-22 06:33:00,69.7,30.1,29.29,NW,304,7.7,9.1,22,-99.99,,,0.00,12.54,rob ver 1B,2013-09-22 13:33:00,
2013-09-22 06:34:00,69.1,42.8,29.18,SSW,213,10.3,11.9,38,-99.99,,,0.00,12.2,rob ver 1A,2013-09-22 13:34:00,
2013-09-22 06:35:00,69.7,30.0,29.29,NW,305,7.7,9.0,22,-99.99,,,0.00,17.32,rob ver 1B,2013-09-22 13:35:00,
2013-09-22 06:36:00,69.8,30.1,29.29,NW,305,7.6,8.9,22,-99.99,,,0.00,19.63,rob ver 1B,2013-09-22 13:36:00,
2013-09-22 06:37:00,70.0,30.0,29.29,NW,306,7.7,9.0,22,-99.99,,,0.00,21.77,rob ver 1B,2013-09-22 13:37:00,
2013-09-22 06:38:00,70.1,30.0,29.29,NW,306,7.8,9.6,22,-99.99,,,0.00,24.41,rob ver 1B,2013-09-22 13:38:00,
2013-09-22 06:39:00,70.2,30.0,29.29,NW,307,7.7,8.9,22,-99.99,,,0.00,27.05,rob ver 1B,2013-09-22 13:39:00,
2013-09-22 06:40:00,69.4,43.1,29.18,SW,214,9.5,11.7,38,-99.99,,,0.00,24.41,rob ver 1A,2013-09-22 13:40:00,
2013-09-22 06:41:00,70.4,29.9,29.29,NW,306,8.4,10.4,22,-99.99,,,0.00,32.33,rob ver 1B,2013-09-22 13:41:00,
2013-09-22 06:42:00,70.6,29.8,29.29,NW,305,8.5,10.2,21,-99.99,,,0.00,34.64,rob ver 1B,2013-09-22 13:42:00,
2013-09-22 06:43:00,70.7,29.8,29.29,NW,306,8.3,10.0,21,-99.99,,,0.00,36.95,rob ver 1B,2013-09-22 13:43:00,
2013-09-22 06:44:00,70.8,29.8,29.29,NW,305,8.2,10.1,21,-99.99,,,0.00,39.75,rob ver 1B,2013-09-22 13:44:00,
2013-09-22 06:45:00,69.5,43.3,29.18,SSW,213,9.3,11.6,38,-99.99,,,0.00,36.61,rob ver 1A,2013-09-22 13:45:00,
2013-09-22 06:46:00,70.9,29.8,29.29,NW,304,8.7,10.3,21,-99.99,,,0.00,45.2,rob ver 1B,2013-09-22 13:46:00,
2013-09-22 06:47:00,71.0,29.8,29.29,WNW,303,8.4,10.8,21,-99.99,,,0.00,48.17,rob ver 1B,2013-09-22 13:47:00,
2013-09-22 06:48:00,71.0,29.8,29.29,WNW,303,8.7,10.7,21,-99.99,,,0.00,50.8,rob ver 1B,2013-09-22 13:48:00,
2013-09-22 06:49:00,71.0,29.8,29.29,WNW,303,9.1,10.5,21,-99.99,,,0.00,53.44,rob ver 1B,2013-09-22 13:49:00,
2013-09-22 06:50:00,69.4,44.0,29.18,SW,214,8.0,9.1,39,-99.99,,,0.00,50.13,rob ver 1A,2013-09-22 13:50:00,
2013-09-22 06:51:00,71.1,29.8,29.29,WNW,303,8.9,10.2,21,-99.99,,,0.00,59.22,rob ver 1B,2013-09-22 13:51:00,
2013-09-22 06:52:00,71.2,29.7,29.29,NW,305,9.5,11.5,21,-99.99,,,0.00,61.85,rob ver 1B,2013-09-22 13:52:00,
2013-09-22 06:53:00,71.2,29.8,29.29,NW,305,8.9,10.6,21,-99.99,,,0.00,64.99,rob ver 1B,2013-09-22 13:53:00,
2013-09-22 06:54:00,71.3,29.8,29.29,WNW,303,8.3,9.8,21,-99.99,,,0.00,67.79,rob ver 1B,2013-09-22 13:54:00,
2013-09-22 06:55:00,69.6,44.5,29.21,SW,214,7.9,9.6,40,-99.99,,,0.00,62.01,rob ver 1A,2013-09-22 13:55:00,
2013-09-22 06:56:00,71.4,29.7,29.29,NW,304,8.1,9.9,21,-99.99,,,0.00,73.4,rob ver 1B,2013-09-22 13:56:00,
2013-09-22 06:57:00,71.5,29.7,29.29,WNW,301,6.9,9.6,21,-99.99,,,0.00,76.4,rob ver 1B,2013-09-22 13:57:00,
2013-09-22 06:58:00,71.5,29.8,29.29,NW,305,5.9,7.7,21,-99.99,,,0.00,79.2,rob ver 1B,2013-09-22 13:58:00,
2013-09-22 06:59:00,71.6,29.8,29.29,WNW,302,5.0,6.6,21,-99.99,,,0.00,81.8,rob ver 1B,2013-09-22 13:59:00,
2013-09-22 07:00:00,69.7,44.9,29.21,SSW,212,7.9,9.3,40,-99.99,,,0.00,75.5,rob ver 1A,2013-09-22 14:00:00,
2013-09-22 07:01:00,71.8,29.8,29.29,WNW,302,4.0,5.2,21,-99.99,,,0.00,87.9,rob ver 1B,2013-09-22 14:01:00,
2013-09-22 07:02:00,71.9,29.7,29.29,WNW,301,5.7,7.8,21,-99.99,,,0.00,90.5,rob ver 1B,2013-09-22 14:02:00,
2013-09-22 07:03:00,71.9,29.8,29.29,WNW,294,4.4,5.5,21,-99.99,,,0.00,93.7,rob ver 1B,2013-09-22 14:03:00,
2013-09-22 07:04:00,72.0,29.8,29.29,WNW,291,4.3,5.5,20,-99.99,,,0.00,97,rob ver 1B,2013-09-22 14:04:00,
2013-09-22 07:05:00,70.0,44.8,29.21,SW,228,5.6,6.8,40,-99.99,,,0.00,92,rob ver 1A,2013-09-22 14:05:00,
2013-09-22 07:06:00,72.2,29.9,29.29,WNW,285,3.2,5.3,20,-99.99,,,0.00,102.9,rob ver 1B,2013-09-22 14:06:00,
2013-09-22 07:07:00,72.3,29.9,29.29,West,281,3.6,5.3,20,-99.99,,,0.00,105.9,rob ver 1B,2013-09-22 14:07:00,
2013-09-22 07:08:00,72.3,30.0,29.29,West,274,3.5,6.1,20,-99.99,,,0.00,108.5,rob ver 1B,2013-09-22 14:08:00,
2013-09-22 07:09:00,72.3,29.9,29.29,West,272,4.4,5.8,20,-99.99,,,0.00,111.7,rob ver 1B,2013-09-22 14:09:00,
2013-09-22 07:10:00,70.3,44.8,29.21,SW,228,4.7,5.6,39,-99.99,,,0.00,108.3,rob ver 1A,2013-09-22 14:10:00,
2013-09-22 07:11:00,72.2,31.0,29.29,WSW,239,2.6,3.7,21,-99.99,,,0.00,117.8,rob ver 1B,2013-09-22 14:11:00,
2013-09-22 07:12:00,72.1,30.9,29.29,SSW,199,2.1,3.3,21,-99.99,,,0.00,121.1,rob ver 1B,2013-09-22 14:12:00,
2013-09-22 07:13:00,72.1,31.0,29.29,SW,231,1.6,2.7,21,-99.99,,,0.00,124.4,rob ver 1B,2013-09-22 14:13:00,
2013-09-22 07:14:00,72.2,30.9,29.29,SE,130,0.5,2.1,21,-99.99,,,0.00,127.3,rob ver 1B,2013-09-22 14:14:00,
2013-09-22 07:15:00,70.7,44.9,29.21,WSW,248,3.0,3.6,39,-99.99,,,0.00,125.5,rob ver 1A,2013-09-22 14:15:00,
2013-09-22 07:16:00,72.6,30.8,29.29,East,81,1.6,3.5,21,-99.99,,,0.00,133.6,rob ver 1B,2013-09-22 14:16:00,
2013-09-22 07:17:00,72.4,30.9,29.29,ESE,112,2.1,3.2,21,-99.99,,,0.00,136.6,rob ver 1B,2013-09-22 14:17:00,
2013-09-22 07:18:00,72.3,31.0,29.29,East,82,2.6,3.5,21,-99.99,,,0.00,140.2,rob ver 1B,2013-09-22 14:18:00,
2013-09-22 07:19:00,72.1,31.2,29.29,ESE,111,2.2,2.6,21,-99.99,,,0.00,143.5,rob ver 1B,2013-09-22 14:19:00,
2013-09-22 07:20:00,71.6,44.8,29.21,NW,314,0.9,1.6,37,-99.99,,,0.00,139.5,rob ver 1A,2013-09-22 14:20:00,
2013-09-22 07:21:00,72.1,31.2,29.29,East,93,2.0,2.7,22,-99.99,,,0.00,149.9,rob ver 1B,2013-09-22 14:21:00,
2013-09-22 07:22:00,72.1,31.0,29.32,East,96,1.7,2.5,21,-99.99,,,0.00,152.7,rob ver 1B,2013-09-22 14:22:00,
2013-09-22 07:23:00,72.3,31.1,29.29,SE,136,1.7,2.8,21,-99.99,,,0.00,156,rob ver 1B,2013-09-22 14:23:00,
2013-09-22 07:24:00,72.5,31.1,29.29,East,80,1.3,1.9,21,-99.99,,,0.00,159,rob ver 1B,2013-09-22 14:24:00,
2013-09-22 07:25:00,71.9,44.3,29.21,WNW,301,3.1,4.0,37,-99.99,,,0.00,160,rob ver 1A,2013-09-22 14:25:00,
2013-09-22 07:26:00,73.0,30.9,29.32,NW,321,1.2,1.9,20,-99.99,,,0.00,165.9,rob ver 1B,2013-09-22 14:26:00,
2013-09-22 07:27:00,73.4,31.0,29.29,WNW,290,1.2,1.8,21,-99.99,,,0.00,168.9,rob ver 1B,2013-09-22 14:27:00,
2013-09-22 07:28:00,73.7,31.1,29.29,WNW,303,1.2,2.5,20,-99.99,,,0.00,172.5,rob ver 1B,2013-09-22 14:28:00,
2013-09-22 07:29:00,73.9,31.0,29.32,WSW,257,2.1,2.7,20,-99.99,,,0.00,175.8,rob ver 1B,2013-09-22 14:29:00,
2013-09-22 07:30:00,71.9,43.1,29.21,WSW,249,3.2,3.9,35,-99.99,,,0.00,177.6,rob ver 1A,2013-09-22 14:30:00,
2013-09-22 07:31:00,73.9,31.3,29.32,SW,215,1.9,2.8,20,-99.99,,,0.00,182.4,rob ver 1B,2013-09-22 14:31:00,
2013-09-22 07:32:00,74.0,31.4,29.32,SSW,208,1.4,1.9,20,-99.99,,,0.00,186,rob ver 1B,2013-09-22 14:32:00,
2013-09-22 07:33:00,74.2,31.4,29.32,SSW,205,1.3,2.7,20,-99.99,,,0.00,189.5,rob ver 1B,2013-09-22 14:33:00,
2013-09-22 07:34:00,74.4,31.4,29.32,WSW,244,1.4,2.0,20,-99.99,,,0.00,192.6,rob ver 1B,2013-09-22 14:34:00,
2013-09-22 07:35:00,72.7,43.0,29.21,West,269,1.9,2.6,34,-99.99,,,0.00,193.6,rob ver 1A,2013-09-22 14:35:00,
2013-09-22 07:36:00,74.6,31.1,29.32,WSW,250,1.1,1.9,20,-99.99,,,0.00,198.4,rob ver 1B,2013-09-22 14:36:00,
2013-09-22 07:37:00,74.6,31.4,29.32,West,274,1.3,1.9,20,-99.99,,,0.00,201.9,rob ver 1B,2013-09-22 14:37:00,
2013-09-22 07:38:00,74.7,31.4,29.32,West,279,1.6,2.8,20,-99.99,,,0.00,205.5,rob ver 1B,2013-09-22 14:38:00,
2013-09-22 07:39:00,74.8,31.0,29.32,WNW,289,2.9,4.3,20,-99.99,,,0.00,208.1,rob ver 1B,2013-09-22 14:39:00,
2013-09-22 07:40:00,72.7,43.1,29.21,WSW,246,4.4,5.7,34,-99.99,,,0.00,210.4,rob ver 1A,2013-09-22 14:40:00,
2013-09-22 07:41:00,74.8,31.1,29.32,NW,305,3.7,4.7,19,-99.99,,,0.00,215.4,rob ver 1B,2013-09-22 14:41:00,
2013-09-22 07:42:00,74.9,30.3,29.32,NW,304,3.3,4.4,19,-99.99,,,0.00,220,rob ver 1B,2013-09-22 14:42:00,
2013-09-22 07:43:00,75.1,30.7,29.32,NW,316,3.2,5.5,19,-99.99,,,0.00,223.3,rob ver 1B,2013-09-22 14:43:00,
2013-09-22 07:44:00,75.1,30.5,29.32,NW,310,4.1,5.3,19,-99.99,,,0.00,226.8,rob ver 1B,2013-09-22 14:44:00,
2013-09-22 07:45:00,75.2,31.4,29.32,NW,317,2.9,3.6,19,-99.99,,,0.00,229.9,rob ver 1B,2013-09-22 14:45:00,
2013-09-22 07:46:00,72.9,43.2,29.21,WSW,256,3.3,4.1,34,-99.99,,,0.00,231.9,rob ver 1A,2013-09-22 14:46:00,
2013-09-22 07:47:00,75.4,30.8,29.32,WNW,303,4.3,5.0,19,-99.99,,,0.00,236.6,rob ver 1B,2013-09-22 14:47:00,
2013-09-22 07:48:00,75.4,30.8,29.32,NW,309,4.1,5.4,19,-99.99,,,0.00,240.4,rob ver 1B,2013-09-22 14:48:00,
2013-09-22 07:49:00,75.4,30.7,29.32,WNW,303,4.0,5.6,18,-99.99,,,0.00,244.2,rob ver 1B,2013-09-22 14:49:00,
2013-09-22 07:50:00,75.4,29.9,29.32,WNW,301,5.9,8.4,19,-99.99,,,0.00,247.7,rob ver 1B,2013-09-22 14:50:00,
2013-09-22 07:51:00,73.3,43.6,29.21,SW,234,5.0,6.6,34,-99.99,,,0.00,248.3,rob ver 1A,2013-09-22 14:51:00,
2013-09-22 07:52:00,75.4,30.1,29.32,WNW,302,5.4,6.5,18,-99.99,,,0.00,251,rob ver 1B,2013-09-22 14:52:00,
2013-09-22 07:53:00,75.4,30.4,29.32,WNW,300,4.6,5.4,18,-99.99,,,0.00,258.7,rob ver 1B,2013-09-22 14:53:00,
2013-09-22 07:54:00,75.4,30.4,29.32,WNW,297,4.7,5.6,19,-99.99,,,0.00,261.5,rob ver 1B,2013-09-22 14:54:00,
2013-09-22 07:55:00,75.5,30.4,29.32,NW,306,5.3,8.1,19,-99.99,,,0.00,265.5,rob ver 1B,2013-09-22 14:55:00,
2013-09-22 07:56:00,73.1,43.9,29.21,WSW,257,6.4,8.4,35,-99.99,,,0.00,266.8,rob ver 1A,2013-09-22 14:56:00,
2013-09-22 07:57:00,75.5,30.5,29.32,WNW,299,5.6,7.8,18,-99.99,,,0.00,273.2,rob ver 1B,2013-09-22 14:57:00,
2013-09-22 07:58:00,75.6,30.4,29.32,WNW,285,6.4,8.8,18,-99.99,,,0.00,276.4,rob ver 1B,2013-09-22 14:58:00,
2013-09-22 07:59:00,75.6,30.4,29.32,WNW,290,7.4,9.2,18,-99.99,,,0.00,280,rob ver 1B,2013-09-22 14:59:00,
2013-09-22 08:00:00,75.7,30.2,29.32,WNW,294,8.0,9.6,18,-99.99,,,0.00,283.3,rob ver 1B,2013-09-22 15:00:00,
2013-09-22 08:01:00,73.5,44.0,29.21,WSW,251,11.4,12.6,35,-99.99,,,0.00,284.3,rob ver 1A,2013-09-22 15:01:00,
2013-09-22 08:02:00,75.8,29.7,29.32,WNW,291,10.0,11.7,18,-99.99,,,0.00,290.6,rob ver 1B,2013-09-22 15:02:00,
2013-09-22 08:03:00,75.9,29.9,29.32,WNW,291,9.3,11.5,18,-99.99,,,0.00,294.3,rob ver 1B,2013-09-22 15:03:00,
2013-09-22 08:04:00,76.0,30.1,29.32,WNW,290,9.6,12.6,18,-99.99,,,0.00,297.8,rob ver 1B,2013-09-22 15:04:00,
2013-09-22 08:05:00,76.1,29.9,29.32,WNW,290,11.0,13.6,18,-99.99,,,0.00,301.1,rob ver 1B,2013-09-22 15:05:00,
2013-09-22 08:06:00,73.5,44.2,29.21,West,268,9.4,11.5,35,-99.99,,,0.00,302.1,rob ver 1A,2013-09-22 15:06:00,
2013-09-22 08:07:00,76.2,29.8,29.32,WNW,295,11.6,13.9,18,-99.99,,,0.00,308.7,rob ver 1B,2013-09-22 15:07:00,
2013-09-22 08:08:00,76.2,29.9,29.32,WNW,295,10.8,14.2,18,-99.99,,,0.00,312.6,rob ver 1B,2013-09-22 15:08:00,
2013-09-22 08:09:00,76.4,30.1,29.32,WNW,296,10.5,12.7,18,-99.99,,,0.00,316.3,rob ver 1B,2013-09-22 15:09:00,
2013-09-22 08:10:00,76.4,29.9,29.32,WNW,297,11.0,13.7,18,-99.99,,,0.00,319.7,rob ver 1B,2013-09-22 15:10:00,
2013-09-22 08:11:00,73.8,43.7,29.21,West,280,10.0,12.1,33,-99.99,,,0.00,320.7,rob ver 1A,2013-09-22 15:11:00,
2013-09-22 08:12:00,76.5,29.7,29.32,WNW,293,11.5,13.8,17,-99.99,,,0.00,326.8,rob ver 1B,2013-09-22 15:12:00,
2013-09-22 08:13:00,76.6,29.7,29.32,WNW,291,12.0,14.2,17,-99.99,,,0.00,330.6,rob ver 1B,2013-09-22 15:13:00,
2013-09-22 08:14:00,76.6,29.9,29.32,WNW,290,11.2,13.3,18,-99.99,,,0.00,333.7,rob ver 1B,2013-09-22 15:14:00,
2013-09-22 08:15:00,76.7,30.2,29.32,WNW,293,10.0,11.6,17,-99.99,,,0.00,337,rob ver 1B,2013-09-22 15:15:00,
2013-09-22 08:16:00,74.0,43.3,29.21,West,265,10.5,12.2,33,-99.99,,,0.00,336.7,rob ver 1A,2013-09-22 15:16:00,
2013-09-22 08:17:00,76.8,29.7,29.32,WNW,293,12.2,14.3,17,-99.99,,,0.00,344.1,rob ver 1B,2013-09-22 15:17:00,
2013-09-22 08:18:00,76.9,29.8,29.32,WNW,296,11.7,14.1,17,-99.99,,,0.00,347.7,rob ver 1B,2013-09-22 15:18:00,
2013-09-22 08:19:00,76.9,29.8,29.32,WNW,300,11.1,13.6,17,-99.99,,,0.00,351.5,rob ver 1B,2013-09-22 15:19:00,
2013-09-22 08:20:00,77.1,29.7,29.32,WNW,300,10.9,13.7,17,-99.99,,,0.00,354.5,rob ver 1B,2013-09-22 15:20:00,
2013-09-22 08:21:00,77.1,29.3,29.32,WNW,303,12.9,15.2,17,-99.99,,,0.00,358.5,rob ver 1B,2013-09-22 15:21:00,
2013-09-22 08:22:00,74.0,41.6,29.21,West,278,11.3,12.8,31,-99.99,,,0.00,354.5,rob ver 1A,2013-09-22 15:22:00,
2013-09-22 08:23:00,77.3,29.5,29.32,WNW,296,11.6,13.6,17,-99.99,,,0.00,364.9,rob ver 1B,2013-09-22 15:23:00,
2013-09-22 08:24:00,77.4,29.8,29.32,WNW,299,10.2,11.9,17,-99.99,,,0.00,368.2,rob ver 1B,2013-09-22 15:24:00,
2013-09-22 08:25:00,77.6,29.6,29.32,WNW,297,11.4,13.7,17,-99.99,,,0.00,372.5,rob ver 1B,2013-09-22 15:25:00,
2013-09-22 08:26:00,77.5,29.3,29.32,WNW,297,12.6,14.5,16,-99.99,,,0.00,376.4,rob ver 1B,2013-09-22 15:26:00,
2013-09-22 08:27:00,74.3,41.6,29.23,West,280,10.1,11.5,30,-99.99,,,0.00,374,rob ver 1A,2013-09-22 15:27:00,
2013-09-22 08:28:00,77.5,29.2,29.32,WNW,296,12.4,14.6,16,-99.99,,,0.00,382.7,rob ver 1B,2013-09-22 15:28:00,
2013-09-22 08:29:00,77.5,29.1,29.32,WNW,302,12.3,13.9,16,-99.99,,,0.00,386.3,rob ver 1B,2013-09-22 15:29:00,
2013-09-22 08:30:00,77.4,29.3,29.32,WNW,302,10.9,13.3,17,-99.99,,,0.00,389.6,rob ver 1B,2013-09-22 15:30:00,
2013-09-22 08:31:00,77.6,29.6,29.32,WNW,295,9.7,11.7,16,-99.99,,,0.00,390.8,rob ver 1B,2013-09-22 15:31:00,
2013-09-22 08:32:00,74.5,41.4,29.23,West,274,10.0,12.3,30,-99.99,,,0.00,391.5,rob ver 1A,2013-09-22 15:32:00,
2013-09-22 08:33:00,77.9,29.3,29.32,WNW,300,10.5,13.1,16,-99.99,,,0.00,399.3,rob ver 1B,2013-09-22 15:33:00,
2013-09-22 08:34:00,77.8,29.3,29.32,WNW,302,11.1,13.0,17,-99.99,,,0.00,402.5,rob ver 1B,2013-09-22 15:34:00,
2013-09-22 08:35:00,77.8,29.6,29.32,WNW,296,10.7,12.7,16,-99.99,,,0.00,406.1,rob ver 1B,2013-09-22 15:35:00,
2013-09-22 08:36:00,77.9,29.2,29.32,WNW,301,12.0,14.3,16,-99.99,,,0.00,409.6,rob ver 1B,2013-09-22 15:36:00,
2013-09-22 08:37:00,74.8,40.9,29.21,West,268,9.5,11.2,29,-99.99,,,0.00,414.6,rob ver 1A,2013-09-22 15:37:00,
2013-09-22 08:38:00,78.1,29.3,29.32,WNW,299,10.9,13.1,16,-99.99,,,0.00,416.2,rob ver 1B,2013-09-22 15:38:00,
2013-09-22 08:39:00,78.2,28.8,29.32,NW,306,11.8,13.9,16,-99.99,,,0.00,420.3,rob ver 1B,2013-09-22 15:39:00,
2013-09-22 08:40:00,78.3,29.0,29.32,WNW,299,11.5,13.8,16,-99.99,,,0.00,424.1,rob ver 1B,2013-09-22 15:40:00,
2013-09-22 08:41:00,78.2,28.5,29.32,WNW,298,11.7,13.7,16,-99.99,,,0.00,426.7,rob ver 1B,2013-09-22 15:41:00,
2013-09-22 08:42:00,74.9,40.8,29.23,West,272,9.8,11.7,29,-99.99,,,0.00,427.6,rob ver 1A,2013-09-22 15:42:00,
2013-09-22 08:43:00,78.2,28.7,29.32,WNW,300,12.6,15.7,16,-99.99,,,0.00,434,rob ver 1B,2013-09-22 15:43:00,
2013-09-22 08:44:00,78.1,28.9,29.32,WNW,301,11.9,13.9,16,-99.99,,,0.00,437.9,rob ver 1B,2013-09-22 15:44:00,
2013-09-22 08:45:00,78.2,29.7,29.32,NW,304,10.5,12.9,16,-99.99,,,0.00,441.2,rob ver 1B,2013-09-22 15:45:00,
2013-09-22 08:46:00,78.5,30.1,29.32,WNW,302,9.9,11.8,16,-99.99,,,0.00,444,rob ver 1B,2013-09-22 15:46:00,
2013-09-22 08:47:00,74.9,40.8,29.21,WNW,283,12.2,14.5,29,-99.99,,,0.00,442.3,rob ver 1A,2013-09-22 15:47:00,
2013-09-22 08:48:00,78.5,29.1,29.32,WNW,298,11.1,13.5,15,-99.99,,,0.00,451.3,rob ver 1B,2013-09-22 15:48:00,
2013-09-22 08:49:00,78.6,29.2,29.32,WNW,299,11.3,13.4,16,-99.99,,,0.00,454.4,rob ver 1B,2013-09-22 15:49:00,
2013-09-22 08:50:00,78.6,28.9,29.32,WNW,296,11.0,12.6,16,-99.99,,,0.00,457.5,rob ver 1B,2013-09-22 15:50:00,
2013-09-22 08:51:00,78.7,29.6,29.32,WNW,299,10.8,12.8,16,-99.99,,,0.00,460.5,rob ver 1B,2013-09-22 15:51:00,
2013-09-22 08:52:00,75.4,40.8,29.23,West,262,10.8,12.3,28,-99.99,,,0.00,463,rob ver 1A,2013-09-22 15:52:00,
2013-09-22 08:53:00,78.7,29.5,29.32,WNW,295,12.0,14.4,16,-99.99,,,0.00,466.4,rob ver 1B,2013-09-22 15:53:00,
2013-09-22 08:54:00,78.8,29.6,29.32,WNW,293,11.3,13.9,16,-99.99,,,0.00,469.7,rob ver 1B,2013-09-22 15:54:00,
2013-09-22 08:55:00,78.9,29.6,29.32,WNW,292,11.9,14.6,16,-99.99,,,0.00,472.5,rob ver 1B,2013-09-22 15:55:00,
2013-09-22 08:56:00,78.8,30.0,29.32,WNW,302,11.5,13.5,16,-99.99,,,0.00,477,rob ver 1B,2013-09-22 15:56:00,
2013-09-22 08:57:00,75.3,40.7,29.23,West,280,12.8,15.4,28,-99.99,,,0.00,473.7,rob ver 1A,2013-09-22 15:57:00,
2013-09-22 08:58:00,78.9,30.4,29.32,WNW,298,10.7,12.3,16,-99.99,,,0.00,482.6,rob ver 1B,2013-09-22 15:58:00,
2013-09-22 08:59:00,79.2,30.5,29.32,WNW,292,11.2,14.9,16,-99.99,,,0.00,485.7,rob ver 1B,2013-09-22 15:59:00,
2013-09-22 09:00:00,79.4,29.5,29.32,WNW,294,12.3,14.0,15,-99.99,,,0.00,489.5,rob ver 1B,2013-09-22 16:00:00,
2013-09-22 09:01:00,79.2,30.0,29.32,WNW,296,12.9,14.9,16,-99.99,,,0.00,493,rob ver 1B,2013-09-22 16:01:00,
2013-09-22 09:02:00,75.4,40.5,29.23,WNW,289,12.3,15.7,28,-99.99,,,0.00,492.4,rob ver 1A,2013-09-22 16:02:00,
2013-09-22 09:03:00,79.4,30.7,29.32,WNW,290,11.2,14.0,16,-99.99,,,0.00,499.6,rob ver 1B,2013-09-22 16:03:00,
2013-09-22 09:04:00,79.6,29.8,29.32,WNW,295,11.8,13.7,16,-99.99,,,0.00,502.8,rob ver 1B,2013-09-22 16:04:00,
2013-09-22 09:05:00,79.6,30.1,29.32,WNW,299,11.7,13.9,15,-99.99,,,0.00,505.8,rob ver 1B,2013-09-22 16:05:00,
2013-09-22 09:06:00,79.6,29.3,29.32,WNW,294,12.4,14.5,16,-99.99,,,0.00,508,rob ver 1B,2013-09-22 16:06:00,
2013-09-22 09:07:00,75.5,40.7,29.23,WNW,285,11.7,15.4,28,-99.99,,,0.00,509.3,rob ver 1A,2013-09-22 16:07:00,
2013-09-22 09:08:00,79.6,30.1,29.32,WNW,288,10.3,11.8,16,-99.99,,,0.00,514.7,rob ver 1B,2013-09-22 16:08:00,
2013-09-22 09:09:00,79.7,29.8,29.32,WNW,296,10.7,12.6,16,-99.99,,,0.00,518,rob ver 1B,2013-09-22 16:09:00,
2013-09-22 09:10:00,79.9,29.3,29.32,WNW,300,11.3,13.9,16,-99.99,,,0.00,520.6,rob ver 1B,2013-09-22 16:10:00,
2013-09-22 09:11:00,80.0,29.6,29.32,WNW,285,11.4,13.4,15,-99.99,,,0.00,524.8,rob ver 1B,2013-09-22 16:11:00,
2013-09-22 09:12:00,75.8,40.6,29.23,West,265,12.2,17.4,28,-99.99,,,0.00,526,rob ver 1A,2013-09-22 16:12:00,
2013-09-22 09:13:00,80.3,29.5,29.32,WNW,291,10.8,12.9,15,-99.99,,,0.00,529.9,rob ver 1B,2013-09-22 16:13:00,
2013-09-22 09:14:00,80.5,29.4,29.32,WNW,298,9.2,10.9,15,-99.99,,,0.00,532.2,rob ver 1B,2013-09-22 16:14:00,
2013-09-22 09:15:00,80.9,29.6,29.32,WNW,301,9.2,13.7,15,-99.99,,,0.00,536.8,rob ver 1B,2013-09-22 16:15:00,
2013-09-22 09:16:00,81.2,29.1,29.32,WNW,294,11.0,13.3,14,-99.99,,,0.00,539.9,rob ver 1B,2013-09-22 16:16:00,
2013-09-22 09:17:00,81.0,29.3,29.35,WNW,296,10.0,12.4,15,-99.99,,,0.00,542.4,rob ver 1B,2013-09-22 16:17:00,
2013-09-22 09:18:00,75.7,40.7,29.23,West,267,10.0,12.3,28,-99.99,,,0.00,539.3,rob ver 1A,2013-09-22 16:18:00,
2013-09-22 09:19:00,81.2,29.3,29.32,WNW,302,10.9,12.6,15,-99.99,,,0.00,549.2,rob ver 1B,2013-09-22 16:19:00,
2013-09-22 09:20:00,81.3,29.5,29.32,WNW,297,10.8,12.8,15,-99.99,,,0.00,552,rob ver 1B,2013-09-22 16:20:00,
2013-09-22 09:21:00,81.4,29.5,29.35,WNW,301,10.2,12.5,15,-99.99,,,0.00,554.9,rob ver 1B,2013-09-22 16:21:00,
2013-09-22 09:22:00,81.5,29.3,29.32,WNW,299,12.1,13.8,14,-99.99,,,0.00,558.6,rob ver 1B,2013-09-22 16:22:00,
2013-09-22 09:23:00,76.0,40.1,29.23,WNW,284,10.9,13.0,27,-99.99,,,0.00,555.6,rob ver 1A,2013-09-22 16:23:00,
2013-09-22 09:24:00,81.8,29.6,29.32,WNW,299,10.0,12.9,14,-99.99,,,0.00,564,rob ver 1B,2013-09-22 16:24:00,
2013-09-22 09:25:00,82.0,29.7,29.35,WNW,290,10.1,13.2,14,-99.99,,,0.00,566.8,rob ver 1B,2013-09-22 16:25:00,
2013-09-22 09:26:00,82.0,29.4,29.35,West,279,10.3,12.4,14,-99.99,,,0.00,569.9,rob ver 1B,2013-09-22 16:26:00,
2013-09-22 09:27:00,81.6,29.5,29.35,West,279,9.4,11.5,15,-99.99,,,0.00,572.9,rob ver 1B,2013-09-22 16:27:00,
2013-09-22 09:28:00,76.4,40.3,29.23,West,280,12.2,16.2,27,-99.99,,,0.00,567.5,rob ver 1A,2013-09-22 16:28:00,
2013-09-22 09:29:00,81.5,29.3,29.35,West,276,10.0,12.1,15,-99.99,,,0.00,578.2,rob ver 1B,2013-09-22 16:29:00,
2013-09-22 09:30:00,81.4,29.5,29.35,WNW,290,9.5,11.3,14,-99.99,,,0.00,581.3,rob ver 1B,2013-09-22 16:30:00,
2013-09-22 09:31:00,81.8,29.7,29.35,WNW,297,9.8,12.3,14,-99.99,,,0.00,584.3,rob ver 1B,2013-09-22 16:31:00,
2013-09-22 09:32:00,82.2,29.7,29.32,WNW,287,9.4,11.5,14,-99.99,,,0.00,587.9,rob ver 1B,2013-09-22 16:32:00,
2013-09-22 09:33:00,76.7,40.4,29.23,West,264,14.0,16.2,27,-99.99,,,0.00,584,rob ver 1A,2013-09-22 16:33:00,
2013-09-22 09:34:00,82.5,29.5,29.35,WNW,300,11.8,13.6,14,-99.99,,,0.00,592.8,rob ver 1B,2013-09-22 16:34:00,
2013-09-22 09:35:00,82.7,29.4,29.35,WNW,298,11.0,13.3,14,-99.99,,,0.00,596,rob ver 1B,2013-09-22 16:35:00,
2013-09-22 09:36:00,82.6,29.5,29.35,NW,304,9.6,11.6,14,-99.99,,,0.00,598.9,rob ver 1B,2013-09-22 16:36:00,
2013-09-22 09:37:00,82.7,29.5,29.32,WNW,301,11.3,13.3,14,-99.99,,,0.00,600.6,rob ver 1B,2013-09-22 16:37:00,
2013-09-22 09:38:00,76.4,40.3,29.23,WNW,296,13.5,18.6,27,-99.99,,,0.00,602.9,rob ver 1A,2013-09-22 16:38:00,
2013-09-22 09:39:00,83.1,29.5,29.35,WNW,301,10.7,13.2,14,-99.99,,,0.00,607,rob ver 1B,2013-09-22 16:39:00,
2013-09-22 09:40:00,83.1,29.7,29.35,WNW,302,8.8,11.8,14,-99.99,,,0.00,609.5,rob ver 1B,2013-09-22 16:40:00,
2013-09-22 09:41:00,83.2,29.6,29.35,WNW,293,10.1,13.0,14,-99.99,,,0.00,612.3,rob ver 1B,2013-09-22 16:41:00,
2013-09-22 09:42:00,83.3,29.6,29.35,WNW,284,11.9,15.0,14,-99.99,,,0.00,614.9,rob ver 1B,2013-09-22 16:42:00,
2013-09-22 09:43:00,77.3,40.3,29.23,WNW,284,10.6,13.3,26,-99.99,,,0.00,615.1,rob ver 1A,2013-09-22 16:43:00,
2013-09-22 09:44:00,83.2,29.7,29.35,WNW,295,10.5,13.4,14,-99.99,,,0.00,620.9,rob ver 1B,2013-09-22 16:44:00,
2013-09-22 09:45:00,83.4,29.9,29.35,WNW,295,12.9,15.0,14,-99.99,,,0.00,622.5,rob ver 1B,2013-09-22 16:45:00,
2013-09-22 09:46:00,83.4,29.7,29.35,NW,308,11.4,14.2,14,-99.99,,,0.00,625.6,rob ver 1B,2013-09-22 16:46:00,
2013-09-22 09:47:00,83.3,29.9,29.35,NW,305,11.1,12.8,14,-99.99,,,0.00,628.4,rob ver 1B,2013-09-22 16:47:00,
2013-09-22 09:48:00,77.0,39.9,29.23,West,265,13.9,16.8,26,-99.99,,,0.00,625.7,rob ver 1A,2013-09-22 16:48:00,
2013-09-22 09:49:00,83.6,29.8,29.35,WNW,302,10.5,14.7,14,-99.99,,,0.00,633.2,rob ver 1B,2013-09-22 16:49:00,
2013-09-22 09:50:00,83.7,29.8,29.35,WNW,296,11.0,13.4,14,-99.99,,,0.00,636.7,rob ver 1B,2013-09-22 16:50:00,
2013-09-22 09:51:00,83.6,29.7,29.35,WNW,289,9.3,12.6,14,-99.99,,,0.00,638.5,rob ver 1B,2013-09-22 16:51:00,
2013-09-22 09:52:00,83.7,29.9,29.35,WNW,286,9.3,13.9,14,-99.99,,,0.00,640.6,rob ver 1B,2013-09-22 16:52:00,
2013-09-22 09:53:00,77.4,39.9,29.23,WNW,287,13.3,18.2,25,-99.99,,,0.00,641,rob ver 1A,2013-09-22 16:53:00,
2013-09-22 09:54:00,83.8,30.0,29.35,NW,308,11.5,13.1,14,-99.99,,,0.00,646.2,rob ver 1B,2013-09-22 16:54:00,
2013-09-22 09:55:00,83.8,29.9,29.35,NW,304,10.1,12.0,14,-99.99,,,0.00,648.4,rob ver 1B,2013-09-22 16:55:00,
2013-09-22 09:56:00,83.8,29.8,29.35,NW,304,10.1,12.4,14,-99.99,,,0.00,650.4,rob ver 1B,2013-09-22 16:56:00,
2013-09-22 09:57:00,83.9,29.9,29.35,WNW,303,8.0,9.9,14,-99.99,,,0.00,653.7,rob ver 1B,2013-09-22 16:57:00,
2013-09-22 09:58:00,77.4,39.3,29.23,West,279,15.1,17.6,25,-99.99,,,0.00,659.3,rob ver 1A,2013-09-22 16:58:00,
2013-09-22 09:59:00,84.3,30.0,29.35,WNW,287,9.8,15.1,14,-99.99,,,0.00,658.9,rob ver 1B,2013-09-22 16:59:00,
2013-09-22 10:00:00,84.5,30.5,29.35,WNW,303,9.0,13.3,13,-99.99,,,0.00,661.1,rob ver 1B,2013-09-22 17:00:00,
2013-09-22 10:01:00,84.8,30.3,29.35,NW,304,8.6,11.1,14,-99.99,,,0.00,663.4,rob ver 1B,2013-09-22 17:01:00,
2013-09-22 10:02:00,85.0,30.4,29.35,WNW,300,9.3,14.0,13,-99.99,,,0.00,665.5,rob ver 1B,2013-09-22 17:02:00,
2013-09-22 10:03:00,85.0,30.1,29.35,WNW,292,9.0,12.1,13,-99.99,,,0.00,668,rob ver 1B,2013-09-22 17:03:00,
2013-09-22 10:04:00,78.1,39.5,29.23,West,272,13.6,16.9,24,-99.99,,,0.00,671,rob ver 1A,2013-09-22 17:04:00,
2013-09-22 10:05:00,85.6,31.0,29.35,NW,313,7.0,10.8,13,-99.99,,,0.00,673.9,rob ver 1B,2013-09-22 17:05:00,
2013-09-22 10:06:00,85.6,30.4,29.35,NW,308,8.8,11.0,13,-99.99,,,0.00,675.9,rob ver 1B,2013-09-22 17:06:00,
2013-09-22 10:07:00,85.4,30.4,29.35,NW,306,6.8,8.3,13,-99.99,,,0.00,678.3,rob ver 1B,2013-09-22 17:07:00,
2013-09-22 10:08:00,85.4,30.9,29.35,NW,308,7.7,11.0,13,-99.99,,,0.00,680.3,rob ver 1B,2013-09-22 17:08:00,
2013-09-22 10:09:00,78.1,39.4,29.23,NW,307,12.8,16.1,24,-99.99,,,0.00,683.2,rob ver 1A,2013-09-22 17:09:00,
2013-09-22 10:10:00,85.6,30.3,29.35,WNW,289,5.8,8.5,13,-99.99,,,0.00,685.2,rob ver 1B,2013-09-22 17:10:00,
2013-09-22 10:11:00,85.7,30.3,29.35,West,269,7.4,9.9,13,-99.99,,,0.00,687.7,rob ver 1B,2013-09-22 17:11:00,
2013-09-22 10:12:00,85.7,30.3,29.35,West,276,8.9,13.4,13,-99.99,,,0.00,689.3,rob ver 1B,2013-09-22 17:12:00,
2013-09-22 10:13:00,85.6,30.2,29.35,West,279,10.2,12.2,13,-99.99,,,0.00,692.1,rob ver 1B,2013-09-22 17:13:00,
2013-09-22 10:14:00,78.3,38.5,29.23,West,275,12.5,15.6,23,-99.99,,,0.00,693.7,rob ver 1A,2013-09-22 17:14:00,
2013-09-22 10:15:00,85.5,30.5,29.35,WNW,291,9.1,10.6,13,-99.99,,,0.00,695.9,rob ver 1B,2013-09-22 17:15:00,
2013-09-22 10:16:00,85.8,30.2,29.35,WNW,290,9.0,10.5,13,-99.99,,,0.00,697.2,rob ver 1B,2013-09-22 17:16:00,
2013-09-22 10:17:00,85.9,30.4,29.35,WNW,300,7.2,10.8,13,-99.99,,,0.00,699.2,rob ver 1B,2013-09-22 17:17:00,
2013-09-22 10:18:00,86.0,30.3,29.35,WNW,297,7.5,10.8,13,-99.99,,,0.00,702,rob ver 1B,2013-09-22 17:18:00,
2013-09-22 10:19:00,78.6,38.3,29.23,WNW,287,15.5,19.0,23,-99.99,,,0.00,709,rob ver 1A,2013-09-22 17:19:00,
2013-09-22 10:20:00,86.1,30.3,29.35,WNW,288,6.1,8.1,13,-99.99,,,0.00,707,rob ver 1B,2013-09-22 17:20:00,
2013-09-22 10:21:00,86.2,30.2,29.35,WSW,256,6.2,9.3,13,-99.99,,,0.00,708,rob ver 1B,2013-09-22 17:21:00,
2013-09-22 10:22:00,86.3,30.3,29.35,WNW,284,8.2,11.9,13,-99.99,,,0.00,711,rob ver 1B,2013-09-22 17:22:00,
2013-09-22 10:23:00,86.2,30.2,29.35,WNW,286,5.5,7.1,13,-99.99,,,0.00,713,rob ver 1B,2013-09-22 17:23:00,
2013-09-22 10:24:00,78.6,38.7,29.23,West,269,11.5,15.0,23,-99.99,,,0.00,717,rob ver 1A,2013-09-22 17:24:00,
2013-09-22 10:25:00,86.5,30.3,29.35,WNW,293,6.6,10.0,13,-99.99,,,0.00,719,rob ver 1B,2013-09-22 17:25:00,
2013-09-22 10:26:00,86.6,30.0,29.35,WNW,295,7.7,10.6,13,-99.99,,,0.00,720,rob ver 1B,2013-09-22 17:26:00,
2013-09-22 10:27:00,86.5,30.0,29.35,WNW,294,4.0,5.8,12,-99.99,,,0.00,722,rob ver 1B,2013-09-22 17:27:00,
2013-09-22 10:28:00,86.7,30.1,29.35,West,277,2.5,3.9,13,-99.99,,,0.00,725,rob ver 1B,2013-09-22 17:28:00,
2013-09-22 10:29:00,78.8,38.8,29.23,WNW,292,10.0,12.5,23,-99.99,,,0.00,728,rob ver 1A,2013-09-22 17:29:00,
2013-09-22 10:30:00,87.0,30.4,29.35,NE,35,4.1,5.1,13,-99.99,,,0.00,728,rob ver 1B,2013-09-22 17:30:00,
2013-09-22 10:31:00,86.9,30.0,29.35,NE,35,5.0,8.6,12,-99.99,,,0.00,731,rob ver 1B,2013-09-22 17:31:00,
2013-09-22 10:32:00,86.9,29.9,29.35,East,96,2.1,4.7,12,-99.99,,,0.00,733,rob ver 1B,2013-09-22 17:32:00,
2013-09-22 10:33:00,87.3,30.4,29.35,ESE,122,1.6,3.1,12,-99.99,,,0.00,734,rob ver 1B,2013-09-22 17:33:00,
2013-09-22 10:34:00,87.7,30.5,29.35,SE,127,2.7,4.3,13,-99.99,,,0.00,736,rob ver 1B,2013-09-22 17:34:00,
2013-09-22 10:35:00,79.5,38.9,29.23,West,270,11.4,16.0,23,-99.99,,,0.00,735,rob ver 1A,2013-09-22 17:35:00,
2013-09-22 10:36:00,88.0,30.6,29.35,ESE,109,6.0,7.9,12,-99.99,,,0.00,741,rob ver 1B,2013-09-22 17:36:00,
2013-09-22 10:37:00,87.9,30.8,29.35,East,97,8.1,10.3,12,-99.99,,,0.00,743,rob ver 1B,2013-09-22 17:37:00,
2013-09-22 10:38:00,87.8,30.6,29.35,ENE,78,8.2,10.3,12,-99.99,,,0.00,746,rob ver 1B,2013-09-22 17:38:00,
2013-09-22 10:39:00,87.6,30.3,29.35,ENE,75,7.3,9.3,12,-99.99,,,0.00,747,rob ver 1B,2013-09-22 17:39:00,
2013-09-22 10:40:00,79.2,38.4,29.23,West,264,12.4,15.7,23,-99.99,,,0.00,749,rob ver 1A,2013-09-22 17:40:00,
2013-09-22 10:41:00,87.2,30.1,29.35,SE,128,4.1,6.0,13,-99.99,,,0.00,751,rob ver 1B,2013-09-22 17:41:00,
2013-09-22 10:42:00,87.3,30.3,29.35,SE,142,2.6,4.3,12,-99.99,,,0.00,753,rob ver 1B,2013-09-22 17:42:00,
2013-09-22 10:43:00,87.6,30.4,29.35,ESE,122,4.2,8.4,12,-99.99,,,0.00,754,rob ver 1B,2013-09-22 17:43:00,
2013-09-22 10:44:00,87.7,30.3,29.35,ESE,106,6.0,7.7,12,-99.99,,,0.00,757,rob ver 1B,2013-09-22 17:44:00,
2013-09-22 10:45:00,79.1,38.4,29.23,West,280,16.1,19.5,23,-99.99,,,0.00,749,rob ver 1A,2013-09-22 17:45:00,
2013-09-22 10:46:00,88.1,30.1,29.35,ENE,60,5.3,7.7,12,-99.99,,,0.00,761,rob ver 1B,2013-09-22 17:46:00,
2013-09-22 10:47:00,88.2,29.6,29.35,ENE,72,5.1,8.7,12,-99.99,,,0.00,762,rob ver 1B,2013-09-22 17:47:00,
2013-09-22 10:48:00,88.2,29.7,29.35,ESE,117,2.3,4.0,12,-99.99,,,0.00,763,rob ver 1B,2013-09-22 17:48:00,
2013-09-22 10:49:00,88.6,29.9,29.35,SSW,200,2.3,3.6,12,-99.99,,,0.00,764,rob ver 1B,2013-09-22 17:49:00,
2013-09-22 10:50:00,79.4,37.9,29.23,West,268,15.5,17.9,22,-99.99,,,0.00,766,rob ver 1A,2013-09-22 17:50:00,
2013-09-22 10:51:00,89.3,30.5,29.35,WNW,298,1.8,3.3,12,-99.99,,,0.00,768,rob ver 1B,2013-09-22 17:51:00,
2013-09-22 10:52:00,89.2,30.5,29.35,ENE,63,2.9,3.7,12,-99.99,,,0.00,770,rob ver 1B,2013-09-22 17:52:00,
2013-09-22 10:53:00,89.2,30.4,29.35,ESE,111,3.2,5.4,12,-99.99,,,0.00,772,rob ver 1B,2013-09-22 17:53:00,
2013-09-22 10:54:00,89.1,30.8,29.35,ESE,108,4.4,6.0,12,-99.99,,,0.00,773,rob ver 1B,2013-09-22 17:54:00,
2013-09-22 10:55:00,79.5,37.8,29.23,West,280,14.0,17.5,22,-99.99,,,0.00,772,rob ver 1A,2013-09-22 17:55:00,
2013-09-22 10:56:00,88.4,30.2,29.35,ENE,73,7.9,10.0,12,-99.99,,,0.00,778,rob ver 1B,2013-09-22 17:56:00,
2013-09-22 10:57:00,88.0,30.1,29.35,ENE,72,7.7,10.7,12,-99.99,,,0.00,778,rob ver 1B,2013-09-22 17:57:00,
2013-09-22 10:58:00,87.9,29.6,29.35,ENE,71,8.1,10.3,12,-99.99,,,0.00,781,rob ver 1B,2013-09-22 17:58:00,
2013-09-22 10:59:00,87.8,29.6,29.35,ENE,75,6.5,9.0,12,-99.99,,,0.00,781,rob ver 1B,2013-09-22 17:59:00,
2013-09-22 11:00:00,80.2,37.3,29.23,West,268,15.5,17.9,21,-99.99,,,0.00,782,rob ver 1A,2013-09-22 18:00:00,
2013-09-22 11:01:00,87.5,29.4,29.35,ENE,67,4.2,6.6,12,-99.99,,,0.00,784,rob ver 1B,2013-09-22 18:01:00,
2013-09-22 11:02:00,87.6,29.9,29.35,ESE,112,4.9,6.4,12,-99.99,,,0.00,787,rob ver 1B,2013-09-22 18:02:00,
2013-09-22 11:03:00,87.6,29.7,29.35,ESE,109,5.1,10.6,12,-99.99,,,0.00,789,rob ver 1B,2013-09-22 18:03:00,
2013-09-22 11:04:00,87.6,29.5,29.35,ENE,77,8.4,11.5,12,-99.99,,,0.00,790,rob ver 1B,2013-09-22 18:04:00,
2013-09-22 11:05:00,79.6,37.3,29.23,WNW,287,9.7,13.3,21,-99.99,,,0.00,788,rob ver 1A,2013-09-22 18:05:00,
2013-09-22 11:06:00,87.3,29.3,29.35,ENE,74,7.0,9.1,12,-99.99,,,0.00,793,rob ver 1B,2013-09-22 18:06:00,
2013-09-22 11:07:00,87.4,29.2,29.35,East,85,6.1,9.8,12,-99.99,,,0.00,795,rob ver 1B,2013-09-22 18:07:00,
2013-09-22 11:08:00,87.3,29.0,29.35,ENE,75,6.7,10.4,12,-99.99,,,0.00,796,rob ver 1B,2013-09-22 18:08:00,
2013-09-22 11:09:00,87.2,29.1,29.35,East,79,4.7,6.5,12,-99.99,,,0.00,795,rob ver 1B,2013-09-22 18:09:00,
2013-09-22 11:10:00,87.5,29.3,29.35,ESE,106,6.3,10.4,12,-99.99,,,0.00,798,rob ver 1B,2013-09-22 18:10:00,
2013-09-22 11:11:00,79.7,37.4,29.23,WSW,249,13.6,18.1,21,-99.99,,,0.00,796,rob ver 1A,2013-09-22 18:11:00,
2013-09-22 11:12:00,87.9,29.5,29.35,SE,146,3.1,4.4,12,-99.99,,,0.00,800,rob ver 1B,2013-09-22 18:12:00,
2013-09-22 11:13:00,87.9,29.9,29.35,East,99,7.6,12.8,12,-99.99,,,0.00,802,rob ver 1B,2013-09-22 18:13:00,
2013-09-22 11:14:00,87.7,29.8,29.35,East,98,9.2,11.3,12,-99.99,,,0.00,804,rob ver 1B,2013-09-22 18:14:00,
2013-09-22 11:15:00,87.5,29.7,29.35,ESE,102,8.6,11.4,12,-99.99,,,0.00,805,rob ver 1B,2013-09-22 18:15:00,
2013-09-22 11:16:00,80.9,36.8,29.23,NW,322,10.8,14.5,20,-99.99,,,0.00,807,rob ver 1A,2013-09-22 18:16:00,
2013-09-22 11:17:00,87.5,30.2,29.35,East,94,5.4,10.9,13,-99.99,,,0.00,806,rob ver 1B,2013-09-22 18:17:00,
2013-09-22 11:18:00,87.8,30.4,29.35,ESE,119,9.1,10.5,12,-99.99,,,0.00,809,rob ver 1B,2013-09-22 18:18:00,
2013-09-22 11:19:00,87.7,30.2,29.35,ESE,119,8.8,10.9,12,-99.99,,,0.00,810,rob ver 1B,2013-09-22 18:19:00,
2013-09-22 11:20:00,87.5,29.9,29.35,ESE,122,6.7,10.5,12,-99.99,,,0.00,812,rob ver 1B,2013-09-22 18:20:00,
2013-09-22 11:21:00,80.6,36.1,29.23,West,274,12.5,15.9,20,-99.99,,,0.00,815,rob ver 1A,2013-09-22 18:21:00,
2013-09-22 11:22:00,87.8,30.5,29.35,SE,129,5.8,7.2,12,-99.99,,,0.00,812,rob ver 1B,2013-09-22 18:22:00,
2013-09-22 11:23:00,88.3,30.2,29.35,SE,143,8.0,11.5,12,-99.99,,,0.00,814,rob ver 1B,2013-09-22 18:23:00,
2013-09-22 11:24:00,88.3,30.0,29.35,SE,142,7.1,9.0,12,-99.99,,,0.00,816,rob ver 1B,2013-09-22 18:24:00,
2013-09-22 11:25:00,88.2,29.9,29.35,SE,131,5.2,6.3,12,-99.99,,,0.00,816,rob ver 1B,2013-09-22 18:25:00,
2013-09-22 11:26:00,81.1,33.2,29.21,WNW,298,15.2,19.2,17,-99.99,,,0.00,827,rob ver 1A,2013-09-22 18:26:00,
2013-09-22 11:27:00,88.1,30.2,29.35,SE,131,5.3,8.2,12,-99.99,,,0.00,818,rob ver 1B,2013-09-22 18:27:00,
2013-09-22 11:28:00,88.0,30.1,29.35,SE,142,5.2,6.5,12,-99.99,,,0.00,819,rob ver 1B,2013-09-22 18:28:00,
2013-09-22 11:29:00,87.7,30.0,29.35,ESE,121,3.4,4.6,12,-99.99,,,0.00,821,rob ver 1B,2013-09-22 18:29:00,
2013-09-22 11:30:00,87.8,30.2,29.35,South,185,3.0,4.6,12,-99.99,,,0.00,821,rob ver 1B,2013-09-22 18:30:00,
2013-09-22 11:31:00,81.8,33.8,29.21,WNW,282,17.0,20.5,17,-99.99,,,0.00,829,rob ver 1A,2013-09-22 18:31:00,
2013-09-22 11:32:00,88.6,30.4,29.35,SE,139,2.7,3.9,12,-99.99,,,0.00,823,rob ver 1B,2013-09-22 18:32:00,
2013-09-22 11:33:00,88.9,30.5,29.35,SSW,199,2.7,4.0,12,-99.99,,,0.00,825,rob ver 1B,2013-09-22 18:33:00,
2013-09-22 11:34:00,89.3,30.3,29.35,South,191,3.7,6.0,12,-99.99,,,0.00,826,rob ver 1B,2013-09-22 18:34:00,
2013-09-22 11:35:00,89.5,30.0,29.35,SE,140,5.5,8.0,12,-99.99,,,0.00,828,rob ver 1B,2013-09-22 18:35:00,
2013-09-22 11:36:00,81.5,31.9,29.23,WNW,289,11.4,17.2,15,-99.99,,,0.00,839,rob ver 1A,2013-09-22 18:36:00,
2013-09-22 11:37:00,89.1,29.5,29.35,East,101,7.8,11.0,11,-99.99,,,0.00,830,rob ver 1B,2013-09-22 18:37:00,
2013-09-22 11:38:00,88.8,29.2,29.35,ESE,111,8.0,11.9,11,-99.99,,,0.00,831,rob ver 1B,2013-09-22 18:38:00,
2013-09-22 11:39:00,88.5,29.1,29.35,ESE,106,7.5,11.6,11,-99.99,,,0.00,833,rob ver 1B,2013-09-22 18:39:00,
2013-09-22 11:40:00,88.3,29.1,29.35,East,98,6.4,10.4,11,-99.99,,,0.00,834,rob ver 1B,2013-09-22 18:40:00,
2013-09-22 11:41:00,81.4,29.9,29.23,WNW,289,10.5,13.1,15,-99.99,,,0.00,839,rob ver 1A,2013-09-22 18:41:00,
2013-09-22 11:42:00,88.5,28.8,29.35,East,97,6.7,8.6,11,-99.99,,,0.00,835,rob ver 1B,2013-09-22 18:42:00,
2013-09-22 11:43:00,88.3,28.5,29.35,East,91,6.5,8.1,11,-99.99,,,0.00,836,rob ver 1B,2013-09-22 18:43:00,
2013-09-22 11:44:00,88.1,28.4,29.35,East,89,4.3,8.0,11,-99.99,,,0.00,836,rob ver 1B,2013-09-22 18:44:00,
2013-09-22 11:45:00,88.4,28.8,29.35,East,94,2.2,3.4,12,-99.99,,,0.00,836,rob ver 1B,2013-09-22 18:45:00,
2013-09-22 11:46:00,81.9,35.6,29.21,WSW,242,18.5,22.3,19,-99.99,,,0.00,837,rob ver 1A,2013-09-22 18:46:00,
2013-09-22 11:47:00,89.2,28.5,29.35,East,86,3.6,6.6,11,-99.99,,,0.00,839,rob ver 1B,2013-09-22 18:47:00,
2013-09-22 11:48:00,89.1,28.2,29.35,ENE,67,2.7,4.9,11,-99.99,,,0.00,839,rob ver 1B,2013-09-22 18:48:00,
2013-09-22 11:49:00,89.0,27.7,29.35,North,4,3.4,4.6,10,-99.99,,,0.00,840,rob ver 1B,2013-09-22 18:49:00,
2013-09-22 11:50:00,89.0,28.1,29.35,NNW,327,3.7,6.1,11,-99.99,,,0.00,842,rob ver 1B,2013-09-22 18:50:00,
2013-09-22 11:51:00,81.7,33.9,29.21,West,264,18.4,22.8,18,-99.99,,,0.00,844,rob ver 1A,2013-09-22 18:51:00,
2013-09-22 11:52:00,89.3,28.2,29.35,West,280,1.9,3.2,11,-99.99,,,0.00,842,rob ver 1B,2013-09-22 18:52:00,
2013-09-22 11:53:00,89.7,28.6,29.35,ESE,102,1.0,2.3,11,-99.99,,,0.00,841,rob ver 1B,2013-09-22 18:53:00,
2013-09-22 11:54:00,90.1,28.9,29.35,South,173,2.4,4.9,11,-99.99,,,0.00,845,rob ver 1B,2013-09-22 18:54:00,
2013-09-22 11:55:00,90.5,29.1,29.35,East,96,3.0,7.3,10,-99.99,,,0.00,844,rob ver 1B,2013-09-22 18:55:00,
2013-09-22 11:56:00,90.3,28.2,29.35,East,82,6.8,10.8,10,-99.99,,,0.00,847,rob ver 1B,2013-09-22 18:56:00,
2013-09-22 11:57:00,81.4,33.5,29.21,West,262,13.9,18.7,17,-99.99,,,0.00,855,rob ver 1A,2013-09-22 18:57:00,
2013-09-22 11:58:00,89.5,28.4,29.35,SE,139,5.7,8.1,11,-99.99,,,0.00,847,rob ver 1B,2013-09-22 18:58:00,
2013-09-22 11:59:00,89.4,28.2,29.35,SSE,158,5.2,8.0,11,-99.99,,,0.00,847,rob ver 1B,2013-09-22 18:59:00,
2013-09-22 12:00:00,89.4,28.2,29.35,SW,216,6.3,8.7,10,-99.99,,,0.00,847,rob ver 1B,2013-09-22 19:00:00,
2013-09-22 12:01:00,89.5,28.1,29.35,SW,224,4.4,6.3,10,-99.99,,,0.00,846,rob ver 1B,2013-09-22 19:01:00,
2013-09-22 12:02:00,81.9,29.6,29.21,West,263,15.2,18.3,14,-99.99,,,0.00,855,rob ver 1A,2013-09-22 19:02:00,
2013-09-22 12:03:00,89.4,27.7,29.32,NW,313,3.5,5.8,10,-99.99,,,0.00,848,rob ver 1B,2013-09-22 19:03:00,
2013-09-22 12:04:00,89.4,27.5,29.32,WSW,239,4.7,8.2,10,-99.99,,,0.00,848,rob ver 1B,2013-09-22 19:04:00,
2013-09-22 12:05:00,89.5,27.6,29.35,SW,233,3.7,5.9,10,-99.99,,,0.00,848,rob ver 1B,2013-09-22 19:05:00,
2013-09-22 12:06:00,89.7,27.8,29.32,SW,221,5.1,7.7,10,-99.99,,,0.00,849,rob ver 1B,2013-09-22 19:06:00,
2013-09-22 12:07:00,81.9,29.0,29.21,WSW,238,14.4,20.4,14,-99.99,,,0.00,862,rob ver 1A,2013-09-22 19:07:00,
2013-09-22 12:08:00,89.7,27.7,29.32,South,181,4.6,7.5,10,-99.99,,,0.00,849,rob ver 1B,2013-09-22 19:08:00,
2013-09-22 12:09:00,89.7,27.6,29.32,SW,224,4.7,7.1,10,-99.99,,,0.00,851,rob ver 1B,2013-09-22 19:09:00,
2013-09-22 12:10:00,89.7,27.6,29.32,WSW,240,4.8,6.6,10,-99.99,,,0.00,851,rob ver 1B,2013-09-22 19:10:00,
2013-09-22 12:11:00,89.7,27.7,29.32,WSW,242,2.6,4.0,10,-99.99,,,0.00,850,rob ver 1B,2013-09-22 19:11:00,
2013-09-22 12:12:00,82.7,26.9,29.21,SW,235,13.5,17.8,13,-99.99,,,0.00,869,rob ver 1A,2013-09-22 19:12:00,
2013-09-22 12:13:00,90.2,27.4,29.32,South,169,5.2,7.1,10,-99.99,,,0.00,852,rob ver 1B,2013-09-22 19:13:00,
2013-09-22 12:14:00,90.0,27.5,29.32,SSE,165,3.5,7.2,10,-99.99,,,0.00,852,rob ver 1B,2013-09-22 19:14:00,
2013-09-22 12:15:00,90.2,27.6,29.32,SW,220,4.6,8.0,10,-99.99,,,0.00,852,rob ver 1B,2013-09-22 19:15:00,
2013-09-22 12:16:00,90.1,27.5,29.32,SW,217,4.6,6.2,10,-99.99,,,0.00,853,rob ver 1B,2013-09-22 19:16:00,
2013-09-22 12:17:00,82.7,26.9,29.21,SW,234,8.8,11.5,13,-99.99,,,0.00,870,rob ver 1A,2013-09-22 19:17:00,
2013-09-22 12:18:00,90.2,27.5,29.32,SW,228,4.7,7.9,10,-99.99,,,0.00,857,rob ver 1B,2013-09-22 19:18:00,
2013-09-22 12:19:00,90.3,27.1,29.32,West,278,9.2,13.8,10,-99.99,,,0.00,855,rob ver 1B,2013-09-22 19:19:00,
2013-09-22 12:20:00,90.3,28.0,29.32,North,350,9.1,14.4,10,-99.99,,,0.00,856,rob ver 1B,2013-09-22 19:20:00,
2013-09-22 12:21:00,90.5,27.1,29.32,NE,56,4.5,6.2,10,-99.99,,,0.00,855,rob ver 1B,2013-09-22 19:21:00,
2013-09-22 12:22:00,83.0,25.6,29.21,WSW,247,10.2,14.2,12,-99.99,,,0.00,871,rob ver 1A,2013-09-22 19:22:00,
2013-09-22 12:23:00,90.4,26.9,29.32,SE,125,3.1,5.1,10,-99.99,,,0.00,855,rob ver 1B,2013-09-22 19:23:00,
2013-09-22 12:24:00,90.6,27.4,29.32,ESE,123,2.6,5.2,10,-99.99,,,0.00,856,rob ver 1B,2013-09-22 19:24:00,
2013-09-22 12:25:00,90.9,26.9,29.32,ESE,123,3.4,5.2,10,-99.99,,,0.00,856,rob ver 1B,2013-09-22 19:25:00,
2013-09-22 12:26:00,91.1,27.1,29.32,SE,129,4.2,7.2,9,-99.99,,,0.00,856,rob ver 1B,2013-09-22 19:26:00,
2013-09-22 12:27:00,84.1,26.4,29.21,West,264,12.7,15.4,12,-99.99,,,0.00,868,rob ver 1A,2013-09-22 19:27:00,
2013-09-22 12:28:00,91.1,26.8,29.32,SSE,162,4.2,6.8,10,-99.99,,,0.00,856,rob ver 1B,2013-09-22 19:28:00,
2013-09-22 12:29:00,91.3,27.2,29.32,SE,143,11.0,17.8,10,-99.99,,,0.00,857,rob ver 1B,2013-09-22 19:29:00,
2013-09-22 12:30:00,91.5,27.2,29.32,East,86,12.3,18.8,9,-99.99,,,0.00,857,rob ver 1B,2013-09-22 19:30:00,
2013-09-22 12:31:00,91.3,27.4,29.32,ENE,73,7.5,9.7,10,-99.99,,,0.00,853,rob ver 1B,2013-09-22 19:31:00,
2013-09-22 12:32:00,83.4,26.4,29.21,WSW,238,11.0,12.6,12,-99.99,,,0.00,865,rob ver 1A,2013-09-22 19:32:00,
2013-09-22 12:33:00,91.3,26.9,29.32,East,101,5.7,8.7,9,-99.99,,,0.00,857,rob ver 1B,2013-09-22 19:33:00,
2013-09-22 12:34:00,91.0,26.9,29.32,ENE,62,3.1,5.2,9,-99.99,,,0.00,855,rob ver 1B,2013-09-22 19:34:00,
2013-09-22 12:35:00,91.0,27.1,29.32,East,95,4.0,8.6,10,-99.99,,,0.00,856,rob ver 1B,2013-09-22 19:35:00,
2013-09-22 12:36:00,91.3,27.4,29.32,ENE,76,7.7,10.8,9,-99.99,,,0.00,857,rob ver 1B,2013-09-22 19:36:00,
2013-09-22 12:37:00,83.2,27.7,29.21,SW,231,8.2,12.8,13,-99.99,,,0.00,867,rob ver 1A,2013-09-22 19:37:00,
2013-09-22 12:38:00,91.2,27.1,29.32,East,91,5.6,8.3,10,-99.99,,,0.00,856,rob ver 1B,2013-09-22 19:38:00,
2013-09-22 12:39:00,91.1,27.3,29.32,East,87,7.7,11.9,9,-99.99,,,0.00,856,rob ver 1B,2013-09-22 19:39:00,
2013-09-22 12:40:00,91.1,27.1,29.32,ENE,74,6.5,10.4,9,-99.99,,,0.00,856,rob ver 1B,2013-09-22 19:40:00,
2013-09-22 12:41:00,91.1,27.1,29.32,ENE,69,7.6,10.9,9,-99.99,,,0.00,856,rob ver 1B,2013-09-22 19:41:00,
2013-09-22 12:42:00,84.7,27.8,29.21,WSW,256,11.0,15.4,12,-99.99,,,0.00,862,rob ver 1A,2013-09-22 19:42:00,
2013-09-22 12:43:00,90.7,26.7,29.32,East,79,7.7,9.6,10,-99.99,,,0.00,855,rob ver 1B,2013-09-22 19:43:00,
2013-09-22 12:44:00,90.6,26.8,29.32,East,83,9.7,12.5,9,-99.99,,,0.00,854,rob ver 1B,2013-09-22 19:44:00,
2013-09-22 12:45:00,90.6,26.7,29.32,East,81,8.1,10.1,10,-99.99,,,0.00,854,rob ver 1B,2013-09-22 19:45:00,
2013-09-22 12:46:00,90.5,26.8,29.32,East,86,7.9,10.0,10,-99.99,,,0.00,854,rob ver 1B,2013-09-22 19:46:00,
2013-09-22 12:47:00,90.7,27.0,29.32,East,95,8.3,10.5,9,-99.99,,,0.00,854,rob ver 1B,2013-09-22 19:47:00,
2013-09-22 12:48:00,84.7,27.1,29.21,West,275,13.4,17.7,12,-99.99,,,0.00,866,rob ver 1A,2013-09-22 19:48:00,
2013-09-22 12:49:00,90.7,27.0,29.32,East,79,7.0,10.0,10,-99.99,,,0.00,853,rob ver 1B,2013-09-22 19:49:00,
2013-09-22 12:50:00,90.8,27.0,29.32,ENE,78,6.0,8.7,10,-99.99,,,0.00,852,rob ver 1B,2013-09-22 19:50:00,
2013-09-22 12:51:00,90.5,26.9,29.32,East,86,5.5,7.3,10,-99.99,,,0.00,850,rob ver 1B,2013-09-22 19:51:00,
2013-09-22 12:52:00,90.6,27.0,29.32,East,96,5.9,8.0,10,-99.99,,,0.00,848,rob ver 1B,2013-09-22 19:52:00,
2013-09-22 12:53:00,85.2,28.3,29.21,WNW,282,7.9,12.6,12,-99.99,,,0.00,862,rob ver 1A,2013-09-22 19:53:00,
2013-09-22 12:54:00,90.8,26.9,29.32,East,85,6.7,8.9,10,-99.99,,,0.00,849,rob ver 1B,2013-09-22 19:54:00,
2013-09-22 12:55:00,90.5,26.9,29.32,ENE,72,5.1,6.5,10,-99.99,,,0.00,849,rob ver 1B,2013-09-22 19:55:00,
2013-09-22 12:56:00,90.4,26.9,29.32,ENE,66,5.5,7.9,10,-99.99,,,0.00,849,rob ver 1B,2013-09-22 19:56:00,
2013-09-22 12:57:00,90.5,27.0,29.32,ENE,62,4.7,7.7,10,-99.99,,,0.00,848,rob ver 1B,2013-09-22 19:57:00,
2013-09-22 12:58:00,84.1,25.9,29.21,West,270,10.7,13.7,11,-99.99,,,0.00,864,rob ver 1A,2013-09-22 19:58:00,
2013-09-22 12:59:00,90.6,27.1,29.32,ENE,62,2.5,4.4,10,-99.99,,,0.00,848,rob ver 1B,2013-09-22 19:59:00,
2013-09-22 13:00:00,91.0,27.3,29.32,NE,52,4.9,7.7,9,-99.99,,,0.00,848,rob ver 1B,2013-09-22 20:00:00,
2013-09-22 13:01:00,90.9,27.2,29.32,NE,50,4.8,6.8,10,-99.99,,,0.00,848,rob ver 1B,2013-09-22 20:01:00,
2013-09-22 13:02:00,91.0,27.1,29.32,NE,54,5.1,8.4,10,-99.99,,,0.00,846,rob ver 1B,2013-09-22 20:02:00,
2013-09-22 13:03:00,84.2,28.9,29.21,West,280,8.9,12.0,13,-99.99,,,0.00,855,rob ver 1A,2013-09-22 20:03:00,
2013-09-22 13:04:00,90.7,27.3,29.32,NE,46,4.4,5.4,10,-99.99,,,0.00,844,rob ver 1B,2013-09-22 20:04:00,
2013-09-22 13:05:00,90.8,27.2,29.32,NNE,26,3.8,6.0,10,-99.99,,,0.00,844,rob ver 1B,2013-09-22 20:05:00,
2013-09-22 13:06:00,91.0,27.4,29.32,NE,38,3.2,5.2,10,-99.99,,,0.00,843,rob ver 1B,2013-09-22 20:06:00,
2013-09-22 13:07:00,91.4,27.6,29.32,ENE,71,3.0,4.7,10,-99.99,,,0.00,843,rob ver 1B,2013-09-22 20:07:00,
2013-09-22 13:08:00,83.7,29.0,29.21,West,278,11.8,14.0,13,-99.99,,,0.00,849,rob ver 1A,2013-09-22 20:08:00,
2013-09-22 13:09:00,91.5,27.3,29.32,NNE,14,7.1,11.3,9,-99.99,,,0.00,842,rob ver 1B,2013-09-22 20:09:00,
2013-09-22 13:10:00,91.1,26.9,29.32,NNE,20,8.2,10.3,10,-99.99,,,0.00,843,rob ver 1B,2013-09-22 20:10:00,
2013-09-22 13:11:00,90.5,27.1,29.32,North,0,6.5,8.9,10,-99.99,,,0.00,840,rob ver 1B,2013-09-22 20:11:00,
2013-09-22 13:12:00,90.8,27.5,29.32,East,88,2.9,8.1,10,-99.99,,,0.00,840,rob ver 1B,2013-09-22 20:12:00,
2013-09-22 13:13:00,91.4,27.1,29.32,NE,42,1.7,3.3,9,-99.99,,,0.00,839,rob ver 1B,2013-09-22 20:13:00,
2013-09-22 13:14:00,91.8,26.5,29.32,East,97,3.2,6.9,9,-99.99,,,0.00,838,rob ver 1B,2013-09-22 20:14:00,
2013-09-22 13:15:00,84.7,30.0,29.18,WSW,257,12.1,15.1,13,-99.99,,,0.00,844,rob ver 1A,2013-09-22 20:15:00,
2013-09-22 13:16:00,91.7,26.6,29.32,SE,137,3.1,5.9,9,-99.99,,,0.00,837,rob ver 1B,2013-09-22 20:16:00,
2013-09-22 13:17:00,92.1,27.0,29.32,South,177,6.4,8.9,9,-99.99,,,0.00,835,rob ver 1B,2013-09-22 20:17:00,
2013-09-22 13:18:00,92.2,26.9,29.32,South,185,5.7,9.4,9,-99.99,,,0.00,834,rob ver 1B,2013-09-22 20:18:00,
2013-09-22 13:19:00,92.2,27.1,29.32,SSE,160,5.2,8.9,9,-99.99,,,0.00,835,rob ver 1B,2013-09-22 20:19:00,
2013-09-22 13:20:00,84.5,29.7,29.18,West,273,12.7,15.3,13,-99.99,,,0.00,839,rob ver 1A,2013-09-22 20:20:00,
2013-09-22 13:21:00,92.0,27.1,29.32,SSE,159,3.7,6.3,9,-99.99,,,0.00,833,rob ver 1B,2013-09-22 20:21:00,
2013-09-22 13:22:00,92.1,27.2,29.32,SE,128,8.2,11.2,9,-99.99,,,0.00,832,rob ver 1B,2013-09-22 20:22:00,
2013-09-22 13:23:00,91.9,26.7,29.32,SE,130,7.1,12.4,9,-99.99,,,0.00,830,rob ver 1B,2013-09-22 20:23:00,
2013-09-22 13:24:00,91.8,27.1,29.32,SE,125,6.1,8.5,9,-99.99,,,0.00,830,rob ver 1B,2013-09-22 20:24:00,
2013-09-22 13:25:00,84.9,30.7,29.18,WNW,290,15.4,19.3,14,-99.99,,,0.00,829,rob ver 1A,2013-09-22 20:25:00,
2013-09-22 13:26:00,91.7,27.0,29.32,SE,141,8.8,10.2,9,-99.99,,,0.00,829,rob ver 1B,2013-09-22 20:26:00,
2013-09-22 13:27:00,91.6,26.9,29.32,SE,133,7.8,10.3,9,-99.99,,,0.00,828,rob ver 1B,2013-09-22 20:27:00,
2013-09-22 13:28:00,91.7,27.0,29.32,SSE,150,8.7,10.6,9,-99.99,,,0.00,826,rob ver 1B,2013-09-22 20:28:00,
2013-09-22 13:29:00,91.7,26.9,29.32,South,173,6.5,10.2,9,-99.99,,,0.00,824,rob ver 1B,2013-09-22 20:29:00,
2013-09-22 13:30:00,84.7,30.4,29.18,West,278,13.7,17.9,14,-99.99,,,0.00,829,rob ver 1A,2013-09-22 20:30:00,
2013-09-22 13:31:00,91.8,27.0,29.32,SSE,165,3.5,7.5,9,-99.99,,,0.00,823,rob ver 1B,2013-09-22 20:31:00,
2013-09-22 13:32:00,91.7,27.1,29.32,SE,129,5.9,7.9,9,-99.99,,,0.00,821,rob ver 1B,2013-09-22 20:32:00,
2013-09-22 13:33:00,91.7,26.9,29.29,SSE,147,5.0,6.6,9,-99.99,,,0.00,821,rob ver 1B,2013-09-22 20:33:00,
2013-09-22 13:34:00,91.8,27.0,29.29,SSW,212,4.8,7.6,9,-99.99,,,0.00,819,rob ver 1B,2013-09-22 20:34:00,
2013-09-22 13:35:00,85.6,30.6,29.18,WNW,292,12.0,14.0,13,-99.99,,,0.00,825,rob ver 1A,2013-09-22 20:35:00,
2013-09-22 13:36:00,92.3,27.0,29.29,SSW,207,5.0,6.5,9,-99.99,,,0.00,819,rob ver 1B,2013-09-22 20:36:00,
2013-09-22 13:37:00,92.5,27.0,29.29,South,180,5.0,7.6,9,-99.99,,,0.00,816,rob ver 1B,2013-09-22 20:37:00,
2013-09-22 13:38:00,92.6,27.1,29.29,South,184,4.6,7.8,9,-99.99,,,0.00,814,rob ver 1B,2013-09-22 20:38:00,
2013-09-22 13:39:00,92.8,27.3,29.29,South,185,5.0,7.9,9,-99.99,,,0.00,813,rob ver 1B,2013-09-22 20:39:00,
2013-09-22 13:40:00,93.0,27.3,29.29,SE,146,3.7,6.1,9,-99.99,,,0.00,812,rob ver 1B,2013-09-22 20:40:00,
2013-09-22 13:41:00,85.6,29.1,29.18,West,280,13.8,16.4,12,-99.99,,,0.00,822,rob ver 1A,2013-09-22 20:41:00,
2013-09-22 13:42:00,93.1,27.2,29.29,SE,127,6.5,9.1,9,-99.99,,,0.00,807,rob ver 1B,2013-09-22 20:42:00,
2013-09-22 13:43:00,92.9,27.2,29.29,South,189,6.0,10.2,9,-99.99,,,0.00,805,rob ver 1B,2013-09-22 20:43:00,
2013-09-22 13:44:00,92.8,27.0,29.29,SW,214,2.6,5.4,9,-99.99,,,0.00,805,rob ver 1B,2013-09-22 20:44:00,
2013-09-22 13:45:00,92.9,27.3,29.29,South,188,4.8,7.4,9,-99.99,,,0.00,805,rob ver 1B,2013-09-22 20:45:00,
2013-09-22 13:46:00,85.1,29.4,29.18,West,276,13.9,17.0,13,-99.99,,,0.00,812,rob ver 1A,2013-09-22 20:46:00,
2013-09-22 13:47:00,93.1,27.2,29.29,SSW,195,6.3,8.6,9,-99.99,,,0.00,803,rob ver 1B,2013-09-22 20:47:00,
2013-09-22 13:48:00,93.0,27.6,29.29,South,171,5.4,9.8,9,-99.99,,,0.00,803,rob ver 1B,2013-09-22 20:48:00,
2013-09-22 13:49:00,93.1,27.5,29.29,SSE,167,5.2,8.9,9,-99.99,,,0.00,800,rob ver 1B,2013-09-22 20:49:00,
2013-09-22 13:50:00,92.8,27.4,29.29,SSE,150,5.2,6.7,9,-99.99,,,0.00,798,rob ver 1B,2013-09-22 20:50:00,
2013-09-22 13:51:00,84.8,30.7,29.18,West,263,9.5,14.2,14,-99.99,,,0.00,803,rob ver 1A,2013-09-22 20:51:00,
2013-09-22 13:52:00,92.9,27.2,29.29,SSE,168,4.9,8.4,9,-99.99,,,0.00,795,rob ver 1B,2013-09-22 20:52:00,
2013-09-22 13:53:00,92.7,27.3,29.29,SSE,156,4.8,6.7,9,-99.99,,,0.00,793,rob ver 1B,2013-09-22 20:53:00,
2013-09-22 13:54:00,92.5,27.4,29.29,SSE,156,3.7,6.4,9,-99.99,,,0.00,791,rob ver 1B,2013-09-22 20:54:00,
2013-09-22 13:55:00,92.4,27.2,29.29,SE,144,2.7,5.9,9,-99.99,,,0.00,791,rob ver 1B,2013-09-22 20:55:00,
2013-09-22 13:56:00,86.0,29.8,29.18,West,260,12.1,16.4,12,-99.99,,,0.00,795,rob ver 1A,2013-09-22 20:56:00,
2013-09-22 13:57:00,92.5,27.4,29.29,South,170,5.2,6.8,9,-99.99,,,0.00,786,rob ver 1B,2013-09-22 20:57:00,
2013-09-22 13:58:00,92.4,27.3,29.29,SSE,164,4.7,7.5,9,-99.99,,,0.00,785,rob ver 1B,2013-09-22 20:58:00,
2013-09-22 13:59:00,92.4,27.5,29.29,SSE,148,3.4,6.6,9,-99.99,,,0.00,783,rob ver 1B,2013-09-22 20:59:00,
2013-09-22 14:00:00,92.3,27.5,29.29,SE,135,3.5,6.1,9,-99.99,,,0.00,783,rob ver 1B,2013-09-22 21:00:00,
2013-09-22 14:01:00,85.8,28.2,29.18,WNW,285,12.9,17.1,12,-99.99,,,0.00,789,rob ver 1A,2013-09-22 21:01:00,
2013-09-22 14:02:00,92.3,27.6,29.29,SE,134,2.9,5.3,9,-99.99,,,0.00,781,rob ver 1B,2013-09-22 21:02:00,
2013-09-22 14:03:00,92.4,27.3,29.29,SE,127,5.5,7.9,9,-99.99,,,0.00,778,rob ver 1B,2013-09-22 21:03:00,
2013-09-22 14:04:00,92.3,27.4,29.29,ESE,119,5.3,6.5,9,-99.99,,,0.00,777,rob ver 1B,2013-09-22 21:04:00,
2013-09-22 14:05:00,92.4,27.6,29.29,SSE,152,5.9,7.9,9,-99.99,,,0.00,774,rob ver 1B,2013-09-22 21:05:00,
2013-09-22 14:06:00,85.8,29.2,29.18,West,273,13.1,17.2,12,-99.99,,,0.00,781,rob ver 1A,2013-09-22 21:06:00,
2013-09-22 14:07:00,92.6,27.5,29.29,SSE,149,5.3,11.1,9,-99.99,,,0.00,770,rob ver 1B,2013-09-22 21:07:00,
2013-09-22 14:08:00,92.4,27.3,29.29,SW,225,10.8,15.4,10,-99.99,,,0.00,769,rob ver 1B,2013-09-22 21:08:00,
2013-09-22 14:09:00,92.1,27.4,29.29,SW,217,4.4,8.4,9,-99.99,,,0.00,767,rob ver 1B,2013-09-22 21:09:00,
2013-09-22 14:10:00,92.2,27.5,29.29,SSW,192,6.8,11.1,9,-99.99,,,0.00,765,rob ver 1B,2013-09-22 21:10:00,
2013-09-22 14:11:00,85.6,24.5,29.18,WSW,252,13.1,16.1,10,-99.99,,,0.00,784,rob ver 1A,2013-09-22 21:11:00,
2013-09-22 14:12:00,92.4,27.3,29.29,SSW,206,9.0,13.9,9,-99.99,,,0.00,762,rob ver 1B,2013-09-22 21:12:00,
2013-09-22 14:13:00,92.3,27.4,29.29,SSW,212,4.5,6.3,9,-99.99,,,0.00,761,rob ver 1B,2013-09-22 21:13:00,
2013-09-22 14:14:00,92.4,27.4,29.29,WSW,250,3.6,7.1,9,-99.99,,,0.00,758,rob ver 1B,2013-09-22 21:14:00,
2013-09-22 14:15:00,92.5,27.5,29.29,WSW,251,3.0,4.1,9,-99.99,,,0.00,759,rob ver 1B,2013-09-22 21:15:00,
2013-09-22 14:16:00,85.7,21.7,29.18,WSW,246,13.2,20.8,9,-99.99,,,0.00,773,rob ver 1A,2013-09-22 21:16:00,
2013-09-22 14:17:00,92.5,27.6,29.29,WSW,242,9.1,11.5,9,-99.99,,,0.00,753,rob ver 1B,2013-09-22 21:17:00,
2013-09-22 14:18:00,92.5,27.2,29.29,SW,233,10.3,13.4,9,-99.99,,,0.00,751,rob ver 1B,2013-09-22 21:18:00,
2013-09-22 14:19:00,92.4,27.3,29.29,SW,231,10.4,13.5,9,-99.99,,,0.00,748,rob ver 1B,2013-09-22 21:19:00,
2013-09-22 14:20:00,92.2,27.2,29.29,SW,230,8.3,10.6,9,-99.99,,,0.00,746,rob ver 1B,2013-09-22 21:20:00,
2013-09-22 14:21:00,92.1,27.2,29.29,WSW,246,6.1,8.4,9,-99.99,,,0.00,745,rob ver 1B,2013-09-22 21:21:00,
2013-09-22 14:22:00,86.1,22.3,29.18,West,263,15.8,19.8,9,-99.99,,,0.00,766,rob ver 1A,2013-09-22 21:22:00,
2013-09-22 14:23:00,92.2,27.5,29.29,WSW,238,6.2,10.8,9,-99.99,,,0.00,742,rob ver 1B,2013-09-22 21:23:00,
2013-09-22 14:24:00,92.2,27.4,29.29,SW,221,8.3,12.0,9,-99.99,,,0.00,740,rob ver 1B,2013-09-22 21:24:00,
2013-09-22 14:25:00,92.6,27.3,29.29,SSW,205,10.3,12.2,9,-99.99,,,0.00,738,rob ver 1B,2013-09-22 21:25:00,
2013-09-22 14:26:00,92.6,27.3,29.29,SW,225,8.0,11.5,9,-99.99,,,0.00,735,rob ver 1B,2013-09-22 21:26:00,
2013-09-22 14:27:00,85.9,22.8,29.18,WSW,256,11.1,15.3,9,-99.99,,,0.00,753,rob ver 1A,2013-09-22 21:27:00,
2013-09-22 14:28:00,92.4,27.4,29.29,SW,236,6.8,8.7,9,-99.99,,,0.00,733,rob ver 1B,2013-09-22 21:28:00,
2013-09-22 14:29:00,92.4,27.3,29.29,SW,233,6.7,9.1,9,-99.99,,,0.00,732,rob ver 1B,2013-09-22 21:29:00,
2013-09-22 14:30:00,92.3,27.6,29.29,SSW,209,5.0,8.2,9,-99.99,,,0.00,731,rob ver 1B,2013-09-22 21:30:00,
2013-09-22 14:31:00,92.7,27.5,29.29,SW,232,7.1,9.6,9,-99.99,,,0.00,730,rob ver 1B,2013-09-22 21:31:00,
2013-09-22 14:32:00,86.7,22.6,29.18,WNW,295,16.5,23.6,9,-99.99,,,0.00,741,rob ver 1A,2013-09-22 21:32:00,
2013-09-22 14:33:00,92.7,27.4,29.29,SSW,197,3.3,5.8,9,-99.99,,,0.00,723,rob ver 1B,2013-09-22 21:33:00,
2013-09-22 14:34:00,92.8,27.4,29.29,SW,225,4.4,8.4,9,-99.99,,,0.00,722,rob ver 1B,2013-09-22 21:34:00,
2013-09-22 14:35:00,92.9,27.6,29.29,SW,232,7.7,11.1,9,-99.99,,,0.00,721,rob ver 1B,2013-09-22 21:35:00,
2013-09-22 14:36:00,92.9,27.4,29.29,WSW,247,8.5,14.0,9,-99.99,,,0.00,719,rob ver 1B,2013-09-22 21:36:00,
2013-09-22 14:37:00,86.1,22.9,29.18,WNW,295,14.4,17.0,9,-99.99,,,0.00,729,rob ver 1A,2013-09-22 21:37:00,
2013-09-22 14:38:00,93.0,27.7,29.29,West,278,5.9,8.4,9,-99.99,,,0.00,714,rob ver 1B,2013-09-22 21:38:00,
2013-09-22 14:39:00,93.2,27.3,29.29,West,271,3.8,6.3,9,-99.99,,,0.00,712,rob ver 1B,2013-09-22 21:39:00,
2013-09-22 14:40:00,93.3,27.4,29.29,WSW,247,3.7,7.0,9,-99.99,,,0.00,710,rob ver 1B,2013-09-22 21:40:00,
2013-09-22 14:41:00,93.2,27.5,29.29,WSW,237,4.7,7.0,9,-99.99,,,0.00,707,rob ver 1B,2013-09-22 21:41:00,
2013-09-22 14:42:00,93.1,27.4,29.29,South,183,2.2,5.0,9,-99.99,,,0.00,703,rob ver 1B,2013-09-22 21:42:00,
2013-09-22 14:43:00,86.4,23.7,29.18,NW,304,11.1,14.8,10,-99.99,,,0.00,716,rob ver 1A,2013-09-22 21:43:00,
2013-09-22 14:44:00,93.3,27.9,29.29,NNW,329,1.1,1.9,9,-99.99,,,0.00,701,rob ver 1B,2013-09-22 21:44:00,
2013-09-22 14:45:00,93.5,27.5,29.29,NE,34,3.2,5.0,9,-99.99,,,0.00,697.9,rob ver 1B,2013-09-22 21:45:00,
2013-09-22 14:46:00,93.2,27.1,29.29,NE,47,3.5,5.1,9,-99.99,,,0.00,696,rob ver 1B,2013-09-22 21:46:00,
2013-09-22 14:47:00,92.9,27.1,29.29,ENE,78,3.3,4.1,9,-99.99,,,0.00,694.1,rob ver 1B,2013-09-22 21:47:00,
2013-09-22 14:48:00,86.2,24.9,29.18,WSW,256,11.6,15.2,10,-99.99,,,0.00,706,rob ver 1A,2013-09-22 21:48:00,
2013-09-22 14:49:00,92.9,27.8,29.29,NNW,333,1.9,3.1,9,-99.99,,,0.00,689.7,rob ver 1B,2013-09-22 21:49:00,
2013-09-22 14:50:00,93.3,27.8,29.29,WSW,257,1.1,2.6,9,-99.99,,,0.00,686.7,rob ver 1B,2013-09-22 21:50:00,
2013-09-22 14:51:00,93.8,27.8,29.29,SE,131,2.8,4.5,9,-99.99,,,0.00,684.8,rob ver 1B,2013-09-22 21:51:00,
2013-09-22 14:52:00,93.6,27.6,29.29,ESE,116,2.6,4.9,9,-99.99,,,0.00,683.1,rob ver 1B,2013-09-22 21:52:00,
2013-09-22 14:53:00,86.9,22.9,29.18,West,275,15.7,19.4,9,-99.99,,,0.00,697.5,rob ver 1A,2013-09-22 21:53:00,
2013-09-22 14:54:00,93.8,27.9,29.29,South,184,1.7,3.3,9,-99.99,,,0.00,678.6,rob ver 1B,2013-09-22 21:54:00,
2013-09-22 14:55:00,94.2,28.2,29.29,WSW,255,4.4,9.4,9,-99.99,,,0.00,676.3,rob ver 1B,2013-09-22 21:55:00,
2013-09-22 14:56:00,94.4,28.1,29.29,SW,235,5.4,8.5,9,-99.99,,,0.00,674.9,rob ver 1B,2013-09-22 21:56:00,
2013-09-22 14:57:00,94.2,27.9,29.29,WSW,257,8.1,9.7,9,-99.99,,,0.00,671.7,rob ver 1B,2013-09-22 21:57:00,
2013-09-22 14:58:00,86.1,23.8,29.18,West,268,11.7,16.2,10,-99.99,,,0.00,680.3,rob ver 1A,2013-09-22 21:58:00,
2013-09-22 14:59:00,93.5,27.9,29.29,West,275,4.2,7.3,9,-99.99,,,0.00,667,rob ver 1B,2013-09-22 21:59:00,
2013-09-22 15:00:00,93.2,28.2,29.29,NW,308,5.4,8.9,9,-99.99,,,0.00,664.3,rob ver 1B,2013-09-22 22:00:00,
2013-09-22 15:01:00,93.1,28.0,29.29,WNW,284,6.6,9.3,9,-99.99,,,0.00,662.5,rob ver 1B,2013-09-22 22:01:00,
2013-09-22 15:02:00,93.0,28.1,29.29,West,281,5.9,9.2,9,-99.99,,,0.00,659.5,rob ver 1B,2013-09-22 22:02:00,
2013-09-22 15:03:00,86.5,24.4,29.18,WNW,289,15.2,18.0,10,-99.99,,,0.00,665.5,rob ver 1A,2013-09-22 22:03:00,
2013-09-22 15:04:00,93.2,28.0,29.29,WNW,291,6.5,9.2,9,-99.99,,,0.00,654.8,rob ver 1B,2013-09-22 22:04:00,
2013-09-22 15:05:00,93.1,27.7,29.29,NW,305,3.1,4.9,9,-99.99,,,0.00,652,rob ver 1B,2013-09-22 22:05:00,
2013-09-22 15:06:00,93.1,27.7,29.29,NNE,17,3.1,5.8,9,-99.99,,,0.00,650.1,rob ver 1B,2013-09-22 22:06:00,
2013-09-22 15:07:00,93.0,27.8,29.29,NNE,31,2.9,5.1,9,-99.99,,,0.00,647.5,rob ver 1B,2013-09-22 22:07:00,
2013-09-22 15:08:00,86.2,23.8,29.18,West,280,15.8,22.1,10,-99.99,,,0.00,655,rob ver 1A,2013-09-22 22:08:00,
2013-09-22 15:09:00,93.4,27.9,29.29,NW,304,4.8,5.9,9,-99.99,,,0.00,641.4,rob ver 1B,2013-09-22 22:09:00,
2013-09-22 15:10:00,93.3,28.0,29.29,NW,314,4.4,6.6,9,-99.99,,,0.00,638.9,rob ver 1B,2013-09-22 22:10:00,
2013-09-22 15:11:00,93.4,27.8,29.29,WSW,254,4.0,6.0,9,-99.99,,,0.00,636.3,rob ver 1B,2013-09-22 22:11:00,
2013-09-22 15:12:00,93.5,27.9,29.29,West,274,3.0,4.3,9,-99.99,,,0.00,634.2,rob ver 1B,2013-09-22 22:12:00,
2013-09-22 15:13:00,93.7,28.0,29.29,SW,235,3.3,7.1,9,-99.99,,,0.00,631,rob ver 1B,2013-09-22 22:13:00,
2013-09-22 15:14:00,86.9,24.6,29.18,West,275,15.2,18.9,10,-99.99,,,0.00,639.1,rob ver 1A,2013-09-22 22:14:00,
2013-09-22 15:15:00,94.1,27.9,29.29,SSW,213,3.6,4.7,9,-99.99,,,0.00,624.8,rob ver 1B,2013-09-22 22:15:00,
2013-09-22 15:16:00,94.2,28.1,29.29,SW,220,4.1,6.7,9,-99.99,,,0.00,622,rob ver 1B,2013-09-22 22:16:00,
2013-09-22 15:17:00,94.2,28.0,29.29,SSW,212,6.4,10.3,9,-99.99,,,0.00,619.2,rob ver 1B,2013-09-22 22:17:00,
2013-09-22 15:18:00,94.2,28.0,29.29,SW,221,8.5,10.2,9,-99.99,,,0.00,616.9,rob ver 1B,2013-09-22 22:18:00,
2013-09-22 15:19:00,86.8,23.6,29.18,West,274,13.7,18.9,9,-99.99,,,0.00,627.9,rob ver 1A,2013-09-22 22:19:00,
2013-09-22 15:20:00,93.8,27.9,29.29,South,184,4.4,7.5,9,-99.99,,,0.00,610.8,rob ver 1B,2013-09-22 22:20:00,
2013-09-22 15:21:00,93.8,27.9,29.29,SSE,151,4.0,7.1,9,-99.99,,,0.00,608.8,rob ver 1B,2013-09-22 22:21:00,
2013-09-22 15:22:00,93.7,27.8,29.29,SE,143,3.3,6.1,9,-99.99,,,0.00,605.7,rob ver 1B,2013-09-22 22:22:00,
2013-09-22 15:23:00,93.5,28.0,29.29,SE,140,4.5,7.9,9,-99.99,,,0.00,603.8,rob ver 1B,2013-09-22 22:23:00,
2013-09-22 15:24:00,86.8,24.4,29.18,West,276,17.8,22.4,10,-99.99,,,0.00,614.6,rob ver 1A,2013-09-22 22:24:00,
2013-09-22 15:25:00,93.6,28.0,29.29,SE,146,4.8,6.2,9,-99.99,,,0.00,597.7,rob ver 1B,2013-09-22 22:25:00,
2013-09-22 15:26:00,93.5,27.8,29.29,ESE,112,4.3,6.3,9,-99.99,,,0.00,595.1,rob ver 1B,2013-09-22 22:26:00,
2013-09-22 15:27:00,93.2,27.8,29.29,ESE,117,3.1,4.9,9,-99.99,,,0.00,592.1,rob ver 1B,2013-09-22 22:27:00,
2013-09-22 15:28:00,93.2,27.9,29.29,SE,139,2.9,4.4,9,-99.99,,,0.00,589.8,rob ver 1B,2013-09-22 22:28:00,
2013-09-22 15:29:00,86.6,24.7,29.18,West,268,11.7,15.7,10,-99.99,,,0.00,598.1,rob ver 1A,2013-09-22 22:29:00,
2013-09-22 15:30:00,93.5,28.0,29.29,ESE,106,1.5,3.2,9,-99.99,,,0.00,584.6,rob ver 1B,2013-09-22 22:30:00,
2013-09-22 15:31:00,94.0,28.2,29.29,South,191,1.7,2.9,9,-99.99,,,0.00,581.8,rob ver 1B,2013-09-22 22:31:00,
2013-09-22 15:32:00,94.4,28.0,29.29,SW,223,3.5,4.3,9,-99.99,,,0.00,577.3,rob ver 1B,2013-09-22 22:32:00,
2013-09-22 15:33:00,94.6,28.1,29.29,South,172,3.8,4.7,9,-99.99,,,0.00,575,rob ver 1B,2013-09-22 22:33:00,
2013-09-22 15:34:00,86.6,25.7,29.18,WNW,301,13.6,16.7,10,-99.99,,,0.00,581.8,rob ver 1A,2013-09-22 22:34:00,
2013-09-22 15:35:00,94.5,28.2,29.29,SSW,202,4.6,7.1,9,-99.99,,,0.00,569.6,rob ver 1B,2013-09-22 22:35:00,
2013-09-22 15:36:00,94.4,28.6,29.29,WSW,241,5.1,8.4,9,-99.99,,,0.00,566.1,rob ver 1B,2013-09-22 22:36:00,
2013-09-22 15:37:00,94.1,28.6,29.29,SW,220,4.5,8.1,9,-99.99,,,0.00,563.5,rob ver 1B,2013-09-22 22:37:00,
2013-09-22 15:38:00,94.0,28.7,29.29,SSW,192,4.7,8.9,9,-99.99,,,0.00,560.3,rob ver 1B,2013-09-22 22:38:00,
2013-09-22 15:39:00,86.6,25.8,29.18,WNW,285,11.3,14.2,10,-99.99,,,0.00,566.3,rob ver 1A,2013-09-22 22:39:00,
2013-09-22 15:40:00,94.0,28.8,29.29,SSE,159,3.5,5.8,9,-99.99,,,0.00,554.2,rob ver 1B,2013-09-22 22:40:00,
2013-09-22 15:41:00,93.9,28.8,29.29,SSE,162,4.6,5.9,9,-99.99,,,0.00,552.3,rob ver 1B,2013-09-22 22:41:00,
2013-09-22 15:42:00,93.8,28.8,29.29,SSE,156,3.9,6.2,9,-99.99,,,0.00,549,rob ver 1B,2013-09-22 22:42:00,
2013-09-22 15:43:00,93.8,28.9,29.29,South,170,5.8,7.4,10,-99.99,,,0.00,545.7,rob ver 1B,2013-09-22 22:43:00,
2013-09-22 15:44:00,87.1,24.9,29.18,West,270,15.3,19.8,10,-99.99,,,0.00,550.1,rob ver 1A,2013-09-22 22:44:00,
2013-09-22 15:45:00,94.0,28.6,29.29,SSW,193,5.2,7.0,9,-99.99,,,0.00,540.2,rob ver 1B,2013-09-22 22:45:00,
2013-09-22 15:46:00,94.1,28.8,29.29,SW,221,8.2,13.2,9,-99.99,,,0.00,537.1,rob ver 1B,2013-09-22 22:46:00,
2013-09-22 15:47:00,94.1,28.7,29.29,WSW,245,7.3,11.5,9,-99.99,,,0.00,534.5,rob ver 1B,2013-09-22 22:47:00,
2013-09-22 15:48:00,94.1,28.8,29.29,WSW,241,7.1,8.7,9,-99.99,,,0.00,531.2,rob ver 1B,2013-09-22 22:48:00,
2013-09-22 15:49:00,86.8,25.4,29.18,West,262,13.3,16.6,10,-99.99,,,0.00,533.2,rob ver 1A,2013-09-22 22:49:00,
2013-09-22 15:50:00,94.0,28.7,29.26,SW,236,7.1,8.2,9,-99.99,,,0.00,525.9,rob ver 1B,2013-09-22 22:50:00,
2013-09-22 15:51:00,94.0,28.8,29.26,WNW,293,6.5,8.3,9,-99.99,,,0.00,523.3,rob ver 1B,2013-09-22 22:51:00,
2013-09-22 15:52:00,93.8,28.6,29.29,NW,313,6.9,8.3,9,-99.99,,,0.00,519.5,rob ver 1B,2013-09-22 22:52:00,
2013-09-22 15:53:00,93.6,28.8,29.29,NW,314,4.4,6.2,9,-99.99,,,0.00,516.4,rob ver 1B,2013-09-22 22:53:00,
2013-09-22 15:54:00,86.8,25.7,29.18,West,279,13.6,20.6,10,-99.99,,,0.00,517.7,rob ver 1A,2013-09-22 22:54:00,
2013-09-22 15:55:00,93.9,29.2,29.26,NW,317,3.9,6.2,10,-99.99,,,0.00,510.4,rob ver 1B,2013-09-22 22:55:00,
2013-09-22 15:56:00,93.9,29.0,29.26,NNW,341,5.0,6.8,9,-99.99,,,0.00,506,rob ver 1B,2013-09-22 22:56:00,
2013-09-22 15:57:00,94.0,28.7,29.26,North,1,2.9,4.0,9,-99.99,,,0.00,502.7,rob ver 1B,2013-09-22 22:57:00,
2013-09-22 15:58:00,94.1,28.6,29.29,NNE,26,2.4,4.0,9,-99.99,,,0.00,499.5,rob ver 1B,2013-09-22 22:58:00,
2013-09-22 15:59:00,87.2,25.6,29.18,West,272,12.5,17.4,10,-99.99,,,0.00,503.7,rob ver 1A,2013-09-22 22:59:00,
2013-09-22 16:00:00,94.0,28.6,29.26,NE,41,5.0,7.7,9,-99.99,,,0.00,494.3,rob ver 1B,2013-09-22 23:00:00,
2013-09-22 16:01:00,93.6,28.5,29.26,NE,40,4.1,7.4,9,-99.99,,,0.00,490.8,rob ver 1B,2013-09-22 23:01:00,
2013-09-22 16:02:00,93.6,28.6,29.26,East,82,5.0,6.8,9,-99.99,,,0.00,487.4,rob ver 1B,2013-09-22 23:02:00,
2013-09-22 16:03:00,93.5,28.6,29.26,East,94,3.3,4.4,9,-99.99,,,0.00,484.2,rob ver 1B,2013-09-22 23:03:00,
2013-09-22 16:04:00,86.8,24.9,29.18,WNW,293,6.7,9.0,10,-99.99,,,0.00,489.2,rob ver 1A,2013-09-22 23:04:00,
2013-09-22 16:05:00,93.6,28.7,29.26,SE,131,3.7,6.6,9,-99.99,,,0.00,477.8,rob ver 1B,2013-09-22 23:05:00,
2013-09-22 16:06:00,93.8,29.0,29.26,SSE,154,5.5,7.9,10,-99.99,,,0.00,475.2,rob ver 1B,2013-09-22 23:06:00,
2013-09-22 16:07:00,94.0,29.0,29.26,SSW,196,6.7,8.5,9,-99.99,,,0.00,472,rob ver 1B,2013-09-22 23:07:00,
2013-09-22 16:08:00,94.2,29.0,29.26,South,186,5.1,6.6,9,-99.99,,,0.00,468.6,rob ver 1B,2013-09-22 23:08:00,
2013-09-22 16:09:00,94.3,29.0,29.26,South,179,5.4,7.6,9,-99.99,,,0.00,464.8,rob ver 1B,2013-09-22 23:09:00,
2013-09-22 16:10:00,87.1,23.4,29.15,WNW,283,14.3,18.7,9,-99.99,,,0.00,472,rob ver 1A,2013-09-22 23:10:00,
2013-09-22 16:11:00,94.4,29.0,29.26,SSW,198,6.1,7.2,9,-99.99,,,0.00,459.2,rob ver 1B,2013-09-22 23:11:00,
2013-09-22 16:12:00,94.5,29.1,29.26,SSW,213,5.0,10.0,9,-99.99,,,0.00,456.2,rob ver 1B,2013-09-22 23:12:00,
2013-09-22 16:13:00,94.4,29.3,29.26,West,265,7.6,9.3,10,-99.99,,,0.00,452.3,rob ver 1B,2013-09-22 23:13:00,
2013-09-22 16:14:00,94.2,29.4,29.26,West,264,5.7,7.7,10,-99.99,,,0.00,448.3,rob ver 1B,2013-09-22 23:14:00,
2013-09-22 16:15:00,87.2,23.3,29.15,West,272,13.7,16.6,9,-99.99,,,0.00,457.5,rob ver 1A,2013-09-22 23:15:00,
2013-09-22 16:16:00,94.1,29.5,29.26,West,275,4.1,7.2,10,-99.99,,,0.00,442.2,rob ver 1B,2013-09-22 23:16:00,
2013-09-22 16:17:00,94.1,30.0,29.26,NNW,332,4.1,5.4,10,-99.99,,,0.00,439.1,rob ver 1B,2013-09-22 23:17:00,
2013-09-22 16:18:00,94.2,30.0,29.26,WNW,303,4.1,6.7,10,-99.99,,,0.00,435.3,rob ver 1B,2013-09-22 23:18:00,
2013-09-22 16:19:00,94.4,29.8,29.26,West,268,6.0,9.0,10,-99.99,,,0.00,431.8,rob ver 1B,2013-09-22 23:19:00,
2013-09-22 16:20:00,87.0,23.9,29.15,West,267,16.6,20.8,9,-99.99,,,0.00,433.6,rob ver 1A,2013-09-22 23:20:00,
2013-09-22 16:21:00,94.3,29.9,29.26,WSW,251,5.7,10.7,10,-99.99,,,0.00,425.2,rob ver 1B,2013-09-22 23:21:00,
2013-09-22 16:22:00,94.3,29.8,29.26,West,261,7.5,11.9,10,-99.99,,,0.00,421.1,rob ver 1B,2013-09-22 23:22:00,
2013-09-22 16:23:00,94.2,29.7,29.26,WSW,257,5.5,7.2,10,-99.99,,,0.00,417.5,rob ver 1B,2013-09-22 23:23:00,
2013-09-22 16:24:00,94.0,30.0,29.26,West,281,4.0,5.4,10,-99.99,,,0.00,413.9,rob ver 1B,2013-09-22 23:24:00,
2013-09-22 16:25:00,87.3,24.8,29.18,WNW,296,12.8,16.3,10,-99.99,,,0.00,417.3,rob ver 1A,2013-09-22 23:25:00,
2013-09-22 16:26:00,94.3,29.8,29.26,SW,228,4.6,6.2,10,-99.99,,,0.00,406.5,rob ver 1B,2013-09-22 23:26:00,
2013-09-22 16:27:00,94.3,29.9,29.26,SW,223,4.3,7.3,10,-99.99,,,0.00,403.3,rob ver 1B,2013-09-22 23:27:00,
2013-09-22 16:28:00,94.3,29.8,29.26,SW,228,3.5,6.5,10,-99.99,,,0.00,400.5,rob ver 1B,2013-09-22 23:28:00,
2013-09-22 16:29:00,94.3,29.8,29.26,West,275,2.9,3.9,10,-99.99,,,0.00,396.9,rob ver 1B,2013-09-22 23:29:00,
2013-09-22 16:30:00,87.0,25.7,29.18,WSW,256,11.0,15.3,10,-99.99,,,0.00,393.7,rob ver 1A,2013-09-22 23:30:00,
2013-09-22 16:31:00,94.6,29.6,29.26,WSW,253,10.7,14.0,9,-99.99,,,0.00,390.8,rob ver 1B,2013-09-22 23:31:00,
2013-09-22 16:32:00,94.4,29.2,29.26,SW,224,10.1,12.7,10,-99.99,,,0.00,386.9,rob ver 1B,2013-09-22 23:32:00,
2013-09-22 16:33:00,94.1,29.5,29.26,SW,234,8.0,10.4,10,-99.99,,,0.00,383.6,rob ver 1B,2013-09-22 23:33:00,
2013-09-22 16:34:00,94.1,29.6,29.26,WSW,244,7.6,10.3,10,-99.99,,,0.00,379.3,rob ver 1B,2013-09-22 23:34:00,
2013-09-22 16:35:00,87.5,25.2,29.18,West,274,13.6,17.6,10,-99.99,,,0.00,378.7,rob ver 1A,2013-09-22 23:35:00,
2013-09-22 16:36:00,94.4,29.6,29.26,SW,217,7.5,9.4,10,-99.99,,,0.00,373.5,rob ver 1B,2013-09-22 23:36:00,
2013-09-22 16:37:00,94.5,30.0,29.26,WSW,239,10.4,12.3,10,-99.99,,,0.00,369.6,rob ver 1B,2013-09-22 23:37:00,
2013-09-22 16:38:00,94.3,29.9,29.26,SW,236,7.3,9.7,10,-99.99,,,0.00,366.4,rob ver 1B,2013-09-22 23:38:00,
2013-09-22 16:39:00,94.2,30.0,29.26,SW,229,4.4,7.6,10,-99.99,,,0.00,362.1,rob ver 1B,2013-09-22 23:39:00,
2013-09-22 16:40:00,87.3,24.3,29.18,West,269,14.2,17.0,10,-99.99,,,0.00,364.6,rob ver 1A,2013-09-22 23:40:00,
2013-09-22 16:41:00,94.2,29.9,29.26,SW,223,7.5,12.5,10,-99.99,,,0.00,355.2,rob ver 1B,2013-09-22 23:41:00,
2013-09-22 16:42:00,94.1,29.8,29.26,SW,229,5.1,7.5,10,-99.99,,,0.00,351.8,rob ver 1B,2013-09-22 23:42:00,
2013-09-22 16:43:00,94.0,30.0,29.26,SW,233,7.5,9.6,10,-99.99,,,0.00,348.1,rob ver 1B,2013-09-22 23:43:00,
2013-09-22 16:44:00,94.1,29.8,29.26,SW,225,7.2,9.8,10,-99.99,,,0.00,344.7,rob ver 1B,2013-09-22 23:44:00,
2013-09-22 16:45:00,87.2,24.4,29.15,West,270,11.9,15.5,10,-99.99,,,0.00,347.7,rob ver 1A,2013-09-22 23:45:00,
2013-09-22 16:46:00,94.1,29.8,29.26,SSW,207,7.3,10.2,10,-99.99,,,0.00,337.9,rob ver 1B,2013-09-22 23:46:00,
2013-09-22 16:47:00,94.2,29.8,29.26,SSW,200,6.9,8.1,10,-99.99,,,0.00,334.8,rob ver 1B,2013-09-22 23:47:00,
2013-09-22 16:48:00,94.2,29.9,29.26,SSW,194,6.5,8.3,10,-99.99,,,0.00,330.8,rob ver 1B,2013-09-22 23:48:00,
2013-09-22 16:49:00,94.3,30.0,29.26,SW,222,4.9,8.8,10,-99.99,,,0.00,327.2,rob ver 1B,2013-09-22 23:49:00,
2013-09-22 16:50:00,87.2,24.3,29.18,West,276,14.3,18.7,10,-99.99,,,0.00,330.6,rob ver 1A,2013-09-22 23:50:00,
2013-09-22 16:51:00,94.5,30.0,29.26,WSW,247,3.7,5.6,10,-99.99,,,0.00,319.8,rob ver 1B,2013-09-22 23:51:00,
2013-09-22 16:52:00,94.5,29.9,29.26,West,263,3.9,5.1,10,-99.99,,,0.00,316.2,rob ver 1B,2013-09-22 23:52:00,
2013-09-22 16:53:00,94.5,30.1,29.26,SW,225,5.2,6.9,10,-99.99,,,0.00,314,rob ver 1B,2013-09-22 23:53:00,
2013-09-22 16:54:00,94.7,30.1,29.26,SW,214,8.0,10.9,10,-99.99,,,0.00,309.9,rob ver 1B,2013-09-22 23:54:00,
2013-09-22 16:55:00,87.4,24.5,29.15,West,279,15.9,21.7,9,-99.99,,,0.00,311,rob ver 1A,2013-09-22 23:55:00,
2013-09-22 16:56:00,94.5,30.0,29.26,SW,229,9.5,11.5,10,-99.99,,,0.00,302.5,rob ver 1B,2013-09-22 23:56:00,
2013-09-22 16:57:00,94.3,30.0,29.26,SW,224,8.0,9.6,10,-99.99,,,0.00,299,rob ver 1B,2013-09-22 23:57:00,
2013-09-22 16:58:00,94.3,29.9,29.26,SW,224,9.1,10.6,10,-99.99,,,0.00,295.9,rob ver 1B,2013-09-22 23:58:00,
2013-09-22 16:59:00,94.2,29.9,29.26,SW,234,6.4,9.1,10,-99.99,,,0.00,292,rob ver 1B,2013-09-22 23:59:00,
2013-09-22 17:00:00,87.0,22.9,29.15,West,277,15.2,18.7,9,-99.99,,,0.00,296.7,rob ver 1A,2013-09-23 00:00:00,
2013-09-22 17:01:00,94.1,30.1,29.26,SW,223,4.5,6.2,10,-99.99,,,0.00,284.7,rob ver 1B,2013-09-23 00:01:00,
2013-09-22 17:02:00,94.2,30.2,29.26,SW,222,3.3,4.9,10,-99.99,,,0.00,281.1,rob ver 1B,2013-09-23 00:02:00,
2013-09-22 17:03:00,94.4,30.0,29.26,SW,218,3.8,4.7,10,-99.99,,,0.00,277.5,rob ver 1B,2013-09-23 00:03:00,
2013-09-22 17:04:00,94.5,30.1,29.26,SW,228,3.2,4.8,10,-99.99,,,0.00,274,rob ver 1B,2013-09-23 00:04:00,
2013-09-22 17:05:00,87.2,21.9,29.18,West,276,15.5,20.3,9,-99.99,,,0.00,276.9,rob ver 1A,2013-09-23 00:05:00,
2013-09-22 17:06:00,94.5,30.2,29.26,WSW,255,7.5,9.3,10,-99.99,,,0.00,266.3,rob ver 1B,2013-09-23 00:06:00,
2013-09-22 17:07:00,94.4,30.1,29.26,West,264,5.8,8.6,10,-99.99,,,0.00,262.8,rob ver 1B,2013-09-23 00:07:00,
2013-09-22 17:08:00,94.3,30.1,29.26,West,264,6.5,8.7,10,-99.99,,,0.00,259.7,rob ver 1B,2013-09-23 00:08:00,
2013-09-22 17:09:00,94.3,30.1,29.26,WSW,239,6.9,8.5,10,-99.99,,,0.00,256.2,rob ver 1B,2013-09-23 00:09:00,
2013-09-22 17:10:00,86.7,23.9,29.18,West,273,17.5,19.6,10,-99.99,,,0.00,257.1,rob ver 1A,2013-09-23 00:10:00,
2013-09-22 17:11:00,94.3,30.0,29.26,SW,216,4.0,4.9,10,-99.99,,,0.00,249.1,rob ver 1B,2013-09-23 00:11:00,
2013-09-22 17:12:00,94.4,30.2,29.26,SW,234,5.3,7.9,10,-99.99,,,0.00,245.3,rob ver 1B,2013-09-23 00:12:00,
2013-09-22 17:13:00,94.4,30.1,29.26,WSW,258,6.0,7.8,10,-99.99,,,0.00,241.7,rob ver 1B,2013-09-23 00:13:00,
2013-09-22 17:14:00,94.3,30.0,29.26,SW,228,3.3,5.0,10,-99.99,,,0.00,237.9,rob ver 1B,2013-09-23 00:14:00,
2013-09-22 17:15:00,94.3,30.1,29.26,WSW,242,6.0,7.4,10,-99.99,,,0.00,234.6,rob ver 1B,2013-09-23 00:15:00,
2013-09-22 17:16:00,86.5,25.1,29.18,West,276,17.7,21.9,10,-99.99,,,0.00,234.5,rob ver 1A,2013-09-23 00:16:00,
2013-09-22 17:17:00,94.1,30.1,29.26,SW,236,7.7,10.5,10,-99.99,,,0.00,227.7,rob ver 1B,2013-09-23 00:17:00,
2013-09-22 17:18:00,94.0,30.1,29.26,WSW,238,6.6,8.3,10,-99.99,,,0.00,224.7,rob ver 1B,2013-09-23 00:18:00,
2013-09-22 17:19:00,94.0,30.3,29.26,WSW,244,6.5,8.5,10,-99.99,,,0.00,220.8,rob ver 1B,2013-09-23 00:19:00,
2013-09-22 17:20:00,94.1,30.3,29.26,SW,236,6.4,8.1,10,-99.99,,,0.00,218.1,rob ver 1B,2013-09-23 00:20:00,
2013-09-22 17:21:00,86.7,24.8,29.15,West,271,17.4,21.3,10,-99.99,,,0.00,218.9,rob ver 1A,2013-09-23 00:21:00,
2013-09-22 17:22:00,94.2,30.0,29.26,West,268,5.4,6.8,10,-99.99,,,0.00,210.6,rob ver 1B,2013-09-23 00:22:00,
2013-09-22 17:23:00,94.2,29.9,29.26,West,270,4.9,6.0,10,-99.99,,,0.00,207.4,rob ver 1B,2013-09-23 00:23:00,
2013-09-22 17:24:00,94.2,30.0,29.26,WSW,250,5.2,7.9,10,-99.99,,,0.00,204.1,rob ver 1B,2013-09-23 00:24:00,
2013-09-22 17:25:00,94.2,30.0,29.26,SW,226,6.6,8.7,10,-99.99,,,0.00,200.3,rob ver 1B,2013-09-23 00:25:00,
2013-09-22 17:26:00,86.1,26.1,29.18,WNW,285,15.2,17.9,11,-99.99,,,0.00,202.7,rob ver 1A,2013-09-23 00:26:00,
2013-09-22 17:27:00,94.2,30.3,29.26,SSW,200,3.1,4.8,10,-99.99,,,0.00,194.4,rob ver 1B,2013-09-23 00:27:00,
2013-09-22 17:28:00,94.3,30.2,29.26,SW,217,6.1,7.9,10,-99.99,,,0.00,190.5,rob ver 1B,2013-09-23 00:28:00,
2013-09-22 17:29:00,94.3,30.1,29.26,WSW,238,5.2,7.0,10,-99.99,,,0.00,186.5,rob ver 1B,2013-09-23 00:29:00,
2013-09-22 17:30:00,94.4,30.3,29.26,SW,234,3.7,4.5,10,-99.99,,,0.00,183.2,rob ver 1B,2013-09-23 00:30:00,
2013-09-22 17:31:00,85.9,26.0,29.18,WNW,289,17.5,23.0,11,-99.99,,,0.00,185.2,rob ver 1A,2013-09-23 00:31:00,
2013-09-22 17:32:00,94.7,30.1,29.26,SSW,199,1.9,3.1,10,-99.99,,,0.00,176.1,rob ver 1B,2013-09-23 00:32:00,
2013-09-22 17:33:00,94.9,30.2,29.26,WSW,241,4.9,5.7,10,-99.99,,,0.00,173,rob ver 1B,2013-09-23 00:33:00,
2013-09-22 17:34:00,94.7,30.2,29.26,WSW,252,4.1,5.4,10,-99.99,,,0.00,169.7,rob ver 1B,2013-09-23 00:34:00,
2013-09-22 17:35:00,94.6,30.4,29.26,West,278,4.4,5.5,10,-99.99,,,0.00,166.2,rob ver 1B,2013-09-23 00:35:00,
2013-09-22 17:36:00,85.8,26.4,29.18,WNW,283,16.4,20.7,11,-99.99,,,0.00,169.8,rob ver 1A,2013-09-23 00:36:00,
2013-09-22 17:37:00,94.4,30.0,29.26,West,280,5.1,5.8,10,-99.99,,,0.00,160.1,rob ver 1B,2013-09-23 00:37:00,
2013-09-22 17:38:00,94.3,29.9,29.26,West,268,4.1,6.0,10,-99.99,,,0.00,156.7,rob ver 1B,2013-09-23 00:38:00,
2013-09-22 17:39:00,94.2,30.1,29.26,West,268,5.5,6.5,10,-99.99,,,0.00,153.6,rob ver 1B,2013-09-23 00:39:00,
2013-09-22 17:40:00,94.2,30.4,29.26,WNW,285,5.9,7.2,10,-99.99,,,0.00,150.3,rob ver 1B,2013-09-23 00:40:00,
2013-09-22 17:41:00,86.1,26.1,29.18,West,278,14.5,17.3,11,-99.99,,,0.00,152,rob ver 1A,2013-09-23 00:41:00,
2013-09-22 17:42:00,94.2,30.1,29.26,West,276,6.2,8.0,10,-99.99,,,0.00,143.7,rob ver 1B,2013-09-23 00:42:00,
2013-09-22 17:43:00,94.2,30.2,29.26,WNW,282,4.4,6.0,10,-99.99,,,0.00,140.4,rob ver 1B,2013-09-23 00:43:00,
2013-09-22 17:44:00,94.2,30.5,29.26,NW,304,3.7,5.3,10,-99.99,,,0.00,137.1,rob ver 1B,2013-09-23 00:44:00,
2013-09-22 17:45:00,94.1,30.3,29.26,NW,326,6.6,8.7,9,-99.99,,,0.00,133.8,rob ver 1B,2013-09-23 00:45:00,
2013-09-22 17:46:00,85.5,25.7,29.18,WNW,284,16.6,20.0,11,-99.99,,,0.00,136.6,rob ver 1A,2013-09-23 00:46:00,
2013-09-22 17:47:00,93.8,29.4,29.26,NW,322,5.3,6.8,10,-99.99,,,0.00,127.4,rob ver 1B,2013-09-23 00:47:00,
2013-09-22 17:48:00,93.8,29.8,29.26,NW,315,8.3,10.4,10,-99.99,,,0.00,124.4,rob ver 1B,2013-09-23 00:48:00,
2013-09-22 17:49:00,93.6,29.7,29.26,NW,321,7.2,8.6,10,-99.99,,,0.00,121.3,rob ver 1B,2013-09-23 00:49:00,
2013-09-22 17:50:00,93.5,29.5,29.26,NNW,347,6.1,7.2,10,-99.99,,,0.00,118.3,rob ver 1B,2013-09-23 00:50:00,
2013-09-22 17:51:00,93.6,29.9,29.26,NNW,341,5.2,7.4,10,-99.99,,,0.00,115.3,rob ver 1B,2013-09-23 00:51:00,
2013-09-22 17:52:00,85.5,25.1,29.18,West,281,18.0,21.7,10,-99.99,,,0.00,118.2,rob ver 1A,2013-09-23 00:52:00,
2013-09-22 17:53:00,93.5,30.6,29.26,NW,317,6.6,8.1,10,-99.99,,,0.00,109.4,rob ver 1B,2013-09-23 00:53:00,
2013-09-22 17:54:00,93.5,30.4,29.26,NW,305,5.7,6.5,10,-99.99,,,0.00,106.4,rob ver 1B,2013-09-23 00:54:00,
2013-09-22 17:55:00,93.5,30.7,29.26,WNW,294,5.9,7.3,10,-99.99,,,0.00,103,rob ver 1B,2013-09-23 00:55:00,
2013-09-22 17:56:00,93.6,30.4,29.26,WNW,285,6.1,7.5,10,-99.99,,,0.00,100.2,rob ver 1B,2013-09-23 00:56:00,
2013-09-22 17:57:00,85.1,24.7,29.18,West,280,16.9,21.1,10,-99.99,,,0.00,101.7,rob ver 1A,2013-09-23 00:57:00,
2013-09-22 17:58:00,93.6,30.7,29.26,WNW,294,5.3,8.3,10,-99.99,,,0.00,94.6,rob ver 1B,2013-09-23 00:58:00,
2013-09-22 17:59:00,93.6,30.6,29.26,WNW,299,6.6,9.2,10,-99.99,,,0.00,91.3,rob ver 1B,2013-09-23 00:59:00,
2013-09-22 18:00:00,93.5,30.8,29.26,WNW,292,4.8,5.7,10,-99.99,,,0.00,88.6,rob ver 1B,2013-09-23 01:00:00,
2013-09-22 18:01:00,93.5,30.7,29.26,West,279,4.0,6.0,10,-99.99,,,0.00,85.5,rob ver 1B,2013-09-23 01:01:00,
2013-09-22 18:02:00,84.9,24.5,29.18,West,277,15.6,17.4,10,-99.99,,,0.00,83.4,rob ver 1A,2013-09-23 01:02:00,
2013-09-22 18:03:00,93.5,30.9,29.26,WNW,293,5.0,6.1,10,-99.99,,,0.00,80.1,rob ver 1B,2013-09-23 01:03:00,
2013-09-22 18:04:00,93.5,30.7,29.26,WNW,287,5.3,6.4,10,-99.99,,,0.00,77.4,rob ver 1B,2013-09-23 01:04:00,
2013-09-22 18:05:00,93.4,30.8,29.26,WNW,293,5.6,6.4,10,-99.99,,,0.00,74.8,rob ver 1B,2013-09-23 01:05:00,
2013-09-22 18:06:00,93.4,30.7,29.26,WNW,296,5.0,6.2,11,-99.99,,,0.00,72.2,rob ver 1B,2013-09-23 01:06:00,
2013-09-22 18:07:00,84.8,24.3,29.18,West,278,13.8,17.2,10,-99.99,,,0.00,68.89,rob ver 1A,2013-09-23 01:07:00,
2013-09-22 18:08:00,93.3,30.8,29.26,NW,316,5.6,6.6,10,-99.99,,,0.00,66.24,rob ver 1B,2013-09-23 01:08:00,
2013-09-22 18:09:00,93.1,30.7,29.26,NNW,339,6.0,7.5,10,-99.99,,,0.00,63.6,rob ver 1B,2013-09-23 01:09:00,
2013-09-22 18:10:00,93.0,30.4,29.26,NW,325,6.0,7.4,10,-99.99,,,0.00,60.96,rob ver 1B,2013-09-23 01:10:00,
2013-09-22 18:11:00,92.9,30.3,29.26,NW,324,5.5,6.6,10,-99.99,,,0.00,58.33,rob ver 1B,2013-09-23 01:11:00,
2013-09-22 18:12:00,84.6,22.6,29.18,WNW,284,14.3,17.3,10,-99.99,,,0.00,51.09,rob ver 1A,2013-09-23 01:12:00,
2013-09-22 18:13:00,92.7,30.5,29.26,NW,322,4.8,6.0,10,-99.99,,,0.00,52.73,rob ver 1B,2013-09-23 01:13:00,
2013-09-22 18:14:00,92.7,30.7,29.26,NW,319,4.4,5.9,11,-99.99,,,0.00,49.76,rob ver 1B,2013-09-23 01:14:00,
2013-09-22 18:15:00,92.6,30.9,29.26,NW,322,4.4,5.1,11,-99.99,,,0.00,47.45,rob ver 1B,2013-09-23 01:15:00,
2013-09-22 18:16:00,92.5,30.7,29.26,NW,324,4.3,5.3,11,-99.99,,,0.00,44.65,rob ver 1B,2013-09-23 01:16:00,
2013-09-22 18:17:00,84.3,23.5,29.18,West,276,13.8,15.9,10,-99.99,,,0.00,37.25,rob ver 1A,2013-09-23 01:17:00,
2013-09-22 18:18:00,92.5,30.2,29.26,WNW,300,4.8,5.9,10,-99.99,,,0.00,39.22,rob ver 1B,2013-09-23 01:18:00,
2013-09-22 18:19:00,92.6,30.2,29.26,NW,307,4.5,5.6,10,-99.99,,,0.00,36.58,rob ver 1B,2013-09-23 01:19:00,
2013-09-22 18:20:00,92.6,30.1,29.26,NW,309,3.7,4.2,10,-99.99,,,0.00,34.27,rob ver 1B,2013-09-23 01:20:00,
2013-09-22 18:21:00,92.6,30.6,29.26,NW,309,3.0,3.8,11,-99.99,,,0.00,31.97,rob ver 1B,2013-09-23 01:21:00,
2013-09-22 18:22:00,84.1,23.6,29.18,West,279,13.0,16.1,10,-99.99,,,0.00,24.39,rob ver 1A,2013-09-23 01:22:00,
2013-09-22 18:23:00,92.4,30.4,29.26,NW,312,4.5,5.4,10,-99.99,,,0.00,26.86,rob ver 1B,2013-09-23 01:23:00,
2013-09-22 18:24:00,92.3,30.5,29.26,NW,313,4.3,4.8,11,-99.99,,,0.00,24.72,rob ver 1B,2013-09-23 01:24:00,
2013-09-22 18:25:00,92.1,30.8,29.26,NW,311,4.6,5.7,11,-99.99,,,0.00,22.24,rob ver 1B,2013-09-23 01:25:00,
2013-09-22 18:26:00,92.0,31.1,29.26,WNW,302,4.2,5.4,11,-99.99,,,0.00,20.1,rob ver 1B,2013-09-23 01:26:00,
2013-09-22 18:27:00,83.8,23.7,29.18,WNW,283,9.5,11.0,10,-99.99,,,0.00,14.01,rob ver 1A,2013-09-23 01:27:00,
2013-09-22 18:28:00,91.9,30.9,29.26,WNW,291,4.9,5.8,11,-99.99,,,0.00,15.49,rob ver 1B,2013-09-23 01:28:00,
2013-09-22 18:29:00,91.8,31.0,29.26,WNW,293,4.1,5.3,11,-99.99,,,0.00,12.85,rob ver 1B,2013-09-23 01:29:00,
2013-09-22 18:30:00,91.8,31.0,29.26,WNW,301,4.5,5.1,11,-99.99,,,0.00,9.56,rob ver 1B,2013-09-23 01:30:00,
2013-09-22 18:31:00,91.7,31.0,29.26,WNW,300,4.1,5.1,11,-99.99,,,0.00,7.09,rob ver 1B,2013-09-23 01:31:00,
2013-09-22 18:32:00,83.4,23.8,29.18,West,275,12.2,14.0,11,-99.99,,,0.00,6.263,rob ver 1A,2013-09-23 01:32:00,
2013-09-22 18:33:00,91.5,31.1,29.26,WNW,294,3.9,4.7,11,-99.99,,,0.00,5.438,rob ver 1B,2013-09-23 01:33:00,
2013-09-22 18:34:00,91.4,31.1,29.26,WNW,292,3.9,5.1,11,-99.99,,,0.00,4.779,rob ver 1B,2013-09-23 01:34:00,
2013-09-22 18:35:00,91.3,31.2,29.26,WNW,295,3.2,4.1,11,-99.99,,,0.00,4.614,rob ver 1B,2013-09-23 01:35:00,
2013-09-22 18:36:00,91.2,31.2,29.26,WNW,299,3.7,4.6,11,-99.99,,,0.00,3.955,rob ver 1B,2013-09-23 01:36:00,
2013-09-22 18:37:00,83.2,24.1,29.18,WNW,283,10.8,13.6,11,-99.99,,,0.00,3.626,rob ver 1A,2013-09-23 01:37:00,
2013-09-22 18:38:00,91.0,31.1,29.26,NW,306,4.2,5.0,11,-99.99,,,0.00,3.296,rob ver 1B,2013-09-23 01:38:00,
2013-09-22 18:39:00,91.0,31.1,29.26,NW,305,4.1,4.7,11,-99.99,,,0.00,2.637,rob ver 1B,2013-09-23 01:39:00,
2013-09-22 18:40:00,90.9,31.3,29.26,WNW,303,3.7,4.5,11,-99.99,,,0.00,2.637,rob ver 1B,2013-09-23 01:40:00,
2013-09-22 18:41:00,90.8,31.2,29.26,WNW,298,3.9,4.5,12,-99.99,,,0.00,1.977,rob ver 1B,2013-09-23 01:41:00,
2013-09-22 18:42:00,82.9,25.0,29.18,WNW,297,8.0,10.0,11,-99.99,,,0.00,1.648,rob ver 1A,2013-09-23 01:42:00,
2013-09-22 18:43:00,90.6,31.3,29.26,WNW,301,3.7,4.0,12,-99.99,,,0.00,1.648,rob ver 1B,2013-09-23 01:43:00,
2013-09-22 18:44:00,90.4,31.4,29.26,WNW,302,3.2,4.1,12,-99.99,,,0.00,1.318,rob ver 1B,2013-09-23 01:44:00,
2013-09-22 18:45:00,90.3,31.5,29.26,WNW,303,3.2,3.7,12,-99.99,,,0.00,1.154,rob ver 1B,2013-09-23 01:45:00,
2013-09-22 18:46:00,90.2,31.3,29.26,WNW,303,3.7,4.9,12,-99.99,,,0.00,.989,rob ver 1B,2013-09-23 01:46:00,
2013-09-22 18:47:00,90.1,31.6,29.29,NW,305,3.6,4.1,12,-99.99,,,0.00,.659,rob ver 1B,2013-09-23 01:47:00,
2013-09-22 18:48:00,82.8,25.8,29.18,WNW,290,9.8,12.9,12,-99.99,,,0.00,.989,rob ver 1A,2013-09-23 01:48:00,
2013-09-22 18:49:00,89.8,31.5,29.26,NW,306,3.6,4.3,12,-99.99,,,0.00,.494,rob ver 1B,2013-09-23 01:49:00,
2013-09-22 18:50:00,89.7,31.6,29.26,NW,307,3.4,4.3,12,-99.99,,,0.00,.33,rob ver 1B,2013-09-23 01:50:00,
2013-09-22 18:51:00,89.6,31.5,29.26,NW,306,3.5,4.3,12,-99.99,,,0.00,.33,rob ver 1B,2013-09-23 01:51:00,
2013-09-22 18:52:00,89.5,31.6,29.26,NW,308,3.5,4.3,12,-99.99,,,0.00,.33,rob ver 1B,2013-09-23 01:52:00,
2013-09-22 18:53:00,82.5,25.8,29.18,WNW,290,8.7,10.9,12,-99.99,,,0.00,.33,rob ver 1A,2013-09-23 01:53:00,
2013-09-22 18:54:00,89.4,31.3,29.26,NW,309,3.6,4.0,12,-99.99,,,0.00,0,rob ver 1B,2013-09-23 01:54:00,
2013-09-22 18:55:00,89.4,31.3,29.29,NW,310,3.8,4.2,12,-99.99,,,0.00,0,rob ver 1B,2013-09-23 01:55:00,
2013-09-22 18:56:00,89.4,31.3,29.29,NW,308,3.8,4.3,12,-99.99,,,0.00,0,rob ver 1B,2013-09-23 01:56:00,
2013-09-22 18:57:00,89.4,31.4,29.26,NW,307,3.5,4.0,12,-99.99,,,0.00,0,rob ver 1B,2013-09-23 01:57:00,
2013-09-22 18:58:00,82.3,25.7,29.18,WNW,293,6.9,8.3,12,-99.99,,,0.00,0,rob ver 1A,2013-09-23 01:58:00,
2013-09-22 18:59:00,89.3,31.5,29.26,NW,307,3.5,4.1,12,-99.99,,,0.00,0,rob ver 1B,2013-09-23 01:59:00,
2013-09-22 19:00:00,89.3,31.6,29.29,WNW,303,3.3,4.0,12,-99.99,,,0.00,0,rob ver 1B,2013-09-23 02:00:00,
2013-09-22 19:01:00,89.2,31.6,29.29,WNW,300,3.4,4.3,12,-99.99,,,0.00,0,rob ver 1B,2013-09-23 02:01:00,
2013-09-22 19:02:00,89.1,31.9,29.29,WNW,300,3.2,3.8,13,-99.99,,,0.00,0,rob ver 1B,2013-09-23 02:02:00,
2013-09-22 19:03:00,82.1,25.7,29.18,WNW,296,5.7,6.7,12,-99.99,,,0.00,0,rob ver 1A,2013-09-23 02:03:00,
2013-09-22 19:04:00,88.8,31.2,29.29,WNW,293,3.9,4.2,12,-99.99,,,0.00,0,rob ver 1B,2013-09-23 02:04:00,
2013-09-22 19:05:00,88.8,31.2,29.29,WNW,291,4.1,4.5,12,-99.99,,,0.00,0,rob ver 1B,2013-09-23 02:05:00,
2013-09-22 19:06:00,88.8,31.5,29.29,WNW,284,4.0,4.4,13,-99.99,,,0.00,0,rob ver 1B,2013-09-23 02:06:00,
2013-09-22 19:07:00,88.6,31.5,29.29,WNW,283,4.1,4.6,12,-99.99,,,0.00,0,rob ver 1B,2013-09-23 02:07:00,
2013-09-22 19:08:00,81.9,25.5,29.18,WNW,300,8.6,11.3,12,-99.99,,,0.00,0,rob ver 1A,2013-09-23 02:08:00,
2013-09-22 19:09:00,88.4,31.4,29.29,WNW,284,4.1,4.8,13,-99.99,,,0.00,0,rob ver 1B,2013-09-23 02:09:00,
2013-09-22 19:10:00,88.4,31.3,29.29,WNW,285,4.3,5.8,12,-99.99,,,0.00,0,rob ver 1B,2013-09-23 02:10:00,
2013-09-22 19:11:00,88.4,31.3,29.29,West,277,4.1,5.1,13,-99.99,,,0.00,0,rob ver 1B,2013-09-23 02:11:00,
2013-09-22 19:12:00,88.3,31.6,29.29,West,260,3.4,4.0,13,-99.99,,,0.00,0,rob ver 1B,2013-09-23 02:12:00,
2013-09-22 19:13:00,81.9,25.6,29.18,NW,306,7.1,8.5,12,-99.99,,,0.00,0,rob ver 1A,2013-09-23 02:13:00,
2013-09-22 19:14:00,87.8,31.7,29.29,West,266,3.2,3.8,13,-99.99,,,0.00,0,rob ver 1B,2013-09-23 02:14:00,
2013-09-22 19:15:00,87.7,31.6,29.29,West,271,3.7,4.4,13,-99.99,,,0.00,0,rob ver 1B,2013-09-23 02:15:00,
2013-09-22 19:16:00,87.5,31.6,29.29,West,262,3.6,4.0,13,-99.99,,,0.00,0,rob ver 1B,2013-09-23 02:16:00,
2013-09-22 19:17:00,87.5,31.6,29.29,WSW,256,3.4,4.0,13,-99.99,,,0.00,0,rob ver 1B,2013-09-23 02:17:00,
2013-09-22 19:18:00,81.5,26.0,29.21,NW,314,5.4,6.7,13,-99.99,,,0.00,0,rob ver 1A,2013-09-23 02:18:00,
2013-09-22 19:19:00,87.2,31.7,29.29,West,259,3.7,4.9,13,-99.99,,,0.00,0,rob ver 1B,2013-09-23 02:19:00,
2013-09-22 19:20:00,87.1,31.7,29.29,West,261,4.0,5.2,13,-99.99,,,0.00,0,rob ver 1B,2013-09-23 02:20:00,
2013-09-22 19:21:00,87.0,31.8,29.29,WSW,256,3.7,4.5,13,-99.99,,,0.00,0,rob ver 1B,2013-09-23 02:21:00,
2013-09-22 19:22:00,87.0,31.9,29.29,WSW,255,3.9,4.7,14,-99.99,,,0.00,0,rob ver 1B,2013-09-23 02:22:00,
2013-09-22 19:23:00,80.9,26.2,29.21,NW,321,4.7,6.4,13,-99.99,,,0.00,0,rob ver 1A,2013-09-23 02:23:00,
2013-09-22 19:24:00,86.7,31.9,29.29,West,259,4.0,4.7,14,-99.99,,,0.00,0,rob ver 1B,2013-09-23 02:24:00,
2013-09-22 19:25:00,86.6,31.9,29.29,WSW,258,4.0,4.8,14,-99.99,,,0.00,0,rob ver 1B,2013-09-23 02:25:00,
2013-09-22 19:26:00,86.6,31.8,29.29,West,260,4.5,5.4,14,-99.99,,,0.00,0,rob ver 1B,2013-09-23 02:26:00,
2013-09-22 19:27:00,86.5,31.8,29.29,West,260,4.4,5.5,14,-99.99,,,0.00,0,rob ver 1B,2013-09-23 02:27:00,
2013-09-22 19:28:00,80.9,26.1,29.21,NNW,328,4.3,5.1,13,-99.99,,,0.00,0,rob ver 1A,2013-09-23 02:28:00,
2013-09-22 19:29:00,86.4,31.8,29.29,West,261,3.5,4.0,14,-99.99,,,0.00,0,rob ver 1B,2013-09-23 02:29:00,
2013-09-22 19:30:00,86.3,31.7,29.29,West,262,3.3,4.3,14,-99.99,,,0.00,0,rob ver 1B,2013-09-23 02:30:00,
2013-09-22 19:31:00,86.3,31.7,29.29,West,259,3.4,4.0,14,-99.99,,,0.00,0,rob ver 1B,2013-09-23 02:31:00,
2013-09-22 19:32:00,86.2,31.8,29.29,West,260,3.5,4.1,14,-99.99,,,0.00,0,rob ver 1B,2013-09-23 02:32:00,
2013-09-22 19:33:00,86.1,31.8,29.29,West,259,3.4,3.7,14,-99.99,,,0.00,0,rob ver 1B,2013-09-23 02:33:00,
2013-09-22 19:34:00,80.7,26.4,29.21,NW,325,4.5,5.3,13,-99.99,,,0.00,0,rob ver 1A,2013-09-23 02:34:00,
2013-09-22 19:35:00,85.9,31.8,29.29,West,260,3.2,3.6,14,-99.99,,,0.00,0,rob ver 1B,2013-09-23 02:35:00,
2013-09-22 19:36:00,85.9,31.7,29.29,West,264,3.6,4.5,14,-99.99,,,0.00,0,rob ver 1B,2013-09-23 02:36:00,
2013-09-22 19:37:00,85.9,31.7,29.29,West,270,3.8,4.7,14,-99.99,,,0.00,0,rob ver 1B,2013-09-23 02:37:00,
2013-09-22 19:38:00,86.0,31.7,29.29,West,273,4.0,4.9,14,-99.99,,,0.00,0,rob ver 1B,2013-09-23 02:38:00,
2013-09-22 19:39:00,80.5,26.5,29.21,NNW,341,3.7,4.3,13,-99.99,,,0.00,0,rob ver 1A,2013-09-23 02:39:00,
2013-09-22 19:40:00,86.0,31.8,29.29,West,278,3.7,4.2,14,-99.99,,,0.00,0,rob ver 1B,2013-09-23 02:40:00,
2013-09-22 19:41:00,85.9,31.9,29.29,West,279,3.8,4.3,14,-99.99,,,0.00,0,rob ver 1B,2013-09-23 02:41:00,
2013-09-22 19:42:00,85.8,31.9,29.29,West,280,3.7,4.2,14,-99.99,,,0.00,0,rob ver 1B,2013-09-23 02:42:00,
2013-09-22 19:43:00,85.7,32.0,29.29,WNW,282,3.8,4.1,14,-99.99,,,0.00,0,rob ver 1B,2013-09-23 02:43:00,
2013-09-22 19:44:00,79.9,26.5,29.21,North,350,3.8,4.0,14,-99.99,,,0.00,0,rob ver 1A,2013-09-23 02:44:00,
2013-09-22 19:45:00,85.5,32.1,29.29,West,280,3.3,3.5,14,-99.99,,,0.00,0,rob ver 1B,2013-09-23 02:45:00,
2013-09-22 19:46:00,85.4,32.1,29.29,West,279,3.1,3.4,14,-99.99,,,0.00,0,rob ver 1B,2013-09-23 02:46:00,
2013-09-22 19:47:00,85.3,32.1,29.29,West,278,3.0,3.4,14,-99.99,,,0.00,0,rob ver 1B,2013-09-23 02:47:00,
2013-09-22 19:48:00,85.2,32.2,29.29,West,278,2.7,3.2,14,-99.99,,,0.00,0,rob ver 1B,2013-09-23 02:48:00,
2013-09-22 19:49:00,79.7,26.6,29.21,NNW,339,3.8,4.3,14,-99.99,,,0.00,0,rob ver 1A,2013-09-23 02:49:00,
2013-09-22 19:50:00,85.0,32.1,29.29,WNW,282,2.6,3.0,15,-99.99,,,0.00,0,rob ver 1B,2013-09-23 02:50:00,
2013-09-22 19:51:00,84.9,32.2,29.29,WNW,282,2.5,3.1,15,-99.99,,,0.00,0,rob ver 1B,2013-09-23 02:51:00,
2013-09-22 19:52:00,84.8,32.1,29.29,West,281,2.7,3.3,15,-99.99,,,0.00,0,rob ver 1B,2013-09-23 02:52:00,
2013-09-22 19:53:00,84.8,32.1,29.29,West,281,2.7,3.1,15,-99.99,,,0.00,0,rob ver 1B,2013-09-23 02:53:00,
2013-09-22 19:54:00,79.4,26.6,29.21,NNW,342,4.2,5.3,14,-99.99,,,0.00,0,rob ver 1A,2013-09-23 02:54:00,
2013-09-22 19:55:00,84.8,32.1,29.29,WNW,286,2.8,3.8,14,-99.99,,,0.00,0,rob ver 1B,2013-09-23 02:55:00,
2013-09-22 19:56:00,84.8,32.0,29.29,WNW,292,2.8,3.2,15,-99.99,,,0.00,0,rob ver 1B,2013-09-23 02:56:00,
2013-09-22 19:57:00,84.8,32.2,29.29,WNW,300,2.3,3.0,15,-99.99,,,0.00,0,rob ver 1B,2013-09-23 02:57:00,
2013-09-22 19:58:00,84.8,32.3,29.29,WNW,294,2.3,3.0,15,-99.99,,,0.00,0,rob ver 1B,2013-09-23 02:58:00,
2013-09-22 19:59:00,79.5,26.2,29.21,NNW,335,4.9,6.1,14,-99.99,,,0.00,0,rob ver 1A,2013-09-23 02:59:00,
2013-09-22 20:00:00,84.8,31.7,29.29,WNW,288,3.2,4.2,14,-99.99,,,0.00,0,rob ver 1B,2013-09-23 03:00:00,
2013-09-22 20:01:00,84.8,31.5,29.29,WNW,286,3.2,3.7,14,-99.99,,,0.00,0,rob ver 1B,2013-09-23 03:01:00,
2013-09-22 20:02:00,85.0,31.5,29.29,WNW,290,3.1,3.8,14,-99.99,,,0.00,0,rob ver 1B,2013-09-23 03:02:00,
2013-09-22 20:03:00,85.0,31.8,29.29,WNW,299,2.5,3.0,15,-99.99,,,0.00,0,rob ver 1B,2013-09-23 03:03:00,
2013-09-22 20:04:00,84.9,32.2,29.29,NW,319,2.1,2.6,14,-99.99,,,0.00,0,rob ver 1B,2013-09-23 03:04:00,
2013-09-22 20:05:00,79.8,26.1,29.21,NNW,331,4.7,5.4,13,-99.99,,,0.00,0,rob ver 1A,2013-09-23 03:05:00,
2013-09-22 20:06:00,84.6,31.5,29.29,NW,323,2.3,2.8,14,-99.99,,,0.00,0,rob ver 1B,2013-09-23 03:06:00,
2013-09-22 20:07:00,84.5,31.4,29.29,NW,314,2.2,2.8,14,-99.99,,,0.00,0,rob ver 1B,2013-09-23 03:07:00,
2013-09-22 20:08:00,84.5,31.4,29.29,NW,313,2.4,2.8,14,-99.99,,,0.00,0,rob ver 1B,2013-09-23 03:08:00,
2013-09-22 20:09:00,84.5,31.3,29.29,NW,318,2.4,2.6,14,-99.99,,,0.00,0,rob ver 1B,2013-09-23 03:09:00,
2013-09-22 20:10:00,79.6,26.0,29.21,NNW,329,4.3,5.3,13,-99.99,,,0.00,0,rob ver 1A,2013-09-23 03:10:00,
2013-09-22 20:11:00,84.5,31.3,29.29,NW,305,2.0,2.2,14,-99.99,,,0.00,0,rob ver 1B,2013-09-23 03:11:00,
2013-09-22 20:12:00,84.4,31.7,29.29,West,277,1.6,1.8,15,-99.99,,,0.00,0,rob ver 1B,2013-09-23 03:12:00,
2013-09-22 20:13:00,84.3,32.1,29.29,WNW,290,0.9,1.5,15,-99.99,,,0.00,0,rob ver 1B,2013-09-23 03:13:00,
2013-09-22 20:14:00,84.2,32.0,29.29,NW,307,0.7,1.1,15,-99.99,,,0.00,0,rob ver 1B,2013-09-23 03:14:00,
2013-09-22 20:15:00,79.3,26.2,29.21,NNW,337,3.2,4.0,14,-99.99,,,0.00,0,rob ver 1A,2013-09-23 03:15:00,
2013-09-22 20:16:00,83.9,31.9,29.29,WSW,258,1.1,1.4,15,-99.99,,,0.00,0,rob ver 1B,2013-09-23 03:16:00,
2013-09-22 20:17:00,83.8,31.9,29.29,West,280,1.2,1.4,15,-99.99,,,0.00,0,rob ver 1B,2013-09-23 03:17:00,
2013-09-22 20:18:00,83.7,32.1,29.29,WSW,250,1.3,1.7,15,-99.99,,,0.00,0,rob ver 1B,2013-09-23 03:18:00,
2013-09-22 20:19:00,83.6,31.6,29.29,SW,234,1.6,1.7,15,-99.99,,,0.00,0,rob ver 1B,2013-09-23 03:19:00,
2013-09-22 20:20:00,78.8,26.1,29.23,NNW,341,3.2,3.8,14,-99.99,,,0.00,0,rob ver 1A,2013-09-23 03:20:00,
2013-09-22 20:21:00,83.6,31.1,29.29,WSW,245,1.4,1.6,14,-99.99,,,0.00,0,rob ver 1B,2013-09-23 03:21:00,
2013-09-22 20:22:00,83.6,30.7,29.29,WSW,257,1.3,1.5,14,-99.99,,,0.00,0,rob ver 1B,2013-09-23 03:22:00,
2013-09-22 20:23:00,83.7,30.6,29.32,WSW,258,1.2,1.3,14,-99.99,,,0.00,0,rob ver 1B,2013-09-23 03:23:00,
2013-09-22 20:24:00,83.8,30.8,29.32,WSW,258,1.1,1.2,14,-99.99,,,0.00,0,rob ver 1B,2013-09-23 03:24:00,
2013-09-22 20:25:00,78.8,26.1,29.23,NNW,343,4.0,4.5,14,-99.99,,,0.00,0,rob ver 1A,2013-09-23 03:25:00,
2013-09-22 20:26:00,83.9,31.9,29.32,SSW,209,1.2,1.3,15,-99.99,,,0.00,0,rob ver 1B,2013-09-23 03:26:00,
2013-09-22 20:27:00,83.9,32.1,29.32,SSW,207,0.9,1.1,15,-99.99,,,0.00,0,rob ver 1B,2013-09-23 03:27:00,
2013-09-22 20:28:00,83.8,32.0,29.32,SSW,196,0.9,1.0,15,-99.99,,,0.00,0,rob ver 1B,2013-09-23 03:28:00,
2013-09-22 20:29:00,83.8,31.9,29.32,South,191,0.9,1.0,15,-99.99,,,0.00,0,rob ver 1B,2013-09-23 03:29:00,
2013-09-22 20:30:00,78.6,26.1,29.23,NNW,342,3.6,4.1,14,-99.99,,,0.00,0,rob ver 1A,2013-09-23 03:30:00,
2013-09-22 20:31:00,83.8,32.0,29.32,SSE,156,1.7,1.9,15,-99.99,,,0.00,0,rob ver 1B,2013-09-23 03:31:00,
2013-09-22 20:32:00,83.8,32.5,29.32,SE,137,2.0,2.3,16,-99.99,,,0.00,0,rob ver 1B,2013-09-23 03:32:00,
2013-09-22 20:33:00,83.7,33.3,29.32,ESE,117,2.6,3.2,16,-99.99,,,0.00,0,rob ver 1B,2013-09-23 03:33:00,
2013-09-22 20:34:00,83.4,33.7,29.32,East,90,3.9,4.5,16,-99.99,,,0.00,0,rob ver 1B,2013-09-23 03:34:00,
2013-09-22 20:35:00,78.4,26.0,29.23,NNW,346,4.1,4.6,14,-99.99,,,0.00,0,rob ver 1A,2013-09-23 03:35:00,
2013-09-22 20:36:00,82.6,33.8,29.32,ENE,62,2.7,3.4,17,-99.99,,,0.00,0,rob ver 1B,2013-09-23 03:36:00,
2013-09-22 20:37:00,82.2,34.1,29.32,ENE,68,3.4,4.3,17,-99.99,,,0.00,0,rob ver 1B,2013-09-23 03:37:00,
2013-09-22 20:38:00,81.9,34.2,29.32,ENE,73,4.4,5.4,17,-99.99,,,0.00,0,rob ver 1B,2013-09-23 03:38:00,
2013-09-22 20:39:00,81.9,34.0,29.32,East,90,3.4,4.3,17,-99.99,,,0.00,0,rob ver 1B,2013-09-23 03:39:00,
2013-09-22 20:40:00,78.5,26.1,29.23,NNW,344,3.8,4.3,14,-99.99,,,0.00,0,rob ver 1A,2013-09-23 03:40:00,
2013-09-22 20:41:00,81.9,33.5,29.32,ESE,106,3.1,4.3,17,-99.99,,,0.00,0,rob ver 1B,2013-09-23 03:41:00,
2013-09-22 20:42:00,82.1,33.1,29.32,ESE,117,3.4,4.4,17,-99.99,,,0.00,0,rob ver 1B,2013-09-23 03:42:00,
2013-09-22 20:43:00,82.1,33.6,29.32,SE,128,2.6,3.4,17,-99.99,,,0.00,0,rob ver 1B,2013-09-23 03:43:00,
2013-09-22 20:44:00,82.1,33.4,29.32,SE,135,3.1,3.6,17,-99.99,,,0.00,0,rob ver 1B,2013-09-23 03:44:00,
2013-09-22 20:45:00,82.2,32.9,29.32,SE,135,3.6,4.1,17,-99.99,,,0.00,0,rob ver 1B,2013-09-23 03:45:00,
2013-09-22 20:46:00,78.4,26.0,29.23,NNW,333,3.9,4.1,14,-99.99,,,0.00,0,rob ver 1A,2013-09-23 03:46:00,
2013-09-22 20:47:00,82.7,31.7,29.32,SE,132,3.3,4.4,15,-99.99,,,0.00,0,rob ver 1B,2013-09-23 03:47:00,
2013-09-22 20:48:00,82.7,31.3,29.32,SE,132,4.5,5.1,15,-99.99,,,0.00,0,rob ver 1B,2013-09-23 03:48:00,
2013-09-22 20:49:00,82.8,31.0,29.32,SE,134,5.1,5.4,15,-99.99,,,0.00,0,rob ver 1B,2013-09-23 03:49:00,
2013-09-22 20:50:00,82.9,31.0,29.32,SE,135,4.0,4.8,15,-99.99,,,0.00,0,rob ver 1B,2013-09-23 03:50:00,
2013-09-22 20:51:00,78.5,26.0,29.23,NNW,333,3.9,4.3,14,-99.99,,,0.00,0,rob ver 1A,2013-09-23 03:51:00,
2013-09-22 20:52:00,82.7,31.4,29.32,SE,138,2.8,3.2,15,-99.99,,,0.00,0,rob ver 1B,2013-09-23 03:52:00,
2013-09-22 20:53:00,82.6,31.7,29.32,SSE,154,2.5,2.7,15,-99.99,,,0.00,0,rob ver 1B,2013-09-23 03:53:00,
2013-09-22 20:54:00,82.4,31.5,29.32,SSE,166,2.2,2.6,15,-99.99,,,0.00,0,rob ver 1B,2013-09-23 03:54:00,
2013-09-22 20:55:00,82.3,31.2,29.32,SSE,163,2.3,4.0,15,-99.99,,,0.00,0,rob ver 1B,2013-09-23 03:55:00,
2013-09-22 20:56:00,77.8,26.1,29.23,NNW,347,4.1,4.7,14,-99.99,,,0.00,0,rob ver 1A,2013-09-23 03:56:00,
2013-09-22 20:57:00,82.4,30.6,29.32,SSE,157,3.1,3.8,15,-99.99,,,0.00,0,rob ver 1B,2013-09-23 03:57:00,
2013-09-22 20:58:00,82.4,31.1,29.32,SSE,147,3.2,4.0,15,-99.99,,,0.00,0,rob ver 1B,2013-09-23 03:58:00,
2013-09-22 20:59:00,82.3,30.6,29.32,SE,141,4.4,4.9,15,-99.99,,,0.00,0,rob ver 1B,2013-09-23 03:59:00,
2013-09-22 21:00:00,82.5,30.3,29.32,SE,143,4.0,5.0,15,-99.99,,,0.00,0,rob ver 1B,2013-09-23 04:00:00,
2013-09-22 21:01:00,77.4,26.2,29.23,NNW,346,4.5,4.8,15,-99.99,,,0.00,0,rob ver 1A,2013-09-23 04:01:00,
2013-09-22 21:02:00,77.4,26.2,29.23,NNW,347,4.5,5.0,15,-99.99,,,0.00,0,rob ver 1A,2013-09-23 04:02:00,
2013-09-22 21:03:00,77.3,26.2,29.23,NNW,346,4.6,4.9,15,-99.99,,,0.00,0,rob ver 1A,2013-09-23 04:03:00,
2013-09-22 21:04:00,77.2,26.1,29.23,NNW,344,4.8,5.2,15,-99.99,,,0.00,0,rob ver 1A,2013-09-23 04:04:00,
2013-09-22 21:05:00,82.9,29.7,29.32,SSE,154,3.9,4.4,14,-99.99,,,0.00,0,rob ver 1B,2013-09-23 04:05:00,
2013-09-22 21:06:00,83.2,29.8,29.32,SSE,158,4.3,4.8,14,-99.99,,,0.00,0,rob ver 1B,2013-09-23 04:06:00,
2013-09-22 21:07:00,83.4,30.0,29.32,SSE,166,3.6,4.4,14,-99.99,,,0.00,0,rob ver 1B,2013-09-23 04:07:00,
2013-09-22 21:08:00,83.4,30.4,29.32,South,179,2.3,3.2,14,-99.99,,,0.00,0,rob ver 1B,2013-09-23 04:08:00,
2013-09-22 21:09:00,76.9,25.9,29.23,NNW,337,4.3,4.9,15,-99.99,,,0.00,0,rob ver 1A,2013-09-23 04:09:00,
2013-09-22 21:10:00,83.1,29.6,29.32,South,180,3.3,3.5,14,-99.99,,,0.00,0,rob ver 1B,2013-09-23 04:10:00,
2013-09-22 21:11:00,83.2,29.5,29.32,South,177,4.2,4.9,14,-99.99,,,0.00,0,rob ver 1B,2013-09-23 04:11:00,
2013-09-22 21:12:00,83.3,29.2,29.32,South,175,4.6,5.2,13,-99.99,,,0.00,0,rob ver 1B,2013-09-23 04:12:00,
2013-09-22 21:13:00,83.7,29.2,29.32,South,181,3.9,4.5,13,-99.99,,,0.00,0,rob ver 1B,2013-09-23 04:13:00,
2013-09-22 21:14:00,77.1,25.9,29.23,NNW,337,4.4,5.1,14,-99.99,,,0.00,0,rob ver 1A,2013-09-23 04:14:00,
2013-09-22 21:15:00,84.0,29.8,29.32,SSW,195,2.3,3.0,14,-99.99,,,0.00,0,rob ver 1B,2013-09-23 04:15:00,
2013-09-22 21:16:00,84.0,30.0,29.32,South,191,2.3,3.0,14,-99.99,,,0.00,0,rob ver 1B,2013-09-23 04:16:00,
2013-09-22 21:17:00,83.8,30.2,29.32,South,184,2.5,3.1,14,-99.99,,,0.00,0,rob ver 1B,2013-09-23 04:17:00,
2013-09-22 21:18:00,83.6,30.1,29.32,South,187,3.3,4.5,14,-99.99,,,0.00,0,rob ver 1B,2013-09-23 04:18:00,
2013-09-22 21:19:00,76.9,25.9,29.23,NNW,338,4.0,4.5,15,-99.99,,,0.00,0,rob ver 1A,2013-09-23 04:19:00,
2013-09-22 21:20:00,83.2,30.0,29.32,SSW,197,3.8,4.1,14,-99.99,,,0.00,0,rob ver 1B,2013-09-23 04:20:00,
2013-09-22 21:21:00,83.1,30.1,29.32,SW,216,2.7,3.7,14,-99.99,,,0.00,0,rob ver 1B,2013-09-23 04:21:00,
2013-09-22 21:22:00,82.9,30.3,29.32,SSW,209,2.2,2.8,14,-99.99,,,0.00,0,rob ver 1B,2013-09-23 04:22:00,
2013-09-22 21:23:00,82.6,29.9,29.32,SSW,208,2.6,3.0,14,-99.99,,,0.00,0,rob ver 1B,2013-09-23 04:23:00,
2013-09-22 21:24:00,76.4,26.1,29.23,NNW,340,4.7,5.3,15,-99.99,,,0.00,0,rob ver 1A,2013-09-23 04:24:00,
2013-09-22 21:25:00,82.3,29.6,29.32,South,190,2.8,3.6,14,-99.99,,,0.00,0,rob ver 1B,2013-09-23 04:25:00,
2013-09-22 21:26:00,82.3,29.7,29.32,SSW,194,2.3,3.1,14,-99.99,,,0.00,0,rob ver 1B,2013-09-23 04:26:00,
2013-09-22 21:27:00,82.2,29.9,29.32,SSW,192,2.0,2.6,14,-99.99,,,0.00,0,rob ver 1B,2013-09-23 04:27:00,
2013-09-22 21:28:00,82.1,29.9,29.32,SSW,204,1.7,2.4,15,-99.99,,,0.00,0,rob ver 1B,2013-09-23 04:28:00,
2013-09-22 21:29:00,76.2,25.9,29.23,NNW,340,4.9,5.5,15,-99.99,,,0.00,0,rob ver 1A,2013-09-23 04:29:00,
2013-09-22 21:30:00,81.8,29.4,29.32,SSW,212,2.2,2.9,14,-99.99,,,0.00,0,rob ver 1B,2013-09-23 04:30:00,
2013-09-22 21:31:00,81.8,29.3,29.32,SSW,210,2.6,3.4,14,-99.99,,,0.00,0,rob ver 1B,2013-09-23 04:31:00,
2013-09-22 21:32:00,81.8,29.3,29.32,SSW,206,2.4,2.9,14,-99.99,,,0.00,0,rob ver 1B,2013-09-23 04:32:00,
2013-09-22 21:33:00,81.9,29.3,29.32,SW,215,1.8,2.3,14,-99.99,,,0.00,0,rob ver 1B,2013-09-23 04:33:00,
2013-09-22 21:34:00,76.3,25.7,29.23,NNW,344,4.4,5.4,15,-99.99,,,0.00,0,rob ver 1A,2013-09-23 04:34:00,
2013-09-22 21:35:00,81.9,29.5,29.32,WSW,258,1.3,1.6,14,-99.99,,,0.00,0,rob ver 1B,2013-09-23 04:35:00,
2013-09-22 21:36:00,81.8,29.7,29.32,West,275,1.0,1.4,15,-99.99,,,0.00,0,rob ver 1B,2013-09-23 04:36:00,
2013-09-22 21:37:00,81.8,29.9,29.32,NW,316,1.2,1.7,15,-99.99,,,0.00,0,rob ver 1B,2013-09-23 04:37:00,
2013-09-22 21:38:00,81.8,30.0,29.32,NNW,328,1.5,1.8,15,-99.99,,,0.00,0,rob ver 1B,2013-09-23 04:38:00,
2013-09-22 21:39:00,76.4,25.4,29.23,NNW,347,4.5,5.1,15,-99.99,,,0.00,0,rob ver 1A,2013-09-23 04:39:00,
2013-09-22 21:40:00,81.6,29.7,29.32,NNW,341,1.8,2.2,15,-99.99,,,0.00,0,rob ver 1B,2013-09-23 04:40:00,
2013-09-22 21:41:00,81.6,29.7,29.32,NNW,341,2.0,2.4,15,-99.99,,,0.00,0,rob ver 1B,2013-09-23 04:41:00,
2013-09-22 21:42:00,81.7,30.4,29.32,NNW,331,1.7,2.2,15,-99.99,,,0.00,0,rob ver 1B,2013-09-23 04:42:00,
2013-09-22 21:43:00,81.7,29.8,29.32,NW,311,1.4,2.0,14,-99.99,,,0.00,0,rob ver 1B,2013-09-23 04:43:00,
2013-09-22 21:44:00,76.5,25.4,29.23,NNW,348,5.0,5.6,14,-99.99,,,0.00,0,rob ver 1A,2013-09-23 04:44:00,
2013-09-22 21:45:00,81.8,29.5,29.32,WNW,299,1.0,1.5,14,-99.99,,,0.00,0,rob ver 1B,2013-09-23 04:45:00,
2013-09-22 21:46:00,81.9,29.6,29.32,WNW,301,0.9,1.2,14,-99.99,,,0.00,0,rob ver 1B,2013-09-23 04:46:00,
2013-09-22 21:47:00,81.9,29.7,29.32,NW,309,1.2,1.7,14,-99.99,,,0.00,0,rob ver 1B,2013-09-23 04:47:00,
2013-09-22 21:48:00,81.9,30.0,29.32,NNW,332,2.1,3.2,15,-99.99,,,0.00,0,rob ver 1B,2013-09-23 04:48:00,
2013-09-22 21:49:00,76.8,25.3,29.23,North,354,4.2,4.7,14,-99.99,,,0.00,0,rob ver 1A,2013-09-23 04:49:00,
2013-09-22 21:50:00,81.2,32.7,29.32,North,2,3.6,4.0,17,-99.99,,,0.00,0,rob ver 1B,2013-09-23 04:50:00,
2013-09-22 21:51:00,81.1,32.4,29.32,North,0,3.1,3.6,17,-99.99,,,0.00,0,rob ver 1B,2013-09-23 04:51:00,
2013-09-22 21:52:00,81.0,32.4,29.32,North,353,2.7,3.0,17,-99.99,,,0.00,0,rob ver 1B,2013-09-23 04:52:00,
2013-09-22 21:53:00,80.8,32.8,29.32,North,353,2.4,3.0,18,-99.99,,,0.00,0,rob ver 1B,2013-09-23 04:53:00,
2013-09-22 21:54:00,80.7,32.5,29.32,NNW,348,2.5,3.2,16,-99.99,,,0.00,0,rob ver 1B,2013-09-23 04:54:00,
2013-09-22 21:55:00,77.1,25.1,29.23,North,354,3.9,4.2,14,-99.99,,,0.00,0,rob ver 1A,2013-09-23 04:55:00,
2013-09-22 21:56:00,81.1,30.6,29.32,NNW,343,2.5,2.8,15,-99.99,,,0.00,0,rob ver 1B,2013-09-23 04:56:00,
2013-09-22 21:57:00,81.2,31.6,29.32,NNW,342,2.5,2.9,17,-99.99,,,0.00,0,rob ver 1B,2013-09-23 04:57:00,
2013-09-22 21:58:00,81.2,31.3,29.32,North,350,2.5,2.8,15,-99.99,,,0.00,0,rob ver 1B,2013-09-23 04:58:00,
2013-09-22 21:59:00,81.2,31.3,29.32,North,350,2.2,2.6,16,-99.99,,,0.00,0,rob ver 1B,2013-09-23 04:59:00,
2013-09-22 22:00:00,77.0,25.1,29.23,North,358,3.0,3.6,14,-99.99,,,0.00,0,rob ver 1A,2013-09-23 05:00:00,
2013-09-22 22:01:00,81.1,32.0,29.32,North,356,2.5,2.8,17,-99.99,,,0.00,0,rob ver 1B,2013-09-23 05:01:00,
2013-09-22 22:02:00,81.1,32.5,29.32,North,1,2.5,2.7,17,-99.99,,,0.00,0,rob ver 1B,2013-09-23 05:02:00,
2013-09-22 22:03:00,80.9,33.1,29.32,North,358,2.7,3.2,17,-99.99,,,0.00,0,rob ver 1B,2013-09-23 05:03:00,
2013-09-22 22:04:00,80.8,33.1,29.32,NNW,346,3.0,3.2,17,-99.99,,,0.00,0,rob ver 1B,2013-09-23 05:04:00,
2013-09-22 22:05:00,77.1,25.2,29.23,North,352,3.4,3.7,14,-99.99,,,0.00,0,rob ver 1A,2013-09-23 05:05:00,
2013-09-22 22:06:00,80.8,30.3,29.32,NW,321,2.5,2.8,15,-99.99,,,0.00,0,rob ver 1B,2013-09-23 05:06:00,
2013-09-22 22:07:00,81.1,29.4,29.32,NW,316,2.2,2.6,15,-99.99,,,0.00,0,rob ver 1B,2013-09-23 05:07:00,
2013-09-22 22:08:00,81.4,29.4,29.32,NW,314,2.0,2.3,14,-99.99,,,0.00,0,rob ver 1B,2013-09-23 05:08:00,
2013-09-22 22:09:00,81.7,29.6,29.32,NNW,332,2.2,2.5,15,-99.99,,,0.00,0,rob ver 1B,2013-09-23 05:09:00,
2013-09-22 22:10:00,76.9,24.9,29.23,NNW,333,2.3,2.6,14,-99.99,,,0.00,0,rob ver 1A,2013-09-23 05:10:00,
2013-09-22 22:11:00,81.3,32.4,29.32,NNE,32,3.1,3.5,17,-99.99,,,0.00,0,rob ver 1B,2013-09-23 05:11:00,
2013-09-22 22:12:00,81.0,32.7,29.32,NE,37,2.9,3.2,17,-99.99,,,0.00,0,rob ver 1B,2013-09-23 05:12:00,
2013-09-22 22:13:00,80.9,32.4,29.32,NNE,29,2.7,3.0,17,-99.99,,,0.00,0,rob ver 1B,2013-09-23 05:13:00,
2013-09-22 22:14:00,80.9,32.1,29.32,NNE,30,1.9,2.5,17,-99.99,,,0.00,0,rob ver 1B,2013-09-23 05:14:00,
2013-09-22 22:15:00,76.7,26.6,29.23,WNW,299,1.0,1.5,15,-99.99,,,0.00,0,rob ver 1A,2013-09-23 05:15:00,
2013-09-22 22:16:00,80.8,31.2,29.32,North,356,1.4,1.7,16,-99.99,,,0.00,0,rob ver 1B,2013-09-23 05:16:00,
2013-09-22 22:17:00,80.9,31.9,29.32,North,1,1.5,1.7,17,-99.99,,,0.00,0,rob ver 1B,2013-09-23 05:17:00,
2013-09-22 22:18:00,80.9,31.8,29.32,North,350,1.2,1.4,16,-99.99,,,0.00,0,rob ver 1B,2013-09-23 05:18:00,
2013-09-22 22:19:00,80.9,32.2,29.32,North,5,1.6,2.0,17,-99.99,,,0.00,0,rob ver 1B,2013-09-23 05:19:00,
2013-09-22 22:20:00,80.9,32.1,29.32,NNE,25,1.7,1.9,17,-99.99,,,0.00,0,rob ver 1B,2013-09-23 05:20:00,
2013-09-22 22:21:00,80.9,32.0,29.32,NE,35,1.1,1.3,16,-99.99,,,0.00,0,rob ver 1B,2013-09-23 05:21:00,
2013-09-22 22:22:00,80.9,32.3,29.32,NE,55,0.7,0.9,17,-99.99,,,0.00,0,rob ver 1B,2013-09-23 05:22:00,
2013-09-22 22:23:00,80.8,32.6,29.32,East,90,0.7,1.0,17,-99.99,,,0.00,0,rob ver 1B,2013-09-23 05:23:00,
2013-09-22 22:24:00,80.7,31.7,29.32,ENE,59,0.7,0.8,16,-99.99,,,0.00,0,rob ver 1B,2013-09-23 05:24:00,
2013-09-22 22:25:00,74.8,26.8,29.23,NNW,336,4.0,4.4,16,-99.99,,,0.00,0,rob ver 1A,2013-09-23 05:25:00,
2013-09-22 22:26:00,80.9,29.5,29.32,ESE,102,0.7,0.9,15,-99.99,,,0.00,0,rob ver 1B,2013-09-23 05:26:00,
2013-09-22 22:27:00,81.2,29.6,29.32,SE,128,0.6,0.8,15,-99.99,,,0.00,0,rob ver 1B,2013-09-23 05:27:00,
2013-09-22 22:28:00,81.4,29.4,29.32,SE,128,0.6,0.8,15,-99.99,,,0.00,0,rob ver 1B,2013-09-23 05:28:00,
2013-09-22 22:29:00,81.5,31.0,29.32,ESE,105,0.8,1.1,16,-99.99,,,0.00,0,rob ver 1B,2013-09-23 05:29:00,
2013-09-22 22:30:00,75.3,25.4,29.23,NNW,338,4.0,4.7,15,-99.99,,,0.00,0,rob ver 1A,2013-09-23 05:30:00,
2013-09-22 22:31:00,81.5,29.9,29.32,East,79,0.8,1.2,15,-99.99,,,0.00,0,rob ver 1B,2013-09-23 05:31:00,
2013-09-22 22:32:00,81.5,30.7,29.32,NE,55,1.2,1.7,16,-99.99,,,0.00,0,rob ver 1B,2013-09-23 05:32:00,
2013-09-22 22:33:00,81.4,30.5,29.32,NE,52,1.3,1.5,15,-99.99,,,0.00,0,rob ver 1B,2013-09-23 05:33:00,
2013-09-22 22:34:00,81.3,30.1,29.32,NE,52,1.2,1.5,15,-99.99,,,0.00,0,rob ver 1B,2013-09-23 05:34:00,
2013-09-22 22:35:00,81.2,30.8,29.32,NE,48,1.6,1.7,16,-99.99,,,0.00,0,rob ver 1B,2013-09-23 05:35:00,
2013-09-22 22:36:00,75.5,25.3,29.23,NNW,342,5.1,5.7,15,-99.99,,,0.00,0,rob ver 1A,2013-09-23 05:36:00,
2013-09-22 22:37:00,80.8,32.3,29.32,NE,53,3.4,4.0,17,-99.99,,,0.00,0,rob ver 1B,2013-09-23 05:37:00,
2013-09-22 22:38:00,80.4,32.8,29.32,NE,53,4.3,4.9,18,-99.99,,,0.00,0,rob ver 1B,2013-09-23 05:38:00,
2013-09-22 22:39:00,79.9,33.3,29.32,NE,52,4.3,5.0,18,-99.99,,,0.00,0,rob ver 1B,2013-09-23 05:39:00,
2013-09-22 22:40:00,79.5,33.0,29.32,NE,52,4.1,4.6,18,-99.99,,,0.00,0,rob ver 1B,2013-09-23 05:40:00,
2013-09-22 22:41:00,75.4,25.3,29.23,NNW,337,5.1,5.4,15,-99.99,,,0.00,0,rob ver 1A,2013-09-23 05:41:00,
2013-09-22 22:42:00,79.0,33.5,29.32,NE,45,3.7,3.9,19,-99.99,,,0.00,0,rob ver 1B,2013-09-23 05:42:00,
2013-09-22 22:43:00,78.9,33.5,29.32,NE,47,3.9,4.8,19,-99.99,,,0.00,0,rob ver 1B,2013-09-23 05:43:00,
2013-09-22 22:44:00,78.6,33.8,29.32,NE,53,4.2,5.1,19,-99.99,,,0.00,0,rob ver 1B,2013-09-23 05:44:00,
2013-09-22 22:45:00,78.3,33.9,29.32,NE,44,4.6,5.5,20,-99.99,,,0.00,0,rob ver 1B,2013-09-23 05:45:00,
2013-09-22 22:46:00,75.5,25.6,29.23,NNW,330,4.5,5.1,15,-99.99,,,0.00,0,rob ver 1A,2013-09-23 05:46:00,
2013-09-22 22:47:00,77.9,34.2,29.32,NE,50,4.3,5.3,20,-99.99,,,0.00,0,rob ver 1B,2013-09-23 05:47:00,
2013-09-22 22:48:00,77.7,34.2,29.32,NE,44,4.4,5.1,20,-99.99,,,0.00,0,rob ver 1B,2013-09-23 05:48:00,
2013-09-22 22:49:00,77.5,34.4,29.32,NE,41,4.4,5.2,20,-99.99,,,0.00,0,rob ver 1B,2013-09-23 05:49:00,
2013-09-22 22:50:00,77.4,34.3,29.32,NE,41,5.1,5.8,20,-99.99,,,0.00,0,rob ver 1B,2013-09-23 05:50:00,
2013-09-22 22:51:00,75.8,25.6,29.23,NW,318,4.6,5.1,15,-99.99,,,0.00,0,rob ver 1A,2013-09-23 05:51:00,
2013-09-22 22:52:00,77.3,34.2,29.32,NE,55,4.4,5.1,20,-99.99,,,0.00,0,rob ver 1B,2013-09-23 05:52:00,
2013-09-22 22:53:00,77.3,34.0,29.32,NE,56,4.3,5.2,20,-99.99,,,0.00,0,rob ver 1B,2013-09-23 05:53:00,
2013-09-22 22:54:00,77.2,34.2,29.32,ENE,58,3.9,4.6,20,-99.99,,,0.00,0,rob ver 1B,2013-09-23 05:54:00,
2013-09-22 22:55:00,77.2,34.1,29.32,NE,55,4.3,5.2,20,-99.99,,,0.00,0,rob ver 1B,2013-09-23 05:55:00,
2013-09-22 22:56:00,74.9,27.3,29.23,NW,311,4.7,5.1,17,-99.99,,,0.00,0,rob ver 1A,2013-09-23 05:56:00,
2013-09-22 22:57:00,77.1,34.0,29.32,NE,47,4.4,5.3,20,-99.99,,,0.00,0,rob ver 1B,2013-09-23 05:57:00,
2013-09-22 22:58:00,77.1,33.9,29.32,NE,47,4.5,5.3,20,-99.99,,,0.00,0,rob ver 1B,2013-09-23 05:58:00,
2013-09-22 22:59:00,77.0,33.9,29.32,NE,46,4.5,5.1,20,-99.99,,,0.00,0,rob ver 1B,2013-09-23 05:59:00,
2013-09-22 23:00:00,77.0,33.9,29.32,NE,45,4.3,4.9,20,-99.99,,,0.00,0,rob ver 1B,2013-09-23 06:00:00,
2013-09-22 23:01:00,75.1,27.7,29.23,NW,311,4.3,4.6,17,-99.99,,,0.00,0,rob ver 1A,2013-09-23 06:01:00,
2013-09-22 23:02:00,76.9,33.9,29.32,NE,40,5.0,5.7,20,-99.99,,,0.00,0,rob ver 1B,2013-09-23 06:02:00,
2013-09-22 23:03:00,76.9,33.9,29.32,NE,43,4.9,5.6,20,-99.99,,,0.00,0,rob ver 1B,2013-09-23 06:03:00,
2013-09-22 23:04:00,76.9,33.7,29.32,NE,48,4.9,5.6,20,-99.99,,,0.00,0,rob ver 1B,2013-09-23 06:04:00,
2013-09-22 23:05:00,76.8,33.8,29.32,NE,46,4.5,5.4,21,-99.99,,,0.00,0,rob ver 1B,2013-09-23 06:05:00,
2013-09-22 23:06:00,74.9,27.6,29.23,WSW,256,4.1,4.7,17,-99.99,,,0.00,0,rob ver 1A,2013-09-23 06:06:00,
2013-09-22 23:07:00,76.7,33.9,29.32,NE,45,4.4,5.3,21,-99.99,,,0.00,0,rob ver 1B,2013-09-23 06:07:00,
2013-09-22 23:08:00,76.6,33.8,29.32,NE,41,4.5,5.1,21,-99.99,,,0.00,0,rob ver 1B,2013-09-23 06:08:00,
2013-09-22 23:09:00,76.7,33.8,29.32,NE,42,4.1,5.3,20,-99.99,,,0.00,0,rob ver 1B,2013-09-23 06:09:00,
2013-09-22 23:10:00,76.7,33.8,29.32,NE,41,3.4,4.0,20,-99.99,,,0.00,0,rob ver 1B,2013-09-23 06:10:00,
2013-09-22 23:11:00,72.3,29.5,29.23,West,264,4.6,5.2,20,-99.99,,,0.00,0,rob ver 1A,2013-09-23 06:11:00,
2013-09-22 23:12:00,76.7,33.8,29.32,NE,38,3.3,4.1,20,-99.99,,,0.00,0,rob ver 1B,2013-09-23 06:12:00,
2013-09-22 23:13:00,76.7,33.8,29.32,NE,38,3.8,4.5,20,-99.99,,,0.00,0,rob ver 1B,2013-09-23 06:13:00,
2013-09-22 23:14:00,76.8,33.7,29.32,NE,34,4.3,4.7,20,-99.99,,,0.00,0,rob ver 1B,2013-09-23 06:14:00,
2013-09-22 23:15:00,76.9,33.8,29.32,NNE,31,3.9,4.7,20,-99.99,,,0.00,0,rob ver 1B,2013-09-23 06:15:00,
2013-09-22 23:16:00,71.6,29.7,29.23,West,278,5.3,5.9,20,-99.99,,,0.00,0,rob ver 1A,2013-09-23 06:16:00,
2013-09-22 23:17:00,76.9,34.0,29.32,NNE,27,3.0,3.6,20,-99.99,,,0.00,0,rob ver 1B,2013-09-23 06:17:00,
2013-09-22 23:18:00,76.8,34.0,29.32,NNE,26,2.8,3.6,20,-99.99,,,0.00,0,rob ver 1B,2013-09-23 06:18:00,
2013-09-22 23:19:00,76.8,34.0,29.32,NNE,31,2.7,3.2,21,-99.99,,,0.00,0,rob ver 1B,2013-09-23 06:19:00,
2013-09-22 23:20:00,76.7,34.0,29.32,NNE,31,3.3,3.8,21,-99.99,,,0.00,0,rob ver 1B,2013-09-23 06:20:00,
2013-09-22 23:21:00,71.9,29.4,29.23,WNW,285,5.2,5.7,20,-99.99,,,0.00,0,rob ver 1A,2013-09-23 06:21:00,
2013-09-22 23:22:00,76.8,34.0,29.32,NNE,21,3.2,3.6,20,-99.99,,,0.00,0,rob ver 1B,2013-09-23 06:22:00,
2013-09-22 23:23:00,76.9,33.9,29.32,NNE,23,2.9,3.3,20,-99.99,,,0.00,0,rob ver 1B,2013-09-23 06:23:00,
2013-09-22 23:24:00,76.9,33.9,29.32,NNE,18,2.7,3.1,20,-99.99,,,0.00,0,rob ver 1B,2013-09-23 06:24:00,
2013-09-22 23:25:00,76.9,34.1,29.32,NNE,26,2.6,2.8,21,-99.99,,,0.00,0,rob ver 1B,2013-09-23 06:25:00,
2013-09-22 23:26:00,76.9,34.0,29.32,NNE,31,2.9,3.2,20,-99.99,,,0.00,0,rob ver 1B,2013-09-23 06:26:00,
2013-09-22 23:27:00,72.1,29.5,29.23,NW,305,4.5,5.1,20,-99.99,,,0.00,0,rob ver 1A,2013-09-23 06:27:00,
2013-09-22 23:28:00,77.0,33.9,29.32,NNE,32,3.0,3.3,20,-99.99,,,0.00,0,rob ver 1B,2013-09-23 06:28:00,
2013-09-22 23:29:00,77.0,33.9,29.32,NNE,28,2.8,3.4,20,-99.99,,,0.00,0,rob ver 1B,2013-09-23 06:29:00,
2013-09-22 23:30:00,77.0,33.9,29.32,NNE,20,2.8,3.1,20,-99.99,,,0.00,0,rob ver 1B,2013-09-23 06:30:00,
2013-09-22 23:31:00,76.9,34.0,29.32,NNE,15,3.1,3.3,20,-99.99,,,0.00,0,rob ver 1B,2013-09-23 06:31:00,
2013-09-22 23:32:00,72.0,29.4,29.23,WNW,302,4.2,4.8,20,-99.99,,,0.00,0,rob ver 1A,2013-09-23 06:32:00,
2013-09-22 23:33:00,76.8,34.2,29.32,NNE,15,2.8,3.0,21,-99.99,,,0.00,0,rob ver 1B,2013-09-23 06:33:00,
2013-09-22 23:34:00,76.7,34.0,29.32,NNE,25,2.9,3.3,21,-99.99,,,0.00,0,rob ver 1B,2013-09-23 06:34:00,
2013-09-22 23:35:00,76.7,34.0,29.32,NNE,25,3.2,3.6,21,-99.99,,,0.00,0,rob ver 1B,2013-09-23 06:35:00,
2013-09-22 23:36:00,76.8,33.9,29.32,NNE,27,3.5,3.7,20,-99.99,,,0.00,0,rob ver 1B,2013-09-23 06:36:00,
2013-09-22 23:37:00,72.2,28.5,29.23,WNW,301,4.8,5.4,19,-99.99,,,0.00,0,rob ver 1A,2013-09-23 06:37:00,
2013-09-22 23:38:00,76.7,33.9,29.32,NNE,26,3.1,3.4,21,-99.99,,,0.00,0,rob ver 1B,2013-09-23 06:38:00,
2013-09-22 23:39:00,76.6,33.9,29.32,NNE,21,2.9,3.2,20,-99.99,,,0.00,0,rob ver 1B,2013-09-23 06:39:00,
2013-09-22 23:40:00,76.5,34.0,29.32,NNE,14,2.6,3.0,21,-99.99,,,0.00,0,rob ver 1B,2013-09-23 06:40:00,
2013-09-22 23:41:00,76.4,33.9,29.32,North,6,2.9,3.6,21,-99.99,,,0.00,0,rob ver 1B,2013-09-23 06:41:00,
2013-09-22 23:42:00,72.5,27.8,29.23,WNW,299,4.7,5.3,18,-99.99,,,0.00,0,rob ver 1A,2013-09-23 06:42:00,
2013-09-22 23:43:00,76.4,33.6,29.32,North,10,3.8,4.1,20,-99.99,,,0.00,0,rob ver 1B,2013-09-23 06:43:00,
2013-09-22 23:44:00,76.4,33.6,29.32,North,6,4.2,4.6,20,-99.99,,,0.00,0,rob ver 1B,2013-09-23 06:44:00,
2013-09-22 23:45:00,76.5,33.5,29.32,North,7,4.5,4.9,20,-99.99,,,0.00,0,rob ver 1B,2013-09-23 06:45:00,
2013-09-22 23:46:00,76.6,33.5,29.32,North,6,4.0,4.5,20,-99.99,,,0.00,0,rob ver 1B,2013-09-23 06:46:00,
2013-09-22 23:47:00,72.8,27.6,29.23,WNW,302,3.9,4.7,18,-99.99,,,0.00,0,rob ver 1A,2013-09-23 06:47:00,
2013-09-22 23:48:00,76.6,33.4,29.32,NNE,12,3.9,4.1,20,-99.99,,,0.00,0,rob ver 1B,2013-09-23 06:48:00,
2013-09-22 23:49:00,76.6,33.5,29.32,North,9,3.8,4.0,20,-99.99,,,0.00,0,rob ver 1B,2013-09-23 06:49:00,
2013-09-22 23:50:00,76.6,33.4,29.32,North,9,3.6,4.0,20,-99.99,,,0.00,0,rob ver 1B,2013-09-23 06:50:00,
2013-09-22 23:51:00,76.6,33.4,29.32,NNE,14,3.8,4.1,20,-99.99,,,0.00,0,rob ver 1B,2013-09-23 06:51:00,
2013-09-22 23:52:00,72.9,27.7,29.23,WNW,288,3.7,4.5,18,-99.99,,,0.00,0,rob ver 1A,2013-09-23 06:52:00,
2013-09-22 23:53:00,76.5,33.3,29.32,NNE,18,4.3,4.5,20,-99.99,,,0.00,0,rob ver 1B,2013-09-23 06:53:00,
2013-09-22 23:54:00,76.5,33.5,29.32,NNE,24,3.9,4.5,20,-99.99,,,0.00,0,rob ver 1B,2013-09-23 06:54:00,
2013-09-22 23:55:00,76.3,33.8,29.32,NE,36,3.1,3.4,21,-99.99,,,0.00,0,rob ver 1B,2013-09-23 06:55:00,
2013-09-22 23:56:00,76.2,33.7,29.32,NE,36,3.1,3.4,21,-99.99,,,0.00,0,rob ver 1B,2013-09-23 06:56:00,
2013-09-22 23:57:00,72.4,28.1,29.23,West,272,2.8,3.2,19,-99.99,,,0.00,0,rob ver 1A,2013-09-23 06:57:00,
2013-09-22 23:58:00,76.3,33.6,29.32,NE,38,3.5,3.7,20,-99.99,,,0.00,0,rob ver 1B,2013-09-23 06:58:00,
2013-09-22 23:59:00,76.4,33.5,29.32,NE,44,3.7,4.2,20,-99.99,,,0.00,0,rob ver 1B,2013-09-23 06:59:00,